<?xml version="1.0" encoding="UTF-8" standalone="no" ?>
<gpx xmlns="http://www.topografix.com/GPX/1/1" xmlns:xsi="http://www.w3.org/2001/XMLSchema-instance" xsi:schemaLocation="http://www.topografix.com/GPX/1/1 http://www.topografix.com/GPX/1/1/gpx.xsd" version="1.1" creator="VisuGPX - https://www.visugpx.com">
  <metadata>
    <name>Ronde des trois quilles 2011</name>
    <desc><![CDATA[Ronde des trois quilles 2011]]></desc>
  </metadata>
  <wpt lat="42.8736" lon="2.18359">
    <ele>289</ele>
    <name><![CDATA[Start]]></name>
    <desc><![CDATA[2011-10-15 11:10:44]]></desc>
  </wpt>
  <wpt lat="42.87348" lon="2.18248">
    <ele>291</ele>
    <name><![CDATA[Lap 1]]></name>
    <desc><![CDATA[48.27km, 222:05, 13.0kph]]></desc>
  </wpt>
  <trk>
    <name><![CDATA[2011-10-15-11-10-44]]></name>
    <desc><![CDATA[222:05 - 48.3km]]></desc>
    <trkseg>
      <trkpt lat="42.8736" lon="2.18359">
        <ele>244.652</ele>
        <time>2011-10-15T11:10:46Z</time>
      </trkpt>
      <trkpt lat="42.8736" lon="2.18365">
        <ele>244.651</ele>
        <time>2011-10-15T11:10:47Z</time>
      </trkpt>
      <trkpt lat="42.87376" lon="2.18428">
        <ele>243.257</ele>
        <time>2011-10-15T11:10:57Z</time>
      </trkpt>
      <trkpt lat="42.87383" lon="2.18452">
        <ele>243.321</ele>
        <time>2011-10-15T11:11:00Z</time>
      </trkpt>
      <trkpt lat="42.87393" lon="2.18479">
        <ele>242.251</ele>
        <time>2011-10-15T11:11:04Z</time>
      </trkpt>
      <trkpt lat="42.87399" lon="2.18512">
        <ele>241.987</ele>
        <time>2011-10-15T11:11:08Z</time>
      </trkpt>
      <trkpt lat="42.87422" lon="2.18522">
        <ele>241.592</ele>
        <time>2011-10-15T11:11:13Z</time>
      </trkpt>
      <trkpt lat="42.8745" lon="2.18537">
        <ele>241.536</ele>
        <time>2011-10-15T11:11:18Z</time>
      </trkpt>
      <trkpt lat="42.87465" lon="2.18543">
        <ele>241.306</ele>
        <time>2011-10-15T11:11:22Z</time>
      </trkpt>
      <trkpt lat="42.87467" lon="2.18557">
        <ele>241.309</ele>
        <time>2011-10-15T11:11:25Z</time>
      </trkpt>
      <trkpt lat="42.87469" lon="2.18569">
        <ele>242.095</ele>
        <time>2011-10-15T11:11:28Z</time>
      </trkpt>
      <trkpt lat="42.87476" lon="2.18605">
        <ele>244.165</ele>
        <time>2011-10-15T11:11:37Z</time>
      </trkpt>
      <trkpt lat="42.87485" lon="2.18618">
        <ele>244.456</ele>
        <time>2011-10-15T11:11:42Z</time>
      </trkpt>
      <trkpt lat="42.87514" lon="2.1864">
        <ele>245.576</ele>
        <time>2011-10-15T11:11:53Z</time>
      </trkpt>
      <trkpt lat="42.8754" lon="2.1866">
        <ele>246.035</ele>
        <time>2011-10-15T11:12:02Z</time>
      </trkpt>
      <trkpt lat="42.87557" lon="2.18674">
        <ele>245.773</ele>
        <time>2011-10-15T11:12:08Z</time>
      </trkpt>
      <trkpt lat="42.87578" lon="2.18686">
        <ele>245.69</ele>
        <time>2011-10-15T11:12:14Z</time>
      </trkpt>
      <trkpt lat="42.87612" lon="2.18706">
        <ele>245.194</ele>
        <time>2011-10-15T11:12:23Z</time>
      </trkpt>
      <trkpt lat="42.87637" lon="2.1872">
        <ele>244.755</ele>
        <time>2011-10-15T11:12:29Z</time>
      </trkpt>
      <trkpt lat="42.8767" lon="2.18739">
        <ele>244.424</ele>
        <time>2011-10-15T11:12:37Z</time>
      </trkpt>
      <trkpt lat="42.87693" lon="2.18753">
        <ele>244.421</ele>
        <time>2011-10-15T11:12:44Z</time>
      </trkpt>
      <trkpt lat="42.87726" lon="2.18772">
        <ele>244.326</ele>
        <time>2011-10-15T11:12:54Z</time>
      </trkpt>
      <trkpt lat="42.87751" lon="2.18789">
        <ele>244.274</ele>
        <time>2011-10-15T11:13:01Z</time>
      </trkpt>
      <trkpt lat="42.87778" lon="2.18808">
        <ele>243.39</ele>
        <time>2011-10-15T11:13:08Z</time>
      </trkpt>
      <trkpt lat="42.87798" lon="2.18822">
        <ele>242.45</ele>
        <time>2011-10-15T11:13:14Z</time>
      </trkpt>
      <trkpt lat="42.87818" lon="2.18836">
        <ele>242.331</ele>
        <time>2011-10-15T11:13:20Z</time>
      </trkpt>
      <trkpt lat="42.8785" lon="2.18856">
        <ele>241.582</ele>
        <time>2011-10-15T11:13:27Z</time>
      </trkpt>
      <trkpt lat="42.8789" lon="2.1888">
        <ele>240.152</ele>
        <time>2011-10-15T11:13:34Z</time>
      </trkpt>
      <trkpt lat="42.87941" lon="2.18912">
        <ele>238.574</ele>
        <time>2011-10-15T11:13:43Z</time>
      </trkpt>
      <trkpt lat="42.87996" lon="2.18946">
        <ele>238.138</ele>
        <time>2011-10-15T11:13:53Z</time>
      </trkpt>
      <trkpt lat="42.88046" lon="2.18977">
        <ele>237.862</ele>
        <time>2011-10-15T11:14:03Z</time>
      </trkpt>
      <trkpt lat="42.88093" lon="2.19006">
        <ele>237.487</ele>
        <time>2011-10-15T11:14:13Z</time>
      </trkpt>
      <trkpt lat="42.88139" lon="2.19033">
        <ele>237.284</ele>
        <time>2011-10-15T11:14:23Z</time>
      </trkpt>
      <trkpt lat="42.88172" lon="2.19053">
        <ele>238.335</ele>
        <time>2011-10-15T11:14:31Z</time>
      </trkpt>
      <trkpt lat="42.88176" lon="2.19054">
        <ele>238.472</ele>
        <time>2011-10-15T11:14:32Z</time>
      </trkpt>
      <trkpt lat="42.88211" lon="2.19053">
        <ele>238.848</ele>
        <time>2011-10-15T11:14:40Z</time>
      </trkpt>
      <trkpt lat="42.88253" lon="2.19044">
        <ele>238.081</ele>
        <time>2011-10-15T11:14:49Z</time>
      </trkpt>
      <trkpt lat="42.88283" lon="2.1903">
        <ele>237.141</ele>
        <time>2011-10-15T11:14:55Z</time>
      </trkpt>
      <trkpt lat="42.88326" lon="2.19027">
        <ele>236.898</ele>
        <time>2011-10-15T11:15:02Z</time>
      </trkpt>
      <trkpt lat="42.88365" lon="2.19029">
        <ele>236.54</ele>
        <time>2011-10-15T11:15:09Z</time>
      </trkpt>
      <trkpt lat="42.88406" lon="2.19038">
        <ele>236.446</ele>
        <time>2011-10-15T11:15:17Z</time>
      </trkpt>
      <trkpt lat="42.88438" lon="2.19061">
        <ele>236.156</ele>
        <time>2011-10-15T11:15:24Z</time>
      </trkpt>
      <trkpt lat="42.88443" lon="2.19065">
        <ele>236.338</ele>
        <time>2011-10-15T11:15:25Z</time>
      </trkpt>
      <trkpt lat="42.88456" lon="2.19088">
        <ele>236.523</ele>
        <time>2011-10-15T11:15:29Z</time>
      </trkpt>
      <trkpt lat="42.88457" lon="2.19095">
        <ele>236.534</ele>
        <time>2011-10-15T11:15:30Z</time>
      </trkpt>
      <trkpt lat="42.88465" lon="2.1915">
        <ele>235.48</ele>
        <time>2011-10-15T11:15:38Z</time>
      </trkpt>
      <trkpt lat="42.88477" lon="2.19209">
        <ele>235.636</ele>
        <time>2011-10-15T11:15:47Z</time>
      </trkpt>
      <trkpt lat="42.88491" lon="2.19263">
        <ele>235.735</ele>
        <time>2011-10-15T11:15:56Z</time>
      </trkpt>
      <trkpt lat="42.88497" lon="2.19284">
        <ele>236.381</ele>
        <time>2011-10-15T11:16:00Z</time>
      </trkpt>
      <trkpt lat="42.88505" lon="2.19323">
        <ele>236.981</ele>
        <time>2011-10-15T11:16:07Z</time>
      </trkpt>
      <trkpt lat="42.8852" lon="2.19381">
        <ele>238.03</ele>
        <time>2011-10-15T11:16:18Z</time>
      </trkpt>
      <trkpt lat="42.88535" lon="2.19424">
        <ele>239.598</ele>
        <time>2011-10-15T11:16:27Z</time>
      </trkpt>
      <trkpt lat="42.88548" lon="2.19467">
        <ele>241.229</ele>
        <time>2011-10-15T11:16:36Z</time>
      </trkpt>
      <trkpt lat="42.8855" lon="2.19471">
        <ele>241.469</ele>
        <time>2011-10-15T11:16:37Z</time>
      </trkpt>
      <trkpt lat="42.88567" lon="2.19485">
        <ele>241.973</ele>
        <time>2011-10-15T11:16:42Z</time>
      </trkpt>
      <trkpt lat="42.88586" lon="2.19489">
        <ele>242.934</ele>
        <time>2011-10-15T11:16:48Z</time>
      </trkpt>
      <trkpt lat="42.88603" lon="2.19495">
        <ele>244.108</ele>
        <time>2011-10-15T11:16:54Z</time>
      </trkpt>
      <trkpt lat="42.88628" lon="2.19504">
        <ele>246.333</ele>
        <time>2011-10-15T11:17:03Z</time>
      </trkpt>
      <trkpt lat="42.8865" lon="2.19506">
        <ele>247.931</ele>
        <time>2011-10-15T11:17:11Z</time>
      </trkpt>
      <trkpt lat="42.88675" lon="2.19505">
        <ele>249.921</ele>
        <time>2011-10-15T11:17:20Z</time>
      </trkpt>
      <trkpt lat="42.88692" lon="2.19495">
        <ele>251.234</ele>
        <time>2011-10-15T11:17:26Z</time>
      </trkpt>
      <trkpt lat="42.88714" lon="2.19487">
        <ele>253.127</ele>
        <time>2011-10-15T11:17:34Z</time>
      </trkpt>
      <trkpt lat="42.88733" lon="2.19486">
        <ele>255.729</ele>
        <time>2011-10-15T11:17:42Z</time>
      </trkpt>
      <trkpt lat="42.88746" lon="2.19493">
        <ele>257.732</ele>
        <time>2011-10-15T11:17:48Z</time>
      </trkpt>
      <trkpt lat="42.8876" lon="2.1952">
        <ele>258.211</ele>
        <time>2011-10-15T11:17:55Z</time>
      </trkpt>
      <trkpt lat="42.88771" lon="2.19547">
        <ele>257.585</ele>
        <time>2011-10-15T11:17:59Z</time>
      </trkpt>
      <trkpt lat="42.88774" lon="2.19555">
        <ele>257.291</ele>
        <time>2011-10-15T11:18:00Z</time>
      </trkpt>
      <trkpt lat="42.88786" lon="2.19623">
        <ele>254.864</ele>
        <time>2011-10-15T11:18:07Z</time>
      </trkpt>
      <trkpt lat="42.88791" lon="2.19674">
        <ele>254.469</ele>
        <time>2011-10-15T11:18:13Z</time>
      </trkpt>
      <trkpt lat="42.88797" lon="2.19716">
        <ele>254.951</ele>
        <time>2011-10-15T11:18:19Z</time>
      </trkpt>
      <trkpt lat="42.88809" lon="2.19784">
        <ele>253.943</ele>
        <time>2011-10-15T11:18:29Z</time>
      </trkpt>
      <trkpt lat="42.88813" lon="2.19837">
        <ele>253.573</ele>
        <time>2011-10-15T11:18:37Z</time>
      </trkpt>
      <trkpt lat="42.88816" lon="2.19902">
        <ele>253.504</ele>
        <time>2011-10-15T11:18:47Z</time>
      </trkpt>
      <trkpt lat="42.88823" lon="2.19957">
        <ele>253.05</ele>
        <time>2011-10-15T11:18:55Z</time>
      </trkpt>
      <trkpt lat="42.8883" lon="2.19996">
        <ele>252.144</ele>
        <time>2011-10-15T11:19:00Z</time>
      </trkpt>
      <trkpt lat="42.88832" lon="2.20004">
        <ele>251.967</ele>
        <time>2011-10-15T11:19:01Z</time>
      </trkpt>
      <trkpt lat="42.88826" lon="2.20035">
        <ele>250.636</ele>
        <time>2011-10-15T11:19:05Z</time>
      </trkpt>
      <trkpt lat="42.88808" lon="2.20087">
        <ele>249.305</ele>
        <time>2011-10-15T11:19:12Z</time>
      </trkpt>
      <trkpt lat="42.88797" lon="2.20158">
        <ele>247.654</ele>
        <time>2011-10-15T11:19:20Z</time>
      </trkpt>
      <trkpt lat="42.88786" lon="2.20205">
        <ele>246.166</ele>
        <time>2011-10-15T11:19:25Z</time>
      </trkpt>
      <trkpt lat="42.88767" lon="2.2024">
        <ele>244.462</ele>
        <time>2011-10-15T11:19:30Z</time>
      </trkpt>
      <trkpt lat="42.88754" lon="2.20256">
        <ele>243.546</ele>
        <time>2011-10-15T11:19:33Z</time>
      </trkpt>
      <trkpt lat="42.88745" lon="2.20282">
        <ele>242.813</ele>
        <time>2011-10-15T11:19:37Z</time>
      </trkpt>
      <trkpt lat="42.88751" lon="2.20296">
        <ele>242.895</ele>
        <time>2011-10-15T11:19:39Z</time>
      </trkpt>
      <trkpt lat="42.88785" lon="2.20354">
        <ele>241.611</ele>
        <time>2011-10-15T11:19:47Z</time>
      </trkpt>
      <trkpt lat="42.8879" lon="2.20385">
        <ele>241.044</ele>
        <time>2011-10-15T11:19:51Z</time>
      </trkpt>
      <trkpt lat="42.88774" lon="2.20435">
        <ele>241.958</ele>
        <time>2011-10-15T11:19:59Z</time>
      </trkpt>
      <trkpt lat="42.88751" lon="2.20462">
        <ele>243.641</ele>
        <time>2011-10-15T11:20:07Z</time>
      </trkpt>
      <trkpt lat="42.88734" lon="2.20487">
        <ele>245.301</ele>
        <time>2011-10-15T11:20:14Z</time>
      </trkpt>
      <trkpt lat="42.88728" lon="2.20516">
        <ele>247.089</ele>
        <time>2011-10-15T11:20:20Z</time>
      </trkpt>
      <trkpt lat="42.88731" lon="2.20544">
        <ele>248.305</ele>
        <time>2011-10-15T11:20:26Z</time>
      </trkpt>
      <trkpt lat="42.88744" lon="2.20578">
        <ele>249.726</ele>
        <time>2011-10-15T11:20:34Z</time>
      </trkpt>
      <trkpt lat="42.88759" lon="2.20616">
        <ele>251.782</ele>
        <time>2011-10-15T11:20:43Z</time>
      </trkpt>
      <trkpt lat="42.88766" lon="2.20653">
        <ele>253.426</ele>
        <time>2011-10-15T11:20:51Z</time>
      </trkpt>
      <trkpt lat="42.88771" lon="2.20695">
        <ele>255.414</ele>
        <time>2011-10-15T11:21:00Z</time>
      </trkpt>
      <trkpt lat="42.88779" lon="2.20733">
        <ele>257.401</ele>
        <time>2011-10-15T11:21:09Z</time>
      </trkpt>
      <trkpt lat="42.8879" lon="2.2077">
        <ele>260.181</ele>
        <time>2011-10-15T11:21:19Z</time>
      </trkpt>
      <trkpt lat="42.88802" lon="2.20807">
        <ele>262.95</ele>
        <time>2011-10-15T11:21:29Z</time>
      </trkpt>
      <trkpt lat="42.88805" lon="2.20836">
        <ele>264.728</ele>
        <time>2011-10-15T11:21:36Z</time>
      </trkpt>
      <trkpt lat="42.88807" lon="2.20878">
        <ele>267.44</ele>
        <time>2011-10-15T11:21:46Z</time>
      </trkpt>
      <trkpt lat="42.88802" lon="2.20921">
        <ele>270.824</ele>
        <time>2011-10-15T11:21:57Z</time>
      </trkpt>
      <trkpt lat="42.88794" lon="2.20969">
        <ele>273.879</ele>
        <time>2011-10-15T11:22:09Z</time>
      </trkpt>
      <trkpt lat="42.88787" lon="2.21021">
        <ele>277.332</ele>
        <time>2011-10-15T11:22:22Z</time>
      </trkpt>
      <trkpt lat="42.88782" lon="2.21065">
        <ele>280.55</ele>
        <time>2011-10-15T11:22:33Z</time>
      </trkpt>
      <trkpt lat="42.88778" lon="2.211">
        <ele>282.54</ele>
        <time>2011-10-15T11:22:40Z</time>
      </trkpt>
      <trkpt lat="42.88773" lon="2.21136">
        <ele>282.11</ele>
        <time>2011-10-15T11:22:45Z</time>
      </trkpt>
      <trkpt lat="42.88771" lon="2.21173">
        <ele>279.514</ele>
        <time>2011-10-15T11:22:49Z</time>
      </trkpt>
      <trkpt lat="42.88771" lon="2.21184">
        <ele>278.929</ele>
        <time>2011-10-15T11:22:50Z</time>
      </trkpt>
      <trkpt lat="42.88767" lon="2.21234">
        <ele>277.32</ele>
        <time>2011-10-15T11:22:55Z</time>
      </trkpt>
      <trkpt lat="42.88754" lon="2.21281">
        <ele>275.561</ele>
        <time>2011-10-15T11:23:00Z</time>
      </trkpt>
      <trkpt lat="42.88743" lon="2.21306">
        <ele>275.406</ele>
        <time>2011-10-15T11:23:03Z</time>
      </trkpt>
      <trkpt lat="42.88734" lon="2.21356">
        <ele>273.9</ele>
        <time>2011-10-15T11:23:08Z</time>
      </trkpt>
      <trkpt lat="42.88731" lon="2.2144">
        <ele>268.984</ele>
        <time>2011-10-15T11:23:15Z</time>
      </trkpt>
      <trkpt lat="42.88726" lon="2.21498">
        <ele>266.516</ele>
        <time>2011-10-15T11:23:20Z</time>
      </trkpt>
      <trkpt lat="42.8872" lon="2.21555">
        <ele>266.498</ele>
        <time>2011-10-15T11:23:26Z</time>
      </trkpt>
      <trkpt lat="42.88715" lon="2.21605">
        <ele>267.171</ele>
        <time>2011-10-15T11:23:33Z</time>
      </trkpt>
      <trkpt lat="42.88709" lon="2.21672">
        <ele>268.403</ele>
        <time>2011-10-15T11:23:43Z</time>
      </trkpt>
      <trkpt lat="42.88706" lon="2.2171">
        <ele>268.159</ele>
        <time>2011-10-15T11:23:49Z</time>
      </trkpt>
      <trkpt lat="42.88707" lon="2.21733">
        <ele>270.062</ele>
        <time>2011-10-15T11:23:54Z</time>
      </trkpt>
      <trkpt lat="42.8871" lon="2.21766">
        <ele>274.933</ele>
        <time>2011-10-15T11:24:03Z</time>
      </trkpt>
      <trkpt lat="42.88714" lon="2.21799">
        <ele>277.221</ele>
        <time>2011-10-15T11:24:11Z</time>
      </trkpt>
      <trkpt lat="42.88719" lon="2.21838">
        <ele>278.801</ele>
        <time>2011-10-15T11:24:20Z</time>
      </trkpt>
      <trkpt lat="42.88717" lon="2.21865">
        <ele>280.275</ele>
        <time>2011-10-15T11:24:26Z</time>
      </trkpt>
      <trkpt lat="42.88711" lon="2.21908">
        <ele>281.318</ele>
        <time>2011-10-15T11:24:35Z</time>
      </trkpt>
      <trkpt lat="42.88705" lon="2.21958">
        <ele>282.412</ele>
        <time>2011-10-15T11:24:45Z</time>
      </trkpt>
      <trkpt lat="42.88698" lon="2.22017">
        <ele>284.103</ele>
        <time>2011-10-15T11:24:56Z</time>
      </trkpt>
      <trkpt lat="42.88693" lon="2.22061">
        <ele>284.353</ele>
        <time>2011-10-15T11:25:03Z</time>
      </trkpt>
      <trkpt lat="42.88691" lon="2.22076">
        <ele>283.518</ele>
        <time>2011-10-15T11:25:05Z</time>
      </trkpt>
      <trkpt lat="42.8868" lon="2.22108">
        <ele>281.284</ele>
        <time>2011-10-15T11:25:09Z</time>
      </trkpt>
      <trkpt lat="42.88673" lon="2.22155">
        <ele>278.034</ele>
        <time>2011-10-15T11:25:14Z</time>
      </trkpt>
      <trkpt lat="42.88672" lon="2.22171">
        <ele>277.727</ele>
        <time>2011-10-15T11:25:16Z</time>
      </trkpt>
      <trkpt lat="42.88665" lon="2.22213">
        <ele>278.304</ele>
        <time>2011-10-15T11:25:22Z</time>
      </trkpt>
      <trkpt lat="42.88655" lon="2.22256">
        <ele>279.797</ele>
        <time>2011-10-15T11:25:29Z</time>
      </trkpt>
      <trkpt lat="42.88652" lon="2.22287">
        <ele>279.657</ele>
        <time>2011-10-15T11:25:33Z</time>
      </trkpt>
      <trkpt lat="42.88645" lon="2.22325">
        <ele>277.528</ele>
        <time>2011-10-15T11:25:37Z</time>
      </trkpt>
      <trkpt lat="42.88644" lon="2.22348">
        <ele>277.766</ele>
        <time>2011-10-15T11:25:42Z</time>
      </trkpt>
      <trkpt lat="42.88645" lon="2.22352">
        <ele>278.23</ele>
        <time>2011-10-15T11:25:43Z</time>
      </trkpt>
      <trkpt lat="42.88647" lon="2.22377">
        <ele>280.432</ele>
        <time>2011-10-15T11:25:49Z</time>
      </trkpt>
      <trkpt lat="42.88642" lon="2.22408">
        <ele>282.718</ele>
        <time>2011-10-15T11:25:56Z</time>
      </trkpt>
      <trkpt lat="42.88636" lon="2.22439">
        <ele>284.033</ele>
        <time>2011-10-15T11:26:03Z</time>
      </trkpt>
      <trkpt lat="42.88631" lon="2.22467">
        <ele>284.998</ele>
        <time>2011-10-15T11:26:09Z</time>
      </trkpt>
      <trkpt lat="42.88621" lon="2.22493">
        <ele>285.666</ele>
        <time>2011-10-15T11:26:14Z</time>
      </trkpt>
      <trkpt lat="42.88617" lon="2.22504">
        <ele>286.031</ele>
        <time>2011-10-15T11:26:16Z</time>
      </trkpt>
      <trkpt lat="42.88596" lon="2.22561">
        <ele>287.141</ele>
        <time>2011-10-15T11:26:26Z</time>
      </trkpt>
      <trkpt lat="42.88582" lon="2.22616">
        <ele>287.873</ele>
        <time>2011-10-15T11:26:36Z</time>
      </trkpt>
      <trkpt lat="42.88573" lon="2.22645">
        <ele>288.189</ele>
        <time>2011-10-15T11:26:41Z</time>
      </trkpt>
      <trkpt lat="42.88563" lon="2.22687">
        <ele>288.313</ele>
        <time>2011-10-15T11:26:48Z</time>
      </trkpt>
      <trkpt lat="42.88556" lon="2.22715">
        <ele>289.693</ele>
        <time>2011-10-15T11:26:54Z</time>
      </trkpt>
      <trkpt lat="42.88552" lon="2.22736">
        <ele>292.105</ele>
        <time>2011-10-15T11:27:00Z</time>
      </trkpt>
      <trkpt lat="42.88549" lon="2.22757">
        <ele>293.624</ele>
        <time>2011-10-15T11:27:06Z</time>
      </trkpt>
      <trkpt lat="42.88545" lon="2.22783">
        <ele>296.047</ele>
        <time>2011-10-15T11:27:14Z</time>
      </trkpt>
      <trkpt lat="42.88537" lon="2.2281">
        <ele>296.487</ele>
        <time>2011-10-15T11:27:19Z</time>
      </trkpt>
      <trkpt lat="42.88535" lon="2.22815">
        <ele>296.588</ele>
        <time>2011-10-15T11:27:20Z</time>
      </trkpt>
      <trkpt lat="42.88524" lon="2.22831">
        <ele>296.895</ele>
        <time>2011-10-15T11:27:24Z</time>
      </trkpt>
      <trkpt lat="42.88507" lon="2.22844">
        <ele>298.49</ele>
        <time>2011-10-15T11:27:30Z</time>
      </trkpt>
      <trkpt lat="42.88504" lon="2.22858">
        <ele>301.184</ele>
        <time>2011-10-15T11:27:35Z</time>
      </trkpt>
      <trkpt lat="42.88504" lon="2.22876">
        <ele>304.25</ele>
        <time>2011-10-15T11:27:42Z</time>
      </trkpt>
      <trkpt lat="42.88499" lon="2.2289">
        <ele>306.614</ele>
        <time>2011-10-15T11:27:48Z</time>
      </trkpt>
      <trkpt lat="42.88486" lon="2.22907">
        <ele>309.564</ele>
        <time>2011-10-15T11:27:56Z</time>
      </trkpt>
      <trkpt lat="42.88476" lon="2.22919">
        <ele>312.492</ele>
        <time>2011-10-15T11:28:03Z</time>
      </trkpt>
      <trkpt lat="42.88467" lon="2.22926">
        <ele>315.133</ele>
        <time>2011-10-15T11:28:10Z</time>
      </trkpt>
      <trkpt lat="42.88465" lon="2.22927">
        <ele>315.524</ele>
        <time>2011-10-15T11:28:11Z</time>
      </trkpt>
      <trkpt lat="42.88469" lon="2.22932">
        <ele>317.052</ele>
        <time>2011-10-15T11:28:16Z</time>
      </trkpt>
      <trkpt lat="42.88481" lon="2.22932">
        <ele>318.755</ele>
        <time>2011-10-15T11:28:22Z</time>
      </trkpt>
      <trkpt lat="42.88493" lon="2.22932">
        <ele>320.568</ele>
        <time>2011-10-15T11:28:28Z</time>
      </trkpt>
      <trkpt lat="42.88513" lon="2.22933">
        <ele>322.65</ele>
        <time>2011-10-15T11:28:38Z</time>
      </trkpt>
      <trkpt lat="42.88535" lon="2.22937">
        <ele>325.2</ele>
        <time>2011-10-15T11:28:49Z</time>
      </trkpt>
      <trkpt lat="42.88549" lon="2.22932">
        <ele>327.013</ele>
        <time>2011-10-15T11:28:56Z</time>
      </trkpt>
      <trkpt lat="42.88569" lon="2.22918">
        <ele>328.392</ele>
        <time>2011-10-15T11:29:04Z</time>
      </trkpt>
      <trkpt lat="42.88586" lon="2.229">
        <ele>329.176</ele>
        <time>2011-10-15T11:29:11Z</time>
      </trkpt>
      <trkpt lat="42.88596" lon="2.22894">
        <ele>329.638</ele>
        <time>2011-10-15T11:29:14Z</time>
      </trkpt>
      <trkpt lat="42.88605" lon="2.22891">
        <ele>329.634</ele>
        <time>2011-10-15T11:29:16Z</time>
      </trkpt>
      <trkpt lat="42.88625" lon="2.22883">
        <ele>328.809</ele>
        <time>2011-10-15T11:29:21Z</time>
      </trkpt>
      <trkpt lat="42.88624" lon="2.22872">
        <ele>328.737</ele>
        <time>2011-10-15T11:29:23Z</time>
      </trkpt>
      <trkpt lat="42.88623" lon="2.2285">
        <ele>329.415</ele>
        <time>2011-10-15T11:29:27Z</time>
      </trkpt>
      <trkpt lat="42.88627" lon="2.22826">
        <ele>331.836</ele>
        <time>2011-10-15T11:29:34Z</time>
      </trkpt>
      <trkpt lat="42.88636" lon="2.22801">
        <ele>334.406</ele>
        <time>2011-10-15T11:29:42Z</time>
      </trkpt>
      <trkpt lat="42.88643" lon="2.22783">
        <ele>336.362</ele>
        <time>2011-10-15T11:29:48Z</time>
      </trkpt>
      <trkpt lat="42.88654" lon="2.22767">
        <ele>339.095</ele>
        <time>2011-10-15T11:29:55Z</time>
      </trkpt>
      <trkpt lat="42.88671" lon="2.22753">
        <ele>340.599</ele>
        <time>2011-10-15T11:30:03Z</time>
      </trkpt>
      <trkpt lat="42.88688" lon="2.22742">
        <ele>343.267</ele>
        <time>2011-10-15T11:30:11Z</time>
      </trkpt>
      <trkpt lat="42.88704" lon="2.22731">
        <ele>344.628</ele>
        <time>2011-10-15T11:30:18Z</time>
      </trkpt>
      <trkpt lat="42.88726" lon="2.22722">
        <ele>346.929</ele>
        <time>2011-10-15T11:30:27Z</time>
      </trkpt>
      <trkpt lat="42.88744" lon="2.22719">
        <ele>347.927</ele>
        <time>2011-10-15T11:30:34Z</time>
      </trkpt>
      <trkpt lat="42.88764" lon="2.22718">
        <ele>348.387</ele>
        <time>2011-10-15T11:30:41Z</time>
      </trkpt>
      <trkpt lat="42.88781" lon="2.22719">
        <ele>349.849</ele>
        <time>2011-10-15T11:30:48Z</time>
      </trkpt>
      <trkpt lat="42.88789" lon="2.22702">
        <ele>351.012</ele>
        <time>2011-10-15T11:30:54Z</time>
      </trkpt>
      <trkpt lat="42.88798" lon="2.22673">
        <ele>353.865</ele>
        <time>2011-10-15T11:31:03Z</time>
      </trkpt>
      <trkpt lat="42.88809" lon="2.22652">
        <ele>355.885</ele>
        <time>2011-10-15T11:31:11Z</time>
      </trkpt>
      <trkpt lat="42.88821" lon="2.22637">
        <ele>357.559</ele>
        <time>2011-10-15T11:31:18Z</time>
      </trkpt>
      <trkpt lat="42.88826" lon="2.22632">
        <ele>359.231</ele>
        <time>2011-10-15T11:31:21Z</time>
      </trkpt>
      <trkpt lat="42.8884" lon="2.22625">
        <ele>360.656</ele>
        <time>2011-10-15T11:31:27Z</time>
      </trkpt>
      <trkpt lat="42.88859" lon="2.22616">
        <ele>362.201</ele>
        <time>2011-10-15T11:31:35Z</time>
      </trkpt>
      <trkpt lat="42.88873" lon="2.22609">
        <ele>363.874</ele>
        <time>2011-10-15T11:31:41Z</time>
      </trkpt>
      <trkpt lat="42.88889" lon="2.2261">
        <ele>365.354</ele>
        <time>2011-10-15T11:31:47Z</time>
      </trkpt>
      <trkpt lat="42.88914" lon="2.2262">
        <ele>367.726</ele>
        <time>2011-10-15T11:31:56Z</time>
      </trkpt>
      <trkpt lat="42.88933" lon="2.22635">
        <ele>368.157</ele>
        <time>2011-10-15T11:32:02Z</time>
      </trkpt>
      <trkpt lat="42.88949" lon="2.22641">
        <ele>369.241</ele>
        <time>2011-10-15T11:32:07Z</time>
      </trkpt>
      <trkpt lat="42.88979" lon="2.22635">
        <ele>371.445</ele>
        <time>2011-10-15T11:32:17Z</time>
      </trkpt>
      <trkpt lat="42.89011" lon="2.22635">
        <ele>373.617</ele>
        <time>2011-10-15T11:32:28Z</time>
      </trkpt>
      <trkpt lat="42.89027" lon="2.22634">
        <ele>375.794</ele>
        <time>2011-10-15T11:32:35Z</time>
      </trkpt>
      <trkpt lat="42.8904" lon="2.22631">
        <ele>377.549</ele>
        <time>2011-10-15T11:32:41Z</time>
      </trkpt>
      <trkpt lat="42.8906" lon="2.22631">
        <ele>379.668</ele>
        <time>2011-10-15T11:32:49Z</time>
      </trkpt>
      <trkpt lat="42.89075" lon="2.22637">
        <ele>382.484</ele>
        <time>2011-10-15T11:32:56Z</time>
      </trkpt>
      <trkpt lat="42.89095" lon="2.22635">
        <ele>385.481</ele>
        <time>2011-10-15T11:33:05Z</time>
      </trkpt>
      <trkpt lat="42.8911" lon="2.22622">
        <ele>386.75</ele>
        <time>2011-10-15T11:33:11Z</time>
      </trkpt>
      <trkpt lat="42.8913" lon="2.22592">
        <ele>387.126</ele>
        <time>2011-10-15T11:33:19Z</time>
      </trkpt>
      <trkpt lat="42.89149" lon="2.2256">
        <ele>387.824</ele>
        <time>2011-10-15T11:33:27Z</time>
      </trkpt>
      <trkpt lat="42.89155" lon="2.22549">
        <ele>387.954</ele>
        <time>2011-10-15T11:33:30Z</time>
      </trkpt>
      <trkpt lat="42.89158" lon="2.22555">
        <ele>388.454</ele>
        <time>2011-10-15T11:33:34Z</time>
      </trkpt>
      <trkpt lat="42.89156" lon="2.22559">
        <ele>388.454</ele>
        <time>2011-10-15T11:33:35Z</time>
      </trkpt>
      <trkpt lat="42.8915" lon="2.22586">
        <ele>390.598</ele>
        <time>2011-10-15T11:33:42Z</time>
      </trkpt>
      <trkpt lat="42.89143" lon="2.22622">
        <ele>392.089</ele>
        <time>2011-10-15T11:33:51Z</time>
      </trkpt>
      <trkpt lat="42.89137" lon="2.22653">
        <ele>393.364</ele>
        <time>2011-10-15T11:33:59Z</time>
      </trkpt>
      <trkpt lat="42.89127" lon="2.22687">
        <ele>395.862</ele>
        <time>2011-10-15T11:34:08Z</time>
      </trkpt>
      <trkpt lat="42.89121" lon="2.22724">
        <ele>399.995</ele>
        <time>2011-10-15T11:34:18Z</time>
      </trkpt>
      <trkpt lat="42.89119" lon="2.22759">
        <ele>403.417</ele>
        <time>2011-10-15T11:34:27Z</time>
      </trkpt>
      <trkpt lat="42.89122" lon="2.22786">
        <ele>406.088</ele>
        <time>2011-10-15T11:34:34Z</time>
      </trkpt>
      <trkpt lat="42.89123" lon="2.2282">
        <ele>407.339</ele>
        <time>2011-10-15T11:34:42Z</time>
      </trkpt>
      <trkpt lat="42.89122" lon="2.22841">
        <ele>407.674</ele>
        <time>2011-10-15T11:34:47Z</time>
      </trkpt>
      <trkpt lat="42.89122" lon="2.22845">
        <ele>407.901</ele>
        <time>2011-10-15T11:34:48Z</time>
      </trkpt>
      <trkpt lat="42.89116" lon="2.22865">
        <ele>409.341</ele>
        <time>2011-10-15T11:34:54Z</time>
      </trkpt>
      <trkpt lat="42.89111" lon="2.22884">
        <ele>411.417</ele>
        <time>2011-10-15T11:35:00Z</time>
      </trkpt>
      <trkpt lat="42.89106" lon="2.22915">
        <ele>414.092</ele>
        <time>2011-10-15T11:35:08Z</time>
      </trkpt>
      <trkpt lat="42.89102" lon="2.22936">
        <ele>416.324</ele>
        <time>2011-10-15T11:35:14Z</time>
      </trkpt>
      <trkpt lat="42.89097" lon="2.2296">
        <ele>418.089</ele>
        <time>2011-10-15T11:35:21Z</time>
      </trkpt>
      <trkpt lat="42.89097" lon="2.22981">
        <ele>419.46</ele>
        <time>2011-10-15T11:35:27Z</time>
      </trkpt>
      <trkpt lat="42.89096" lon="2.23009">
        <ele>419.899</ele>
        <time>2011-10-15T11:35:33Z</time>
      </trkpt>
      <trkpt lat="42.89095" lon="2.23031">
        <ele>420.666</ele>
        <time>2011-10-15T11:35:38Z</time>
      </trkpt>
      <trkpt lat="42.89095" lon="2.23053">
        <ele>421.567</ele>
        <time>2011-10-15T11:35:44Z</time>
      </trkpt>
      <trkpt lat="42.89095" lon="2.23073">
        <ele>422.411</ele>
        <time>2011-10-15T11:35:48Z</time>
      </trkpt>
      <trkpt lat="42.89092" lon="2.23097">
        <ele>422.454</ele>
        <time>2011-10-15T11:35:53Z</time>
      </trkpt>
      <trkpt lat="42.89093" lon="2.23123">
        <ele>423.094</ele>
        <time>2011-10-15T11:35:58Z</time>
      </trkpt>
      <trkpt lat="42.89094" lon="2.23164">
        <ele>423.723</ele>
        <time>2011-10-15T11:36:05Z</time>
      </trkpt>
      <trkpt lat="42.89094" lon="2.23204">
        <ele>423.978</ele>
        <time>2011-10-15T11:36:11Z</time>
      </trkpt>
      <trkpt lat="42.8909" lon="2.23225">
        <ele>425.183</ele>
        <time>2011-10-15T11:36:15Z</time>
      </trkpt>
      <trkpt lat="42.89089" lon="2.23237">
        <ele>425.511</ele>
        <time>2011-10-15T11:36:17Z</time>
      </trkpt>
      <trkpt lat="42.89088" lon="2.23269">
        <ele>425.157</ele>
        <time>2011-10-15T11:36:21Z</time>
      </trkpt>
      <trkpt lat="42.89093" lon="2.2331">
        <ele>424.55</ele>
        <time>2011-10-15T11:36:26Z</time>
      </trkpt>
      <trkpt lat="42.89095" lon="2.23333">
        <ele>424.118</ele>
        <time>2011-10-15T11:36:29Z</time>
      </trkpt>
      <trkpt lat="42.89104" lon="2.2339">
        <ele>423.977</ele>
        <time>2011-10-15T11:36:36Z</time>
      </trkpt>
      <trkpt lat="42.89106" lon="2.23398">
        <ele>423.969</ele>
        <time>2011-10-15T11:36:37Z</time>
      </trkpt>
      <trkpt lat="42.89107" lon="2.23449">
        <ele>423.462</ele>
        <time>2011-10-15T11:36:43Z</time>
      </trkpt>
      <trkpt lat="42.89107" lon="2.23459">
        <ele>423.255</ele>
        <time>2011-10-15T11:36:44Z</time>
      </trkpt>
      <trkpt lat="42.89095" lon="2.23489">
        <ele>421.781</ele>
        <time>2011-10-15T11:36:48Z</time>
      </trkpt>
      <trkpt lat="42.89089" lon="2.23517">
        <ele>421.361</ele>
        <time>2011-10-15T11:36:52Z</time>
      </trkpt>
      <trkpt lat="42.89089" lon="2.23531">
        <ele>421.899</ele>
        <time>2011-10-15T11:36:54Z</time>
      </trkpt>
      <trkpt lat="42.8909" lon="2.23546">
        <ele>422.126</ele>
        <time>2011-10-15T11:36:56Z</time>
      </trkpt>
      <trkpt lat="42.89089" lon="2.23587">
        <ele>422.679</ele>
        <time>2011-10-15T11:37:02Z</time>
      </trkpt>
      <trkpt lat="42.89091" lon="2.23618">
        <ele>424.362</ele>
        <time>2011-10-15T11:37:08Z</time>
      </trkpt>
      <trkpt lat="42.89092" lon="2.23644">
        <ele>426.089</ele>
        <time>2011-10-15T11:37:14Z</time>
      </trkpt>
      <trkpt lat="42.89091" lon="2.23665">
        <ele>427.596</ele>
        <time>2011-10-15T11:37:19Z</time>
      </trkpt>
      <trkpt lat="42.89086" lon="2.23685">
        <ele>429.467</ele>
        <time>2011-10-15T11:37:25Z</time>
      </trkpt>
      <trkpt lat="42.89074" lon="2.23705">
        <ele>430.5</ele>
        <time>2011-10-15T11:37:31Z</time>
      </trkpt>
      <trkpt lat="42.89071" lon="2.23721">
        <ele>431.222</ele>
        <time>2011-10-15T11:37:35Z</time>
      </trkpt>
      <trkpt lat="42.89066" lon="2.23753">
        <ele>432.05</ele>
        <time>2011-10-15T11:37:41Z</time>
      </trkpt>
      <trkpt lat="42.89064" lon="2.23779">
        <ele>432.931</ele>
        <time>2011-10-15T11:37:45Z</time>
      </trkpt>
      <trkpt lat="42.89063" lon="2.23817">
        <ele>433.116</ele>
        <time>2011-10-15T11:37:51Z</time>
      </trkpt>
      <trkpt lat="42.89058" lon="2.23843">
        <ele>433.783</ele>
        <time>2011-10-15T11:37:56Z</time>
      </trkpt>
      <trkpt lat="42.89051" lon="2.23862">
        <ele>434.395</ele>
        <time>2011-10-15T11:38:00Z</time>
      </trkpt>
      <trkpt lat="42.89044" lon="2.23883">
        <ele>435.82</ele>
        <time>2011-10-15T11:38:05Z</time>
      </trkpt>
      <trkpt lat="42.89042" lon="2.23915">
        <ele>437.41</ele>
        <time>2011-10-15T11:38:12Z</time>
      </trkpt>
      <trkpt lat="42.89044" lon="2.23938">
        <ele>438.172</ele>
        <time>2011-10-15T11:38:17Z</time>
      </trkpt>
      <trkpt lat="42.89042" lon="2.23956">
        <ele>439.769</ele>
        <time>2011-10-15T11:38:22Z</time>
      </trkpt>
      <trkpt lat="42.8904" lon="2.23977">
        <ele>441.72</ele>
        <time>2011-10-15T11:38:28Z</time>
      </trkpt>
      <trkpt lat="42.89038" lon="2.23999">
        <ele>443.507</ele>
        <time>2011-10-15T11:38:34Z</time>
      </trkpt>
      <trkpt lat="42.89036" lon="2.24009">
        <ele>444.203</ele>
        <time>2011-10-15T11:38:37Z</time>
      </trkpt>
      <trkpt lat="42.89042" lon="2.24011">
        <ele>444.555</ele>
        <time>2011-10-15T11:38:41Z</time>
      </trkpt>
      <trkpt lat="42.89048" lon="2.24005">
        <ele>443.853</ele>
        <time>2011-10-15T11:38:43Z</time>
      </trkpt>
      <trkpt lat="42.89057" lon="2.23997">
        <ele>441.019</ele>
        <time>2011-10-15T11:38:46Z</time>
      </trkpt>
      <trkpt lat="42.8907" lon="2.23985">
        <ele>434.938</ele>
        <time>2011-10-15T11:38:52Z</time>
      </trkpt>
      <trkpt lat="42.89081" lon="2.23976">
        <ele>429.968</ele>
        <time>2011-10-15T11:38:56Z</time>
      </trkpt>
      <trkpt lat="42.89083" lon="2.23974">
        <ele>428.727</ele>
        <time>2011-10-15T11:38:57Z</time>
      </trkpt>
      <trkpt lat="42.89089" lon="2.2396">
        <ele>424.388</ele>
        <time>2011-10-15T11:39:02Z</time>
      </trkpt>
      <trkpt lat="42.8909" lon="2.23957">
        <ele>423.928</ele>
        <time>2011-10-15T11:39:03Z</time>
      </trkpt>
      <trkpt lat="42.89099" lon="2.23962">
        <ele>422.179</ele>
        <time>2011-10-15T11:39:07Z</time>
      </trkpt>
      <trkpt lat="42.89108" lon="2.23976">
        <ele>418.86</ele>
        <time>2011-10-15T11:39:10Z</time>
      </trkpt>
      <trkpt lat="42.89125" lon="2.23993">
        <ele>412.404</ele>
        <time>2011-10-15T11:39:16Z</time>
      </trkpt>
      <trkpt lat="42.89145" lon="2.24004">
        <ele>407.223</ele>
        <time>2011-10-15T11:39:22Z</time>
      </trkpt>
      <trkpt lat="42.89158" lon="2.23996">
        <ele>404.034</ele>
        <time>2011-10-15T11:39:25Z</time>
      </trkpt>
      <trkpt lat="42.89168" lon="2.24009">
        <ele>400.476</ele>
        <time>2011-10-15T11:39:28Z</time>
      </trkpt>
      <trkpt lat="42.89173" lon="2.24013">
        <ele>400.472</ele>
        <time>2011-10-15T11:39:29Z</time>
      </trkpt>
      <trkpt lat="42.89189" lon="2.24032">
        <ele>395.255</ele>
        <time>2011-10-15T11:39:33Z</time>
      </trkpt>
      <trkpt lat="42.89194" lon="2.24057">
        <ele>391.779</ele>
        <time>2011-10-15T11:39:36Z</time>
      </trkpt>
      <trkpt lat="42.89195" lon="2.24075">
        <ele>389.821</ele>
        <time>2011-10-15T11:39:38Z</time>
      </trkpt>
      <trkpt lat="42.8919" lon="2.2412">
        <ele>383.089</ele>
        <time>2011-10-15T11:39:43Z</time>
      </trkpt>
      <trkpt lat="42.89186" lon="2.24147">
        <ele>378.214</ele>
        <time>2011-10-15T11:39:46Z</time>
      </trkpt>
      <trkpt lat="42.89187" lon="2.2419">
        <ele>371.733</ele>
        <time>2011-10-15T11:39:50Z</time>
      </trkpt>
      <trkpt lat="42.89188" lon="2.24214">
        <ele>366.707</ele>
        <time>2011-10-15T11:39:53Z</time>
      </trkpt>
      <trkpt lat="42.89186" lon="2.24228">
        <ele>365.76</ele>
        <time>2011-10-15T11:39:55Z</time>
      </trkpt>
      <trkpt lat="42.89184" lon="2.24243">
        <ele>364.655</ele>
        <time>2011-10-15T11:39:57Z</time>
      </trkpt>
      <trkpt lat="42.8918" lon="2.24286">
        <ele>363.472</ele>
        <time>2011-10-15T11:40:02Z</time>
      </trkpt>
      <trkpt lat="42.89182" lon="2.24304">
        <ele>363.457</ele>
        <time>2011-10-15T11:40:04Z</time>
      </trkpt>
      <trkpt lat="42.89181" lon="2.2435">
        <ele>362.071</ele>
        <time>2011-10-15T11:40:09Z</time>
      </trkpt>
      <trkpt lat="42.89181" lon="2.24382">
        <ele>360.777</ele>
        <time>2011-10-15T11:40:12Z</time>
      </trkpt>
      <trkpt lat="42.89185" lon="2.24404">
        <ele>359.942</ele>
        <time>2011-10-15T11:40:14Z</time>
      </trkpt>
      <trkpt lat="42.89192" lon="2.24454">
        <ele>360.175</ele>
        <time>2011-10-15T11:40:19Z</time>
      </trkpt>
      <trkpt lat="42.8921" lon="2.2447">
        <ele>361.78</ele>
        <time>2011-10-15T11:40:23Z</time>
      </trkpt>
      <trkpt lat="42.8922" lon="2.24476">
        <ele>362.451</ele>
        <time>2011-10-15T11:40:25Z</time>
      </trkpt>
      <trkpt lat="42.89248" lon="2.24492">
        <ele>363.756</ele>
        <time>2011-10-15T11:40:31Z</time>
      </trkpt>
      <trkpt lat="42.89267" lon="2.24505">
        <ele>364.509</ele>
        <time>2011-10-15T11:40:35Z</time>
      </trkpt>
      <trkpt lat="42.89282" lon="2.24531">
        <ele>364.91</ele>
        <time>2011-10-15T11:40:40Z</time>
      </trkpt>
      <trkpt lat="42.89282" lon="2.24537">
        <ele>364.984</ele>
        <time>2011-10-15T11:40:41Z</time>
      </trkpt>
      <trkpt lat="42.89276" lon="2.24568">
        <ele>365.646</ele>
        <time>2011-10-15T11:40:46Z</time>
      </trkpt>
      <trkpt lat="42.89282" lon="2.24592">
        <ele>367.209</ele>
        <time>2011-10-15T11:40:51Z</time>
      </trkpt>
      <trkpt lat="42.89286" lon="2.24595">
        <ele>367.412</ele>
        <time>2011-10-15T11:40:52Z</time>
      </trkpt>
      <trkpt lat="42.89309" lon="2.2461">
        <ele>367.936</ele>
        <time>2011-10-15T11:40:57Z</time>
      </trkpt>
      <trkpt lat="42.89332" lon="2.24641">
        <ele>367.203</ele>
        <time>2011-10-15T11:41:02Z</time>
      </trkpt>
      <trkpt lat="42.89339" lon="2.24678">
        <ele>366.176</ele>
        <time>2011-10-15T11:41:06Z</time>
      </trkpt>
      <trkpt lat="42.89343" lon="2.24719">
        <ele>364.601</ele>
        <time>2011-10-15T11:41:10Z</time>
      </trkpt>
      <trkpt lat="42.8935" lon="2.24741">
        <ele>363.795</ele>
        <time>2011-10-15T11:41:12Z</time>
      </trkpt>
      <trkpt lat="42.89374" lon="2.24801">
        <ele>358.792</ele>
        <time>2011-10-15T11:41:17Z</time>
      </trkpt>
      <trkpt lat="42.89382" lon="2.24824">
        <ele>357.223</ele>
        <time>2011-10-15T11:41:19Z</time>
      </trkpt>
      <trkpt lat="42.89397" lon="2.24843">
        <ele>355.133</ele>
        <time>2011-10-15T11:41:22Z</time>
      </trkpt>
      <trkpt lat="42.89409" lon="2.24835">
        <ele>353.791</ele>
        <time>2011-10-15T11:41:24Z</time>
      </trkpt>
      <trkpt lat="42.89415" lon="2.24829">
        <ele>353.043</ele>
        <time>2011-10-15T11:41:25Z</time>
      </trkpt>
      <trkpt lat="42.89459" lon="2.24783">
        <ele>349.011</ele>
        <time>2011-10-15T11:41:31Z</time>
      </trkpt>
      <trkpt lat="42.89466" lon="2.24774">
        <ele>348.383</ele>
        <time>2011-10-15T11:41:32Z</time>
      </trkpt>
      <trkpt lat="42.8949" lon="2.24753">
        <ele>346.476</ele>
        <time>2011-10-15T11:41:35Z</time>
      </trkpt>
      <trkpt lat="42.89516" lon="2.2475">
        <ele>344.408</ele>
        <time>2011-10-15T11:41:39Z</time>
      </trkpt>
      <trkpt lat="42.89558" lon="2.2476">
        <ele>341.662</ele>
        <time>2011-10-15T11:41:44Z</time>
      </trkpt>
      <trkpt lat="42.89583" lon="2.2476">
        <ele>340.725</ele>
        <time>2011-10-15T11:41:47Z</time>
      </trkpt>
      <trkpt lat="42.89613" lon="2.24768">
        <ele>339.511</ele>
        <time>2011-10-15T11:41:51Z</time>
      </trkpt>
      <trkpt lat="42.89627" lon="2.24778">
        <ele>339.226</ele>
        <time>2011-10-15T11:41:53Z</time>
      </trkpt>
      <trkpt lat="42.89663" lon="2.24798">
        <ele>338.575</ele>
        <time>2011-10-15T11:41:59Z</time>
      </trkpt>
      <trkpt lat="42.89679" lon="2.24823">
        <ele>337.762</ele>
        <time>2011-10-15T11:42:03Z</time>
      </trkpt>
      <trkpt lat="42.89677" lon="2.24869">
        <ele>337.659</ele>
        <time>2011-10-15T11:42:09Z</time>
      </trkpt>
      <trkpt lat="42.89691" lon="2.24885">
        <ele>337.971</ele>
        <time>2011-10-15T11:42:13Z</time>
      </trkpt>
      <trkpt lat="42.89697" lon="2.24887">
        <ele>338.116</ele>
        <time>2011-10-15T11:42:14Z</time>
      </trkpt>
      <trkpt lat="42.89716" lon="2.24892">
        <ele>338.417</ele>
        <time>2011-10-15T11:42:17Z</time>
      </trkpt>
      <trkpt lat="42.89748" lon="2.24901">
        <ele>339.089</ele>
        <time>2011-10-15T11:42:23Z</time>
      </trkpt>
      <trkpt lat="42.89782" lon="2.24919">
        <ele>338.448</ele>
        <time>2011-10-15T11:42:29Z</time>
      </trkpt>
      <trkpt lat="42.89826" lon="2.24948">
        <ele>338.748</ele>
        <time>2011-10-15T11:42:37Z</time>
      </trkpt>
      <trkpt lat="42.89845" lon="2.24951">
        <ele>339.04</ele>
        <time>2011-10-15T11:42:41Z</time>
      </trkpt>
      <trkpt lat="42.8986" lon="2.24953">
        <ele>338.882</ele>
        <time>2011-10-15T11:42:44Z</time>
      </trkpt>
      <trkpt lat="42.89888" lon="2.24952">
        <ele>337.308</ele>
        <time>2011-10-15T11:42:50Z</time>
      </trkpt>
      <trkpt lat="42.89926" lon="2.24942">
        <ele>336.236</ele>
        <time>2011-10-15T11:42:57Z</time>
      </trkpt>
      <trkpt lat="42.8994" lon="2.2494">
        <ele>336.579</ele>
        <time>2011-10-15T11:43:00Z</time>
      </trkpt>
      <trkpt lat="42.89964" lon="2.24944">
        <ele>335.887</ele>
        <time>2011-10-15T11:43:04Z</time>
      </trkpt>
      <trkpt lat="42.89977" lon="2.24949">
        <ele>334.881</ele>
        <time>2011-10-15T11:43:06Z</time>
      </trkpt>
      <trkpt lat="42.89996" lon="2.24946">
        <ele>332.537</ele>
        <time>2011-10-15T11:43:10Z</time>
      </trkpt>
      <trkpt lat="42.90002" lon="2.2494">
        <ele>331.076</ele>
        <time>2011-10-15T11:43:12Z</time>
      </trkpt>
      <trkpt lat="42.90012" lon="2.24931">
        <ele>329.686</ele>
        <time>2011-10-15T11:43:14Z</time>
      </trkpt>
      <trkpt lat="42.90026" lon="2.24922">
        <ele>328.452</ele>
        <time>2011-10-15T11:43:17Z</time>
      </trkpt>
      <trkpt lat="42.9004" lon="2.24917">
        <ele>325.992</ele>
        <time>2011-10-15T11:43:20Z</time>
      </trkpt>
      <trkpt lat="42.90065" lon="2.2492">
        <ele>321.371</ele>
        <time>2011-10-15T11:43:26Z</time>
      </trkpt>
      <trkpt lat="42.90067" lon="2.24937">
        <ele>319.303</ele>
        <time>2011-10-15T11:43:29Z</time>
      </trkpt>
      <trkpt lat="42.90065" lon="2.24943">
        <ele>319.093</ele>
        <time>2011-10-15T11:43:30Z</time>
      </trkpt>
      <trkpt lat="42.90046" lon="2.24984">
        <ele>321.217</ele>
        <time>2011-10-15T11:43:38Z</time>
      </trkpt>
      <trkpt lat="42.9003" lon="2.24989">
        <ele>323.528</ele>
        <time>2011-10-15T11:43:43Z</time>
      </trkpt>
      <trkpt lat="42.90014" lon="2.25002">
        <ele>326.416</ele>
        <time>2011-10-15T11:43:50Z</time>
      </trkpt>
      <trkpt lat="42.90012" lon="2.25009">
        <ele>327.14</ele>
        <time>2011-10-15T11:43:52Z</time>
      </trkpt>
      <trkpt lat="42.9002" lon="2.25026">
        <ele>328.987</ele>
        <time>2011-10-15T11:43:57Z</time>
      </trkpt>
      <trkpt lat="42.90045" lon="2.25055">
        <ele>331.571</ele>
        <time>2011-10-15T11:44:06Z</time>
      </trkpt>
      <trkpt lat="42.90072" lon="2.25081">
        <ele>333.866</ele>
        <time>2011-10-15T11:44:15Z</time>
      </trkpt>
      <trkpt lat="42.90096" lon="2.251">
        <ele>335.74</ele>
        <time>2011-10-15T11:44:23Z</time>
      </trkpt>
      <trkpt lat="42.90132" lon="2.2514">
        <ele>337.987</ele>
        <time>2011-10-15T11:44:36Z</time>
      </trkpt>
      <trkpt lat="42.90154" lon="2.2517">
        <ele>339.85</ele>
        <time>2011-10-15T11:44:45Z</time>
      </trkpt>
      <trkpt lat="42.90185" lon="2.25202">
        <ele>341.336</ele>
        <time>2011-10-15T11:44:56Z</time>
      </trkpt>
      <trkpt lat="42.90215" lon="2.25226">
        <ele>343.723</ele>
        <time>2011-10-15T11:45:06Z</time>
      </trkpt>
      <trkpt lat="42.90238" lon="2.25243">
        <ele>345.012</ele>
        <time>2011-10-15T11:45:13Z</time>
      </trkpt>
      <trkpt lat="42.90272" lon="2.25258">
        <ele>346.765</ele>
        <time>2011-10-15T11:45:22Z</time>
      </trkpt>
      <trkpt lat="42.90309" lon="2.25261">
        <ele>347.932</ele>
        <time>2011-10-15T11:45:31Z</time>
      </trkpt>
      <trkpt lat="42.90313" lon="2.25261">
        <ele>348.206</ele>
        <time>2011-10-15T11:45:32Z</time>
      </trkpt>
      <trkpt lat="42.90332" lon="2.25273">
        <ele>349.027</ele>
        <time>2011-10-15T11:45:37Z</time>
      </trkpt>
      <trkpt lat="42.90363" lon="2.25303">
        <ele>350.457</ele>
        <time>2011-10-15T11:45:46Z</time>
      </trkpt>
      <trkpt lat="42.9039" lon="2.25326">
        <ele>352.62</ele>
        <time>2011-10-15T11:45:55Z</time>
      </trkpt>
      <trkpt lat="42.9041" lon="2.25353">
        <ele>354.161</ele>
        <time>2011-10-15T11:46:03Z</time>
      </trkpt>
      <trkpt lat="42.90416" lon="2.25365">
        <ele>354.937</ele>
        <time>2011-10-15T11:46:06Z</time>
      </trkpt>
      <trkpt lat="42.90418" lon="2.25376">
        <ele>355.087</ele>
        <time>2011-10-15T11:46:08Z</time>
      </trkpt>
      <trkpt lat="42.90432" lon="2.25389">
        <ele>354.715</ele>
        <time>2011-10-15T11:46:12Z</time>
      </trkpt>
      <trkpt lat="42.90437" lon="2.25386">
        <ele>354.753</ele>
        <time>2011-10-15T11:46:13Z</time>
      </trkpt>
      <trkpt lat="42.90449" lon="2.25379">
        <ele>354.875</ele>
        <time>2011-10-15T11:46:16Z</time>
      </trkpt>
      <trkpt lat="42.90482" lon="2.25375">
        <ele>355.275</ele>
        <time>2011-10-15T11:46:22Z</time>
      </trkpt>
      <trkpt lat="42.90488" lon="2.25374">
        <ele>355.262</ele>
        <time>2011-10-15T11:46:23Z</time>
      </trkpt>
      <trkpt lat="42.90512" lon="2.25381">
        <ele>354.872</ele>
        <time>2011-10-15T11:46:27Z</time>
      </trkpt>
      <trkpt lat="42.90529" lon="2.25383">
        <ele>353.615</ele>
        <time>2011-10-15T11:46:30Z</time>
      </trkpt>
      <trkpt lat="42.90535" lon="2.25383">
        <ele>353.431</ele>
        <time>2011-10-15T11:46:31Z</time>
      </trkpt>
      <trkpt lat="42.90581" lon="2.25394">
        <ele>354.02</ele>
        <time>2011-10-15T11:46:40Z</time>
      </trkpt>
      <trkpt lat="42.90621" lon="2.25406">
        <ele>354.705</ele>
        <time>2011-10-15T11:46:48Z</time>
      </trkpt>
      <trkpt lat="42.90634" lon="2.25409">
        <ele>355.482</ele>
        <time>2011-10-15T11:46:51Z</time>
      </trkpt>
      <trkpt lat="42.90649" lon="2.25422">
        <ele>355.884</ele>
        <time>2011-10-15T11:46:55Z</time>
      </trkpt>
      <trkpt lat="42.90651" lon="2.25427">
        <ele>355.562</ele>
        <time>2011-10-15T11:46:56Z</time>
      </trkpt>
      <trkpt lat="42.90662" lon="2.2546">
        <ele>356.682</ele>
        <time>2011-10-15T11:47:03Z</time>
      </trkpt>
      <trkpt lat="42.90668" lon="2.25476">
        <ele>358.479</ele>
        <time>2011-10-15T11:47:08Z</time>
      </trkpt>
      <trkpt lat="42.90679" lon="2.25496">
        <ele>360.444</ele>
        <time>2011-10-15T11:47:14Z</time>
      </trkpt>
      <trkpt lat="42.90691" lon="2.25519">
        <ele>361.765</ele>
        <time>2011-10-15T11:47:21Z</time>
      </trkpt>
      <trkpt lat="42.90699" lon="2.2554">
        <ele>362.964</ele>
        <time>2011-10-15T11:47:27Z</time>
      </trkpt>
      <trkpt lat="42.90709" lon="2.25563">
        <ele>364.478</ele>
        <time>2011-10-15T11:47:34Z</time>
      </trkpt>
      <trkpt lat="42.90723" lon="2.25576">
        <ele>365.543</ele>
        <time>2011-10-15T11:47:40Z</time>
      </trkpt>
      <trkpt lat="42.90739" lon="2.25595">
        <ele>367.709</ele>
        <time>2011-10-15T11:47:47Z</time>
      </trkpt>
      <trkpt lat="42.90751" lon="2.25605">
        <ele>367.997</ele>
        <time>2011-10-15T11:47:51Z</time>
      </trkpt>
      <trkpt lat="42.90766" lon="2.25605">
        <ele>368.711</ele>
        <time>2011-10-15T11:47:55Z</time>
      </trkpt>
      <trkpt lat="42.90782" lon="2.25618">
        <ele>370.499</ele>
        <time>2011-10-15T11:48:01Z</time>
      </trkpt>
      <trkpt lat="42.90796" lon="2.25651">
        <ele>372.009</ele>
        <time>2011-10-15T11:48:11Z</time>
      </trkpt>
      <trkpt lat="42.90807" lon="2.25677">
        <ele>373.873</ele>
        <time>2011-10-15T11:48:19Z</time>
      </trkpt>
      <trkpt lat="42.90817" lon="2.25702">
        <ele>376.55</ele>
        <time>2011-10-15T11:48:27Z</time>
      </trkpt>
      <trkpt lat="42.90818" lon="2.25726">
        <ele>377.237</ele>
        <time>2011-10-15T11:48:33Z</time>
      </trkpt>
      <trkpt lat="42.90814" lon="2.25759">
        <ele>378.22</ele>
        <time>2011-10-15T11:48:40Z</time>
      </trkpt>
      <trkpt lat="42.90819" lon="2.25782">
        <ele>379.286</ele>
        <time>2011-10-15T11:48:46Z</time>
      </trkpt>
      <trkpt lat="42.90823" lon="2.25811">
        <ele>381.396</ele>
        <time>2011-10-15T11:48:54Z</time>
      </trkpt>
      <trkpt lat="42.90825" lon="2.25828">
        <ele>382.941</ele>
        <time>2011-10-15T11:48:59Z</time>
      </trkpt>
      <trkpt lat="42.90834" lon="2.25835">
        <ele>383.857</ele>
        <time>2011-10-15T11:49:03Z</time>
      </trkpt>
      <trkpt lat="42.90844" lon="2.25857">
        <ele>385.866</ele>
        <time>2011-10-15T11:49:10Z</time>
      </trkpt>
      <trkpt lat="42.90856" lon="2.25876">
        <ele>386.553</ele>
        <time>2011-10-15T11:49:16Z</time>
      </trkpt>
      <trkpt lat="42.90858" lon="2.25883">
        <ele>386.733</ele>
        <time>2011-10-15T11:49:18Z</time>
      </trkpt>
      <trkpt lat="42.90875" lon="2.25889">
        <ele>388.092</ele>
        <time>2011-10-15T11:49:24Z</time>
      </trkpt>
      <trkpt lat="42.90887" lon="2.25892">
        <ele>388.512</ele>
        <time>2011-10-15T11:49:27Z</time>
      </trkpt>
      <trkpt lat="42.90911" lon="2.25896">
        <ele>387.9</ele>
        <time>2011-10-15T11:49:32Z</time>
      </trkpt>
      <trkpt lat="42.90928" lon="2.25908">
        <ele>387.705</ele>
        <time>2011-10-15T11:49:36Z</time>
      </trkpt>
      <trkpt lat="42.90937" lon="2.2592">
        <ele>388.128</ele>
        <time>2011-10-15T11:49:39Z</time>
      </trkpt>
      <trkpt lat="42.90966" lon="2.25941">
        <ele>389.739</ele>
        <time>2011-10-15T11:49:47Z</time>
      </trkpt>
      <trkpt lat="42.90995" lon="2.25965">
        <ele>390.693</ele>
        <time>2011-10-15T11:49:55Z</time>
      </trkpt>
      <trkpt lat="42.91023" lon="2.25984">
        <ele>391.39</ele>
        <time>2011-10-15T11:50:02Z</time>
      </trkpt>
      <trkpt lat="42.91044" lon="2.25999">
        <ele>391.29</ele>
        <time>2011-10-15T11:50:07Z</time>
      </trkpt>
      <trkpt lat="42.9106" lon="2.26022">
        <ele>392.495</ele>
        <time>2011-10-15T11:50:12Z</time>
      </trkpt>
      <trkpt lat="42.91082" lon="2.26039">
        <ele>391.899</ele>
        <time>2011-10-15T11:50:17Z</time>
      </trkpt>
      <trkpt lat="42.91086" lon="2.26042">
        <ele>391.901</ele>
        <time>2011-10-15T11:50:18Z</time>
      </trkpt>
      <trkpt lat="42.91116" lon="2.26062">
        <ele>392.142</ele>
        <time>2011-10-15T11:50:24Z</time>
      </trkpt>
      <trkpt lat="42.9114" lon="2.26064">
        <ele>391.267</ele>
        <time>2011-10-15T11:50:28Z</time>
      </trkpt>
      <trkpt lat="42.91164" lon="2.26071">
        <ele>390.784</ele>
        <time>2011-10-15T11:50:32Z</time>
      </trkpt>
      <trkpt lat="42.91176" lon="2.26077">
        <ele>390.304</ele>
        <time>2011-10-15T11:50:34Z</time>
      </trkpt>
      <trkpt lat="42.91198" lon="2.26096">
        <ele>389.731</ele>
        <time>2011-10-15T11:50:38Z</time>
      </trkpt>
      <trkpt lat="42.91218" lon="2.2611">
        <ele>389.699</ele>
        <time>2011-10-15T11:50:42Z</time>
      </trkpt>
      <trkpt lat="42.91237" lon="2.26126">
        <ele>389.948</ele>
        <time>2011-10-15T11:50:46Z</time>
      </trkpt>
      <trkpt lat="42.91262" lon="2.26158">
        <ele>389.217</ele>
        <time>2011-10-15T11:50:52Z</time>
      </trkpt>
      <trkpt lat="42.91282" lon="2.26186">
        <ele>389.634</ele>
        <time>2011-10-15T11:50:58Z</time>
      </trkpt>
      <trkpt lat="42.91291" lon="2.26199">
        <ele>390.155</ele>
        <time>2011-10-15T11:51:01Z</time>
      </trkpt>
      <trkpt lat="42.913" lon="2.26215">
        <ele>390.386</ele>
        <time>2011-10-15T11:51:04Z</time>
      </trkpt>
      <trkpt lat="42.91314" lon="2.26241">
        <ele>389.359</ele>
        <time>2011-10-15T11:51:09Z</time>
      </trkpt>
      <trkpt lat="42.9133" lon="2.2626">
        <ele>388.729</ele>
        <time>2011-10-15T11:51:13Z</time>
      </trkpt>
      <trkpt lat="42.91333" lon="2.26266">
        <ele>388.753</ele>
        <time>2011-10-15T11:51:14Z</time>
      </trkpt>
      <trkpt lat="42.91349" lon="2.26304">
        <ele>389.403</ele>
        <time>2011-10-15T11:51:21Z</time>
      </trkpt>
      <trkpt lat="42.91351" lon="2.26309">
        <ele>389.403</ele>
        <time>2011-10-15T11:51:22Z</time>
      </trkpt>
      <trkpt lat="42.91351" lon="2.26328">
        <ele>390.631</ele>
        <time>2011-10-15T11:51:26Z</time>
      </trkpt>
      <trkpt lat="42.91339" lon="2.26364">
        <ele>393.309</ele>
        <time>2011-10-15T11:51:35Z</time>
      </trkpt>
      <trkpt lat="42.91335" lon="2.2639">
        <ele>393.929</ele>
        <time>2011-10-15T11:51:41Z</time>
      </trkpt>
      <trkpt lat="42.91338" lon="2.26424">
        <ele>395.995</ele>
        <time>2011-10-15T11:51:49Z</time>
      </trkpt>
      <trkpt lat="42.91341" lon="2.2645">
        <ele>398.226</ele>
        <time>2011-10-15T11:51:56Z</time>
      </trkpt>
      <trkpt lat="42.91348" lon="2.2648">
        <ele>400.059</ele>
        <time>2011-10-15T11:52:04Z</time>
      </trkpt>
      <trkpt lat="42.91355" lon="2.26515">
        <ele>401.85</ele>
        <time>2011-10-15T11:52:13Z</time>
      </trkpt>
      <trkpt lat="42.91355" lon="2.26519">
        <ele>402.216</ele>
        <time>2011-10-15T11:52:14Z</time>
      </trkpt>
      <trkpt lat="42.9134" lon="2.26525">
        <ele>403.818</ele>
        <time>2011-10-15T11:52:19Z</time>
      </trkpt>
      <trkpt lat="42.91319" lon="2.26534">
        <ele>405.032</ele>
        <time>2011-10-15T11:52:25Z</time>
      </trkpt>
      <trkpt lat="42.91297" lon="2.26537">
        <ele>405.651</ele>
        <time>2011-10-15T11:52:31Z</time>
      </trkpt>
      <trkpt lat="42.91267" lon="2.2654">
        <ele>407.403</ele>
        <time>2011-10-15T11:52:40Z</time>
      </trkpt>
      <trkpt lat="42.91254" lon="2.2654">
        <ele>409.13</ele>
        <time>2011-10-15T11:52:45Z</time>
      </trkpt>
      <trkpt lat="42.91238" lon="2.26545">
        <ele>411.819</ele>
        <time>2011-10-15T11:52:52Z</time>
      </trkpt>
      <trkpt lat="42.91221" lon="2.26546">
        <ele>413.612</ele>
        <time>2011-10-15T11:52:58Z</time>
      </trkpt>
      <trkpt lat="42.91203" lon="2.26547">
        <ele>414.634</ele>
        <time>2011-10-15T11:53:04Z</time>
      </trkpt>
      <trkpt lat="42.91179" lon="2.26555">
        <ele>416.702</ele>
        <time>2011-10-15T11:53:12Z</time>
      </trkpt>
      <trkpt lat="42.91156" lon="2.26568">
        <ele>417.928</ele>
        <time>2011-10-15T11:53:20Z</time>
      </trkpt>
      <trkpt lat="42.91138" lon="2.26587">
        <ele>419.488</ele>
        <time>2011-10-15T11:53:27Z</time>
      </trkpt>
      <trkpt lat="42.91126" lon="2.26607">
        <ele>419.342</ele>
        <time>2011-10-15T11:53:31Z</time>
      </trkpt>
      <trkpt lat="42.91111" lon="2.26624">
        <ele>417.681</ele>
        <time>2011-10-15T11:53:35Z</time>
      </trkpt>
      <trkpt lat="42.91096" lon="2.26634">
        <ele>419.578</ele>
        <time>2011-10-15T11:53:40Z</time>
      </trkpt>
      <trkpt lat="42.91093" lon="2.26635">
        <ele>419.845</ele>
        <time>2011-10-15T11:53:41Z</time>
      </trkpt>
      <trkpt lat="42.91076" lon="2.26646">
        <ele>421.136</ele>
        <time>2011-10-15T11:53:47Z</time>
      </trkpt>
      <trkpt lat="42.91057" lon="2.26665">
        <ele>422.947</ele>
        <time>2011-10-15T11:53:55Z</time>
      </trkpt>
      <trkpt lat="42.91042" lon="2.2669">
        <ele>423.965</ele>
        <time>2011-10-15T11:54:02Z</time>
      </trkpt>
      <trkpt lat="42.91027" lon="2.26699">
        <ele>423.884</ele>
        <time>2011-10-15T11:54:07Z</time>
      </trkpt>
      <trkpt lat="42.91017" lon="2.267">
        <ele>425.447</ele>
        <time>2011-10-15T11:54:11Z</time>
      </trkpt>
      <trkpt lat="42.91006" lon="2.26696">
        <ele>428.415</ele>
        <time>2011-10-15T11:54:18Z</time>
      </trkpt>
      <trkpt lat="42.90997" lon="2.26687">
        <ele>432.505</ele>
        <time>2011-10-15T11:54:27Z</time>
      </trkpt>
      <trkpt lat="42.90985" lon="2.26677">
        <ele>434.984</ele>
        <time>2011-10-15T11:54:35Z</time>
      </trkpt>
      <trkpt lat="42.90973" lon="2.26676">
        <ele>435.332</ele>
        <time>2011-10-15T11:54:40Z</time>
      </trkpt>
      <trkpt lat="42.90953" lon="2.26672">
        <ele>436.903</ele>
        <time>2011-10-15T11:54:48Z</time>
      </trkpt>
      <trkpt lat="42.90931" lon="2.26667">
        <ele>437.845</ele>
        <time>2011-10-15T11:54:55Z</time>
      </trkpt>
      <trkpt lat="42.9091" lon="2.26666">
        <ele>438.044</ele>
        <time>2011-10-15T11:55:01Z</time>
      </trkpt>
      <trkpt lat="42.90892" lon="2.26663">
        <ele>437.745</ele>
        <time>2011-10-15T11:55:06Z</time>
      </trkpt>
      <trkpt lat="42.90868" lon="2.26652">
        <ele>436.964</ele>
        <time>2011-10-15T11:55:11Z</time>
      </trkpt>
      <trkpt lat="42.90838" lon="2.26649">
        <ele>436.049</ele>
        <time>2011-10-15T11:55:17Z</time>
      </trkpt>
      <trkpt lat="42.90809" lon="2.26641">
        <ele>436.983</ele>
        <time>2011-10-15T11:55:24Z</time>
      </trkpt>
      <trkpt lat="42.90805" lon="2.2664">
        <ele>437.349</ele>
        <time>2011-10-15T11:55:25Z</time>
      </trkpt>
      <trkpt lat="42.90786" lon="2.26643">
        <ele>436.9</ele>
        <time>2011-10-15T11:55:29Z</time>
      </trkpt>
      <trkpt lat="42.90781" lon="2.26644">
        <ele>436.235</ele>
        <time>2011-10-15T11:55:30Z</time>
      </trkpt>
      <trkpt lat="42.90752" lon="2.26655">
        <ele>434.799</ele>
        <time>2011-10-15T11:55:35Z</time>
      </trkpt>
      <trkpt lat="42.90741" lon="2.26659">
        <ele>433.932</ele>
        <time>2011-10-15T11:55:37Z</time>
      </trkpt>
      <trkpt lat="42.90712" lon="2.26664">
        <ele>432.364</ele>
        <time>2011-10-15T11:55:42Z</time>
      </trkpt>
      <trkpt lat="42.9069" lon="2.26677">
        <ele>432.805</ele>
        <time>2011-10-15T11:55:48Z</time>
      </trkpt>
      <trkpt lat="42.90673" lon="2.26686">
        <ele>433.612</ele>
        <time>2011-10-15T11:55:53Z</time>
      </trkpt>
      <trkpt lat="42.90652" lon="2.26699">
        <ele>433.38</ele>
        <time>2011-10-15T11:55:57Z</time>
      </trkpt>
      <trkpt lat="42.90639" lon="2.26718">
        <ele>432.354</ele>
        <time>2011-10-15T11:56:01Z</time>
      </trkpt>
      <trkpt lat="42.90636" lon="2.26725">
        <ele>431.712</ele>
        <time>2011-10-15T11:56:02Z</time>
      </trkpt>
      <trkpt lat="42.90623" lon="2.26748">
        <ele>425.904</ele>
        <time>2011-10-15T11:56:07Z</time>
      </trkpt>
      <trkpt lat="42.90608" lon="2.2675">
        <ele>421.915</ele>
        <time>2011-10-15T11:56:10Z</time>
      </trkpt>
      <trkpt lat="42.90581" lon="2.26759">
        <ele>418.631</ele>
        <time>2011-10-15T11:56:15Z</time>
      </trkpt>
      <trkpt lat="42.90567" lon="2.26764">
        <ele>419.497</ele>
        <time>2011-10-15T11:56:19Z</time>
      </trkpt>
      <trkpt lat="42.90553" lon="2.26785">
        <ele>419.37</ele>
        <time>2011-10-15T11:56:23Z</time>
      </trkpt>
      <trkpt lat="42.9053" lon="2.26805">
        <ele>417.026</ele>
        <time>2011-10-15T11:56:28Z</time>
      </trkpt>
      <trkpt lat="42.90525" lon="2.2681">
        <ele>416.804</ele>
        <time>2011-10-15T11:56:29Z</time>
      </trkpt>
      <trkpt lat="42.905" lon="2.26815">
        <ele>415.732</ele>
        <time>2011-10-15T11:56:33Z</time>
      </trkpt>
      <trkpt lat="42.90478" lon="2.26834">
        <ele>413.275</ele>
        <time>2011-10-15T11:56:37Z</time>
      </trkpt>
      <trkpt lat="42.90465" lon="2.26863">
        <ele>409.638</ele>
        <time>2011-10-15T11:56:41Z</time>
      </trkpt>
      <trkpt lat="42.90462" lon="2.26871">
        <ele>408.197</ele>
        <time>2011-10-15T11:56:42Z</time>
      </trkpt>
      <trkpt lat="42.9046" lon="2.26917">
        <ele>403.461</ele>
        <time>2011-10-15T11:56:47Z</time>
      </trkpt>
      <trkpt lat="42.90462" lon="2.26927">
        <ele>403.459</ele>
        <time>2011-10-15T11:56:48Z</time>
      </trkpt>
      <trkpt lat="42.90473" lon="2.26961">
        <ele>399.388</ele>
        <time>2011-10-15T11:56:53Z</time>
      </trkpt>
      <trkpt lat="42.90477" lon="2.26984">
        <ele>396.85</ele>
        <time>2011-10-15T11:56:56Z</time>
      </trkpt>
      <trkpt lat="42.90482" lon="2.27008">
        <ele>394.396</ele>
        <time>2011-10-15T11:56:59Z</time>
      </trkpt>
      <trkpt lat="42.90491" lon="2.27041">
        <ele>390.506</ele>
        <time>2011-10-15T11:57:03Z</time>
      </trkpt>
      <trkpt lat="42.90498" lon="2.27076">
        <ele>387.764</ele>
        <time>2011-10-15T11:57:07Z</time>
      </trkpt>
      <trkpt lat="42.90495" lon="2.27081">
        <ele>387.497</ele>
        <time>2011-10-15T11:57:08Z</time>
      </trkpt>
      <trkpt lat="42.90485" lon="2.27088">
        <ele>387.998</ele>
        <time>2011-10-15T11:57:11Z</time>
      </trkpt>
      <trkpt lat="42.9047" lon="2.27096">
        <ele>388.826</ele>
        <time>2011-10-15T11:57:15Z</time>
      </trkpt>
      <trkpt lat="42.90458" lon="2.27095">
        <ele>390.053</ele>
        <time>2011-10-15T11:57:19Z</time>
      </trkpt>
      <trkpt lat="42.9045" lon="2.27093">
        <ele>391.236</ele>
        <time>2011-10-15T11:57:22Z</time>
      </trkpt>
      <trkpt lat="42.9043" lon="2.27086">
        <ele>393.397</ele>
        <time>2011-10-15T11:57:29Z</time>
      </trkpt>
      <trkpt lat="42.90409" lon="2.27089">
        <ele>396.537</ele>
        <time>2011-10-15T11:57:37Z</time>
      </trkpt>
      <trkpt lat="42.90396" lon="2.27098">
        <ele>396.802</ele>
        <time>2011-10-15T11:57:42Z</time>
      </trkpt>
      <trkpt lat="42.90383" lon="2.27099">
        <ele>397.771</ele>
        <time>2011-10-15T11:57:47Z</time>
      </trkpt>
      <trkpt lat="42.90375" lon="2.27097">
        <ele>398.932</ele>
        <time>2011-10-15T11:57:51Z</time>
      </trkpt>
      <trkpt lat="42.90366" lon="2.27082">
        <ele>400.81</ele>
        <time>2011-10-15T11:57:56Z</time>
      </trkpt>
      <trkpt lat="42.90358" lon="2.27068">
        <ele>401.502</ele>
        <time>2011-10-15T11:58:01Z</time>
      </trkpt>
      <trkpt lat="42.90346" lon="2.27067">
        <ele>402.14</ele>
        <time>2011-10-15T11:58:06Z</time>
      </trkpt>
      <trkpt lat="42.90344" lon="2.27067">
        <ele>402.4</ele>
        <time>2011-10-15T11:58:07Z</time>
      </trkpt>
      <trkpt lat="42.90326" lon="2.27064">
        <ele>404.336</ele>
        <time>2011-10-15T11:58:15Z</time>
      </trkpt>
      <trkpt lat="42.90318" lon="2.27065">
        <ele>406.445</ele>
        <time>2011-10-15T11:58:20Z</time>
      </trkpt>
      <trkpt lat="42.90313" lon="2.27066">
        <ele>407.117</ele>
        <time>2011-10-15T11:58:22Z</time>
      </trkpt>
      <trkpt lat="42.90301" lon="2.27066">
        <ele>408.062</ele>
        <time>2011-10-15T11:58:27Z</time>
      </trkpt>
      <trkpt lat="42.90285" lon="2.27066">
        <ele>409.39</ele>
        <time>2011-10-15T11:58:34Z</time>
      </trkpt>
      <trkpt lat="42.90281" lon="2.27065">
        <ele>409.773</ele>
        <time>2011-10-15T11:58:36Z</time>
      </trkpt>
      <trkpt lat="42.90271" lon="2.27063">
        <ele>410.849</ele>
        <time>2011-10-15T11:58:41Z</time>
      </trkpt>
      <trkpt lat="42.90245" lon="2.27061">
        <ele>412.619</ele>
        <time>2011-10-15T11:58:49Z</time>
      </trkpt>
      <trkpt lat="42.90232" lon="2.2706">
        <ele>412.794</ele>
        <time>2011-10-15T11:58:52Z</time>
      </trkpt>
      <trkpt lat="42.90212" lon="2.27061">
        <ele>412.622</ele>
        <time>2011-10-15T11:58:56Z</time>
      </trkpt>
      <trkpt lat="42.90187" lon="2.27064">
        <ele>413.156</ele>
        <time>2011-10-15T11:59:01Z</time>
      </trkpt>
      <trkpt lat="42.90158" lon="2.2706">
        <ele>412.616</ele>
        <time>2011-10-15T11:59:07Z</time>
      </trkpt>
      <trkpt lat="42.90136" lon="2.27048">
        <ele>413.362</ele>
        <time>2011-10-15T11:59:13Z</time>
      </trkpt>
      <trkpt lat="42.90121" lon="2.27036">
        <ele>415.276</ele>
        <time>2011-10-15T11:59:20Z</time>
      </trkpt>
      <trkpt lat="42.90105" lon="2.27025">
        <ele>417.371</ele>
        <time>2011-10-15T11:59:28Z</time>
      </trkpt>
      <trkpt lat="42.90089" lon="2.27015">
        <ele>419.634</ele>
        <time>2011-10-15T11:59:36Z</time>
      </trkpt>
      <trkpt lat="42.90067" lon="2.27003">
        <ele>422.157</ele>
        <time>2011-10-15T11:59:46Z</time>
      </trkpt>
      <trkpt lat="42.90047" lon="2.26996">
        <ele>423.708</ele>
        <time>2011-10-15T11:59:54Z</time>
      </trkpt>
      <trkpt lat="42.90024" lon="2.26995">
        <ele>425.194</ele>
        <time>2011-10-15T12:00:01Z</time>
      </trkpt>
      <trkpt lat="42.89992" lon="2.27002">
        <ele>426.297</ele>
        <time>2011-10-15T12:00:10Z</time>
      </trkpt>
      <trkpt lat="42.89988" lon="2.27004">
        <ele>426.297</ele>
        <time>2011-10-15T12:00:11Z</time>
      </trkpt>
      <trkpt lat="42.89975" lon="2.27013">
        <ele>426.076</ele>
        <time>2011-10-15T12:00:14Z</time>
      </trkpt>
      <trkpt lat="42.89966" lon="2.27017">
        <ele>425.81</ele>
        <time>2011-10-15T12:00:16Z</time>
      </trkpt>
      <trkpt lat="42.89944" lon="2.27017">
        <ele>425.119</ele>
        <time>2011-10-15T12:00:20Z</time>
      </trkpt>
      <trkpt lat="42.89923" lon="2.27011">
        <ele>424.211</ele>
        <time>2011-10-15T12:00:23Z</time>
      </trkpt>
      <trkpt lat="42.89897" lon="2.27021">
        <ele>422.411</ele>
        <time>2011-10-15T12:00:27Z</time>
      </trkpt>
      <trkpt lat="42.89884" lon="2.27042">
        <ele>421.908</ele>
        <time>2011-10-15T12:00:30Z</time>
      </trkpt>
      <trkpt lat="42.89881" lon="2.27059">
        <ele>421.624</ele>
        <time>2011-10-15T12:00:32Z</time>
      </trkpt>
      <trkpt lat="42.89881" lon="2.27077">
        <ele>421.227</ele>
        <time>2011-10-15T12:00:34Z</time>
      </trkpt>
      <trkpt lat="42.8989" lon="2.27112">
        <ele>420.442</ele>
        <time>2011-10-15T12:00:38Z</time>
      </trkpt>
      <trkpt lat="42.89901" lon="2.27165">
        <ele>418.842</ele>
        <time>2011-10-15T12:00:44Z</time>
      </trkpt>
      <trkpt lat="42.89906" lon="2.27185">
        <ele>417.859</ele>
        <time>2011-10-15T12:00:46Z</time>
      </trkpt>
      <trkpt lat="42.89908" lon="2.27205">
        <ele>416.599</ele>
        <time>2011-10-15T12:00:48Z</time>
      </trkpt>
      <trkpt lat="42.89906" lon="2.27244">
        <ele>415.18</ele>
        <time>2011-10-15T12:00:52Z</time>
      </trkpt>
      <trkpt lat="42.89911" lon="2.27281">
        <ele>414.217</ele>
        <time>2011-10-15T12:00:56Z</time>
      </trkpt>
      <trkpt lat="42.89922" lon="2.27314">
        <ele>413.595</ele>
        <time>2011-10-15T12:01:00Z</time>
      </trkpt>
      <trkpt lat="42.89951" lon="2.27359">
        <ele>411.824</ele>
        <time>2011-10-15T12:01:06Z</time>
      </trkpt>
      <trkpt lat="42.89961" lon="2.27376">
        <ele>411.116</ele>
        <time>2011-10-15T12:01:08Z</time>
      </trkpt>
      <trkpt lat="42.8999" lon="2.2743">
        <ele>409.548</ele>
        <time>2011-10-15T12:01:14Z</time>
      </trkpt>
      <trkpt lat="42.89995" lon="2.27439">
        <ele>409.463</ele>
        <time>2011-10-15T12:01:15Z</time>
      </trkpt>
      <trkpt lat="42.90015" lon="2.27468">
        <ele>408.724</ele>
        <time>2011-10-15T12:01:19Z</time>
      </trkpt>
      <trkpt lat="42.90036" lon="2.27506">
        <ele>407.46</ele>
        <time>2011-10-15T12:01:24Z</time>
      </trkpt>
      <trkpt lat="42.90053" lon="2.27509">
        <ele>407.271</ele>
        <time>2011-10-15T12:01:27Z</time>
      </trkpt>
      <trkpt lat="42.90056" lon="2.27504">
        <ele>407.167</ele>
        <time>2011-10-15T12:01:28Z</time>
      </trkpt>
      <trkpt lat="42.90072" lon="2.2748">
        <ele>407.217</ele>
        <time>2011-10-15T12:01:33Z</time>
      </trkpt>
      <trkpt lat="42.90088" lon="2.27463">
        <ele>405.616</ele>
        <time>2011-10-15T12:01:37Z</time>
      </trkpt>
      <trkpt lat="42.90104" lon="2.27462">
        <ele>403.291</ele>
        <time>2011-10-15T12:01:40Z</time>
      </trkpt>
      <trkpt lat="42.90119" lon="2.27446">
        <ele>402.174</ele>
        <time>2011-10-15T12:01:43Z</time>
      </trkpt>
      <trkpt lat="42.90128" lon="2.27433">
        <ele>402.2</ele>
        <time>2011-10-15T12:01:45Z</time>
      </trkpt>
      <trkpt lat="42.90151" lon="2.27425">
        <ele>400.888</ele>
        <time>2011-10-15T12:01:49Z</time>
      </trkpt>
      <trkpt lat="42.90167" lon="2.27432">
        <ele>399.427</ele>
        <time>2011-10-15T12:01:52Z</time>
      </trkpt>
      <trkpt lat="42.90188" lon="2.27451">
        <ele>396.634</ele>
        <time>2011-10-15T12:01:56Z</time>
      </trkpt>
      <trkpt lat="42.90194" lon="2.27453">
        <ele>396.356</ele>
        <time>2011-10-15T12:01:57Z</time>
      </trkpt>
      <trkpt lat="42.90217" lon="2.2746">
        <ele>396.493</ele>
        <time>2011-10-15T12:02:01Z</time>
      </trkpt>
      <trkpt lat="42.90254" lon="2.27465">
        <ele>394.681</ele>
        <time>2011-10-15T12:02:06Z</time>
      </trkpt>
      <trkpt lat="42.90268" lon="2.27467">
        <ele>393.695</ele>
        <time>2011-10-15T12:02:08Z</time>
      </trkpt>
      <trkpt lat="42.90296" lon="2.27468">
        <ele>391.895</ele>
        <time>2011-10-15T12:02:12Z</time>
      </trkpt>
      <trkpt lat="42.90325" lon="2.27465">
        <ele>389.715</ele>
        <time>2011-10-15T12:02:16Z</time>
      </trkpt>
      <trkpt lat="42.90332" lon="2.27465">
        <ele>389.447</ele>
        <time>2011-10-15T12:02:17Z</time>
      </trkpt>
      <trkpt lat="42.90366" lon="2.27457">
        <ele>388.342</ele>
        <time>2011-10-15T12:02:22Z</time>
      </trkpt>
      <trkpt lat="42.90379" lon="2.27455">
        <ele>387.606</ele>
        <time>2011-10-15T12:02:24Z</time>
      </trkpt>
      <trkpt lat="42.90391" lon="2.27454">
        <ele>387.111</ele>
        <time>2011-10-15T12:02:26Z</time>
      </trkpt>
      <trkpt lat="42.90403" lon="2.27455">
        <ele>386.787</ele>
        <time>2011-10-15T12:02:28Z</time>
      </trkpt>
      <trkpt lat="42.90422" lon="2.27452">
        <ele>386.033</ele>
        <time>2011-10-15T12:02:31Z</time>
      </trkpt>
      <trkpt lat="42.90444" lon="2.27452">
        <ele>385.763</ele>
        <time>2011-10-15T12:02:34Z</time>
      </trkpt>
      <trkpt lat="42.90485" lon="2.27451">
        <ele>383.895</ele>
        <time>2011-10-15T12:02:40Z</time>
      </trkpt>
      <trkpt lat="42.90492" lon="2.27452">
        <ele>383.597</ele>
        <time>2011-10-15T12:02:41Z</time>
      </trkpt>
      <trkpt lat="42.90513" lon="2.27448">
        <ele>382.647</ele>
        <time>2011-10-15T12:02:44Z</time>
      </trkpt>
      <trkpt lat="42.90527" lon="2.27447">
        <ele>381.777</ele>
        <time>2011-10-15T12:02:46Z</time>
      </trkpt>
      <trkpt lat="42.90564" lon="2.2743">
        <ele>379.317</ele>
        <time>2011-10-15T12:02:51Z</time>
      </trkpt>
      <trkpt lat="42.90576" lon="2.27425">
        <ele>378.416</ele>
        <time>2011-10-15T12:02:53Z</time>
      </trkpt>
      <trkpt lat="42.90593" lon="2.27429">
        <ele>377.085</ele>
        <time>2011-10-15T12:02:56Z</time>
      </trkpt>
      <trkpt lat="42.90612" lon="2.27434">
        <ele>376.036</ele>
        <time>2011-10-15T12:02:59Z</time>
      </trkpt>
      <trkpt lat="42.90636" lon="2.27431">
        <ele>375.321</ele>
        <time>2011-10-15T12:03:03Z</time>
      </trkpt>
      <trkpt lat="42.90643" lon="2.27429">
        <ele>374.897</ele>
        <time>2011-10-15T12:03:04Z</time>
      </trkpt>
      <trkpt lat="42.90662" lon="2.27432">
        <ele>373.203</ele>
        <time>2011-10-15T12:03:07Z</time>
      </trkpt>
      <trkpt lat="42.90699" lon="2.27445">
        <ele>373.021</ele>
        <time>2011-10-15T12:03:13Z</time>
      </trkpt>
      <trkpt lat="42.90705" lon="2.27447">
        <ele>373.074</ele>
        <time>2011-10-15T12:03:14Z</time>
      </trkpt>
      <trkpt lat="42.90729" lon="2.27447">
        <ele>372.767</ele>
        <time>2011-10-15T12:03:18Z</time>
      </trkpt>
      <trkpt lat="42.90754" lon="2.27446">
        <ele>372.513</ele>
        <time>2011-10-15T12:03:22Z</time>
      </trkpt>
      <trkpt lat="42.90779" lon="2.2743">
        <ele>371.928</ele>
        <time>2011-10-15T12:03:26Z</time>
      </trkpt>
      <trkpt lat="42.90799" lon="2.27411">
        <ele>370.078</ele>
        <time>2011-10-15T12:03:29Z</time>
      </trkpt>
      <trkpt lat="42.90811" lon="2.27395">
        <ele>369.454</ele>
        <time>2011-10-15T12:03:31Z</time>
      </trkpt>
      <trkpt lat="42.90823" lon="2.2738">
        <ele>368.621</ele>
        <time>2011-10-15T12:03:33Z</time>
      </trkpt>
      <trkpt lat="42.90845" lon="2.27367">
        <ele>367.366</ele>
        <time>2011-10-15T12:03:36Z</time>
      </trkpt>
      <trkpt lat="42.90861" lon="2.27366">
        <ele>365.926</ele>
        <time>2011-10-15T12:03:38Z</time>
      </trkpt>
      <trkpt lat="42.90895" lon="2.27356">
        <ele>365.388</ele>
        <time>2011-10-15T12:03:42Z</time>
      </trkpt>
      <trkpt lat="42.90935" lon="2.27346">
        <ele>363.719</ele>
        <time>2011-10-15T12:03:47Z</time>
      </trkpt>
      <trkpt lat="42.90943" lon="2.27342">
        <ele>363.154</ele>
        <time>2011-10-15T12:03:48Z</time>
      </trkpt>
      <trkpt lat="42.90959" lon="2.27332">
        <ele>362.207</ele>
        <time>2011-10-15T12:03:50Z</time>
      </trkpt>
      <trkpt lat="42.90993" lon="2.27317">
        <ele>361.622</ele>
        <time>2011-10-15T12:03:54Z</time>
      </trkpt>
      <trkpt lat="42.91037" lon="2.27305">
        <ele>359.441</ele>
        <time>2011-10-15T12:03:59Z</time>
      </trkpt>
      <trkpt lat="42.91066" lon="2.27295">
        <ele>357.951</ele>
        <time>2011-10-15T12:04:02Z</time>
      </trkpt>
      <trkpt lat="42.91074" lon="2.27288">
        <ele>357.29</ele>
        <time>2011-10-15T12:04:03Z</time>
      </trkpt>
      <trkpt lat="42.91119" lon="2.2727">
        <ele>354.691</ele>
        <time>2011-10-15T12:04:08Z</time>
      </trkpt>
      <trkpt lat="42.91139" lon="2.27266">
        <ele>353.082</ele>
        <time>2011-10-15T12:04:10Z</time>
      </trkpt>
      <trkpt lat="42.91174" lon="2.27244">
        <ele>351.058</ele>
        <time>2011-10-15T12:04:14Z</time>
      </trkpt>
      <trkpt lat="42.91202" lon="2.27234">
        <ele>349.694</ele>
        <time>2011-10-15T12:04:17Z</time>
      </trkpt>
      <trkpt lat="42.91237" lon="2.27236">
        <ele>348.603</ele>
        <time>2011-10-15T12:04:21Z</time>
      </trkpt>
      <trkpt lat="42.91268" lon="2.27226">
        <ele>347.537</ele>
        <time>2011-10-15T12:04:25Z</time>
      </trkpt>
      <trkpt lat="42.91274" lon="2.2722">
        <ele>347.281</ele>
        <time>2011-10-15T12:04:26Z</time>
      </trkpt>
      <trkpt lat="42.91319" lon="2.27167">
        <ele>348.193</ele>
        <time>2011-10-15T12:04:34Z</time>
      </trkpt>
      <trkpt lat="42.91344" lon="2.27127">
        <ele>348.758</ele>
        <time>2011-10-15T12:04:39Z</time>
      </trkpt>
      <trkpt lat="42.91353" lon="2.27107">
        <ele>348.362</ele>
        <time>2011-10-15T12:04:41Z</time>
      </trkpt>
      <trkpt lat="42.91378" lon="2.27073">
        <ele>346.835</ele>
        <time>2011-10-15T12:04:45Z</time>
      </trkpt>
      <trkpt lat="42.91411" lon="2.2705">
        <ele>345.71</ele>
        <time>2011-10-15T12:04:49Z</time>
      </trkpt>
      <trkpt lat="42.91427" lon="2.27037">
        <ele>345.364</ele>
        <time>2011-10-15T12:04:51Z</time>
      </trkpt>
      <trkpt lat="42.9146" lon="2.2699">
        <ele>341.155</ele>
        <time>2011-10-15T12:04:56Z</time>
      </trkpt>
      <trkpt lat="42.91474" lon="2.2697">
        <ele>338.565</ele>
        <time>2011-10-15T12:04:59Z</time>
      </trkpt>
      <trkpt lat="42.91497" lon="2.26969">
        <ele>336.56</ele>
        <time>2011-10-15T12:05:02Z</time>
      </trkpt>
      <trkpt lat="42.91522" lon="2.2696">
        <ele>335.15</ele>
        <time>2011-10-15T12:05:05Z</time>
      </trkpt>
      <trkpt lat="42.91549" lon="2.26957">
        <ele>334.788</ele>
        <time>2011-10-15T12:05:08Z</time>
      </trkpt>
      <trkpt lat="42.91594" lon="2.26955">
        <ele>333.019</ele>
        <time>2011-10-15T12:05:13Z</time>
      </trkpt>
      <trkpt lat="42.91658" lon="2.26959">
        <ele>330.786</ele>
        <time>2011-10-15T12:05:20Z</time>
      </trkpt>
      <trkpt lat="42.91676" lon="2.26961">
        <ele>330.021</ele>
        <time>2011-10-15T12:05:22Z</time>
      </trkpt>
      <trkpt lat="42.91701" lon="2.26966">
        <ele>329.884</ele>
        <time>2011-10-15T12:05:25Z</time>
      </trkpt>
      <trkpt lat="42.91745" lon="2.26968">
        <ele>328.768</ele>
        <time>2011-10-15T12:05:30Z</time>
      </trkpt>
      <trkpt lat="42.91778" lon="2.26952">
        <ele>326.727</ele>
        <time>2011-10-15T12:05:34Z</time>
      </trkpt>
      <trkpt lat="42.91829" lon="2.26898">
        <ele>324.692</ele>
        <time>2011-10-15T12:05:41Z</time>
      </trkpt>
      <trkpt lat="42.91837" lon="2.26891">
        <ele>324.379</ele>
        <time>2011-10-15T12:05:42Z</time>
      </trkpt>
      <trkpt lat="42.91859" lon="2.26853">
        <ele>323.385</ele>
        <time>2011-10-15T12:05:46Z</time>
      </trkpt>
      <trkpt lat="42.91869" lon="2.26833">
        <ele>322.941</ele>
        <time>2011-10-15T12:05:48Z</time>
      </trkpt>
      <trkpt lat="42.91906" lon="2.2678">
        <ele>321.344</ele>
        <time>2011-10-15T12:05:54Z</time>
      </trkpt>
      <trkpt lat="42.91913" lon="2.26772">
        <ele>321.085</ele>
        <time>2011-10-15T12:05:55Z</time>
      </trkpt>
      <trkpt lat="42.91942" lon="2.26753">
        <ele>320.753</ele>
        <time>2011-10-15T12:05:59Z</time>
      </trkpt>
      <trkpt lat="42.91986" lon="2.26731">
        <ele>320.887</ele>
        <time>2011-10-15T12:06:05Z</time>
      </trkpt>
      <trkpt lat="42.92018" lon="2.267">
        <ele>321.004</ele>
        <time>2011-10-15T12:06:10Z</time>
      </trkpt>
      <trkpt lat="42.92065" lon="2.26656">
        <ele>321.454</ele>
        <time>2011-10-15T12:06:18Z</time>
      </trkpt>
      <trkpt lat="42.92084" lon="2.26638">
        <ele>322.08</ele>
        <time>2011-10-15T12:06:22Z</time>
      </trkpt>
      <trkpt lat="42.92092" lon="2.2663">
        <ele>322.773</ele>
        <time>2011-10-15T12:06:24Z</time>
      </trkpt>
      <trkpt lat="42.92116" lon="2.26602">
        <ele>325.319</ele>
        <time>2011-10-15T12:06:32Z</time>
      </trkpt>
      <trkpt lat="42.92142" lon="2.26576">
        <ele>327.357</ele>
        <time>2011-10-15T12:06:41Z</time>
      </trkpt>
      <trkpt lat="42.92164" lon="2.26555">
        <ele>330.896</ele>
        <time>2011-10-15T12:06:51Z</time>
      </trkpt>
      <trkpt lat="42.92186" lon="2.26536">
        <ele>333.746</ele>
        <time>2011-10-15T12:07:01Z</time>
      </trkpt>
      <trkpt lat="42.922" lon="2.26514">
        <ele>337.057</ele>
        <time>2011-10-15T12:07:10Z</time>
      </trkpt>
      <trkpt lat="42.9221" lon="2.2649">
        <ele>341.371</ele>
        <time>2011-10-15T12:07:21Z</time>
      </trkpt>
      <trkpt lat="42.9222" lon="2.26475">
        <ele>343.553</ele>
        <time>2011-10-15T12:07:29Z</time>
      </trkpt>
      <trkpt lat="42.92233" lon="2.26458">
        <ele>347.886</ele>
        <time>2011-10-15T12:07:39Z</time>
      </trkpt>
      <trkpt lat="42.92246" lon="2.26443">
        <ele>351.137</ele>
        <time>2011-10-15T12:07:49Z</time>
      </trkpt>
      <trkpt lat="42.92253" lon="2.26428">
        <ele>354.089</ele>
        <time>2011-10-15T12:07:56Z</time>
      </trkpt>
      <trkpt lat="42.92261" lon="2.26407">
        <ele>356.871</ele>
        <time>2011-10-15T12:08:05Z</time>
      </trkpt>
      <trkpt lat="42.9227" lon="2.26389">
        <ele>358.522</ele>
        <time>2011-10-15T12:08:13Z</time>
      </trkpt>
      <trkpt lat="42.92277" lon="2.26372">
        <ele>360.637</ele>
        <time>2011-10-15T12:08:20Z</time>
      </trkpt>
      <trkpt lat="42.92286" lon="2.26347">
        <ele>362.832</ele>
        <time>2011-10-15T12:08:30Z</time>
      </trkpt>
      <trkpt lat="42.92298" lon="2.26328">
        <ele>365.14</ele>
        <time>2011-10-15T12:08:39Z</time>
      </trkpt>
      <trkpt lat="42.92314" lon="2.26308">
        <ele>367.406</ele>
        <time>2011-10-15T12:08:49Z</time>
      </trkpt>
      <trkpt lat="42.92327" lon="2.26305">
        <ele>369.569</ele>
        <time>2011-10-15T12:08:56Z</time>
      </trkpt>
      <trkpt lat="42.92344" lon="2.26311">
        <ele>371.478</ele>
        <time>2011-10-15T12:09:05Z</time>
      </trkpt>
      <trkpt lat="42.92359" lon="2.26318">
        <ele>374.161</ele>
        <time>2011-10-15T12:09:14Z</time>
      </trkpt>
      <trkpt lat="42.9237" lon="2.26315">
        <ele>376.429</ele>
        <time>2011-10-15T12:09:21Z</time>
      </trkpt>
      <trkpt lat="42.92381" lon="2.26312">
        <ele>379.134</ele>
        <time>2011-10-15T12:09:28Z</time>
      </trkpt>
      <trkpt lat="42.92393" lon="2.26312">
        <ele>381.536</ele>
        <time>2011-10-15T12:09:36Z</time>
      </trkpt>
      <trkpt lat="42.92404" lon="2.26313">
        <ele>383.908</ele>
        <time>2011-10-15T12:09:43Z</time>
      </trkpt>
      <trkpt lat="42.92418" lon="2.26316">
        <ele>386.86</ele>
        <time>2011-10-15T12:09:52Z</time>
      </trkpt>
      <trkpt lat="42.9243" lon="2.26319">
        <ele>388.964</ele>
        <time>2011-10-15T12:10:00Z</time>
      </trkpt>
      <trkpt lat="42.92448" lon="2.26327">
        <ele>391.807</ele>
        <time>2011-10-15T12:10:10Z</time>
      </trkpt>
      <trkpt lat="42.9246" lon="2.26337">
        <ele>393.98</ele>
        <time>2011-10-15T12:10:18Z</time>
      </trkpt>
      <trkpt lat="42.92472" lon="2.26348">
        <ele>395.305</ele>
        <time>2011-10-15T12:10:26Z</time>
      </trkpt>
      <trkpt lat="42.92484" lon="2.26359">
        <ele>397.161</ele>
        <time>2011-10-15T12:10:33Z</time>
      </trkpt>
      <trkpt lat="42.92497" lon="2.26373">
        <ele>399.582</ele>
        <time>2011-10-15T12:10:42Z</time>
      </trkpt>
      <trkpt lat="42.92512" lon="2.26386">
        <ele>401.438</ele>
        <time>2011-10-15T12:10:51Z</time>
      </trkpt>
      <trkpt lat="42.92527" lon="2.26393">
        <ele>403.847</ele>
        <time>2011-10-15T12:11:01Z</time>
      </trkpt>
      <trkpt lat="42.9254" lon="2.26399">
        <ele>405.202</ele>
        <time>2011-10-15T12:11:10Z</time>
      </trkpt>
      <trkpt lat="42.92553" lon="2.26404">
        <ele>407.479</ele>
        <time>2011-10-15T12:11:18Z</time>
      </trkpt>
      <trkpt lat="42.92563" lon="2.26412">
        <ele>409.606</ele>
        <time>2011-10-15T12:11:25Z</time>
      </trkpt>
      <trkpt lat="42.92574" lon="2.2642">
        <ele>412.916</ele>
        <time>2011-10-15T12:11:33Z</time>
      </trkpt>
      <trkpt lat="42.92576" lon="2.26421">
        <ele>413.147</ele>
        <time>2011-10-15T12:11:34Z</time>
      </trkpt>
      <trkpt lat="42.92582" lon="2.26427">
        <ele>413.312</ele>
        <time>2011-10-15T12:11:40Z</time>
      </trkpt>
      <trkpt lat="42.92585" lon="2.2643">
        <ele>413.323</ele>
        <time>2011-10-15T12:11:45Z</time>
      </trkpt>
      <trkpt lat="42.9259" lon="2.26432">
        <ele>415.118</ele>
        <time>2011-10-15T12:11:52Z</time>
      </trkpt>
      <trkpt lat="42.92595" lon="2.26434">
        <ele>416.767</ele>
        <time>2011-10-15T12:12:00Z</time>
      </trkpt>
      <trkpt lat="42.926" lon="2.26436">
        <ele>418.122</ele>
        <time>2011-10-15T12:12:07Z</time>
      </trkpt>
      <trkpt lat="42.92603" lon="2.26437">
        <ele>419.159</ele>
        <time>2011-10-15T12:12:12Z</time>
      </trkpt>
      <trkpt lat="42.9261" lon="2.26437">
        <ele>421.227</ele>
        <time>2011-10-15T12:12:21Z</time>
      </trkpt>
      <trkpt lat="42.92615" lon="2.26439">
        <ele>422.555</ele>
        <time>2011-10-15T12:12:27Z</time>
      </trkpt>
      <trkpt lat="42.92619" lon="2.26438">
        <ele>424.16</ele>
        <time>2011-10-15T12:12:32Z</time>
      </trkpt>
      <trkpt lat="42.92619" lon="2.26428">
        <ele>425.07</ele>
        <time>2011-10-15T12:12:40Z</time>
      </trkpt>
      <trkpt lat="42.92619" lon="2.26422">
        <ele>425.986</ele>
        <time>2011-10-15T12:12:46Z</time>
      </trkpt>
      <trkpt lat="42.92619" lon="2.26412">
        <ele>426.334</ele>
        <time>2011-10-15T12:12:51Z</time>
      </trkpt>
      <trkpt lat="42.92613" lon="2.26386">
        <ele>428.232</ele>
        <time>2011-10-15T12:13:01Z</time>
      </trkpt>
      <trkpt lat="42.92615" lon="2.26371">
        <ele>429.61</ele>
        <time>2011-10-15T12:13:07Z</time>
      </trkpt>
      <trkpt lat="42.9262" lon="2.26361">
        <ele>431.086</ele>
        <time>2011-10-15T12:13:11Z</time>
      </trkpt>
      <trkpt lat="42.92624" lon="2.26367">
        <ele>432.203</ele>
        <time>2011-10-15T12:13:15Z</time>
      </trkpt>
      <trkpt lat="42.92626" lon="2.26378">
        <ele>432.677</ele>
        <time>2011-10-15T12:13:19Z</time>
      </trkpt>
      <trkpt lat="42.92637" lon="2.26396">
        <ele>434.179</ele>
        <time>2011-10-15T12:13:26Z</time>
      </trkpt>
      <trkpt lat="42.9265" lon="2.26418">
        <ele>435.558</ele>
        <time>2011-10-15T12:13:34Z</time>
      </trkpt>
      <trkpt lat="42.92666" lon="2.26432">
        <ele>437.138</ele>
        <time>2011-10-15T12:13:42Z</time>
      </trkpt>
      <trkpt lat="42.92683" lon="2.26445">
        <ele>438.62</ele>
        <time>2011-10-15T12:13:50Z</time>
      </trkpt>
      <trkpt lat="42.92702" lon="2.26463">
        <ele>441.195</ele>
        <time>2011-10-15T12:13:59Z</time>
      </trkpt>
      <trkpt lat="42.9271" lon="2.26485">
        <ele>442.433</ele>
        <time>2011-10-15T12:14:06Z</time>
      </trkpt>
      <trkpt lat="42.92714" lon="2.2651">
        <ele>443.462</ele>
        <time>2011-10-15T12:14:13Z</time>
      </trkpt>
      <trkpt lat="42.92716" lon="2.2654">
        <ele>444.851</ele>
        <time>2011-10-15T12:14:20Z</time>
      </trkpt>
      <trkpt lat="42.92724" lon="2.26569">
        <ele>446.047</ele>
        <time>2011-10-15T12:14:27Z</time>
      </trkpt>
      <trkpt lat="42.92736" lon="2.26575">
        <ele>446.79</ele>
        <time>2011-10-15T12:14:31Z</time>
      </trkpt>
      <trkpt lat="42.92748" lon="2.26567">
        <ele>447.615</ele>
        <time>2011-10-15T12:14:35Z</time>
      </trkpt>
      <trkpt lat="42.92757" lon="2.26553">
        <ele>448.487</ele>
        <time>2011-10-15T12:14:39Z</time>
      </trkpt>
      <trkpt lat="42.92758" lon="2.26534">
        <ele>449.4</ele>
        <time>2011-10-15T12:14:43Z</time>
      </trkpt>
      <trkpt lat="42.92746" lon="2.26515">
        <ele>450.542</ele>
        <time>2011-10-15T12:14:48Z</time>
      </trkpt>
      <trkpt lat="42.92734" lon="2.26496">
        <ele>451.038</ele>
        <time>2011-10-15T12:14:53Z</time>
      </trkpt>
      <trkpt lat="42.92735" lon="2.26473">
        <ele>451.359</ele>
        <time>2011-10-15T12:14:58Z</time>
      </trkpt>
      <trkpt lat="42.92747" lon="2.26446">
        <ele>453.016</ele>
        <time>2011-10-15T12:15:05Z</time>
      </trkpt>
      <trkpt lat="42.92756" lon="2.26419">
        <ele>455.268</ele>
        <time>2011-10-15T12:15:12Z</time>
      </trkpt>
      <trkpt lat="42.92766" lon="2.26392">
        <ele>455.393</ele>
        <time>2011-10-15T12:15:19Z</time>
      </trkpt>
      <trkpt lat="42.92777" lon="2.26361">
        <ele>456.459</ele>
        <time>2011-10-15T12:15:26Z</time>
      </trkpt>
      <trkpt lat="42.92774" lon="2.26338">
        <ele>457.975</ele>
        <time>2011-10-15T12:15:31Z</time>
      </trkpt>
      <trkpt lat="42.92775" lon="2.26311">
        <ele>459.072</ele>
        <time>2011-10-15T12:15:37Z</time>
      </trkpt>
      <trkpt lat="42.92775" lon="2.26303">
        <ele>459.37</ele>
        <time>2011-10-15T12:15:39Z</time>
      </trkpt>
      <trkpt lat="42.92767" lon="2.26293">
        <ele>460.58</ele>
        <time>2011-10-15T12:15:43Z</time>
      </trkpt>
      <trkpt lat="42.92755" lon="2.2628">
        <ele>463.07</ele>
        <time>2011-10-15T12:15:50Z</time>
      </trkpt>
      <trkpt lat="42.92747" lon="2.26266">
        <ele>464.36</ele>
        <time>2011-10-15T12:15:55Z</time>
      </trkpt>
      <trkpt lat="42.92743" lon="2.2625">
        <ele>465.11</ele>
        <time>2011-10-15T12:16:00Z</time>
      </trkpt>
      <trkpt lat="42.92743" lon="2.26249">
        <ele>465.284</ele>
        <time>2011-10-15T12:16:01Z</time>
      </trkpt>
      <trkpt lat="42.92745" lon="2.26247">
        <ele>465.983</ele>
        <time>2011-10-15T12:16:08Z</time>
      </trkpt>
      <trkpt lat="42.92741" lon="2.26248">
        <ele>467.014</ele>
        <time>2011-10-15T12:21:11Z</time>
      </trkpt>
      <trkpt lat="42.9274" lon="2.26249">
        <ele>466.796</ele>
        <time>2011-10-15T12:21:27Z</time>
      </trkpt>
      <trkpt lat="42.92738" lon="2.26245">
        <ele>466.787</ele>
        <time>2011-10-15T12:21:31Z</time>
      </trkpt>
      <trkpt lat="42.92739" lon="2.26237">
        <ele>467.573</ele>
        <time>2011-10-15T12:21:35Z</time>
      </trkpt>
      <trkpt lat="42.92748" lon="2.26229">
        <ele>467.117</ele>
        <time>2011-10-15T12:21:39Z</time>
      </trkpt>
      <trkpt lat="42.92763" lon="2.26213">
        <ele>466.741</ele>
        <time>2011-10-15T12:21:44Z</time>
      </trkpt>
      <trkpt lat="42.92773" lon="2.26201">
        <ele>466.682</ele>
        <time>2011-10-15T12:21:47Z</time>
      </trkpt>
      <trkpt lat="42.92786" lon="2.26191">
        <ele>466.402</ele>
        <time>2011-10-15T12:21:50Z</time>
      </trkpt>
      <trkpt lat="42.92808" lon="2.26185">
        <ele>463.519</ele>
        <time>2011-10-15T12:21:55Z</time>
      </trkpt>
      <trkpt lat="42.92818" lon="2.26188">
        <ele>460.429</ele>
        <time>2011-10-15T12:21:58Z</time>
      </trkpt>
      <trkpt lat="42.9284" lon="2.26206">
        <ele>454.744</ele>
        <time>2011-10-15T12:22:04Z</time>
      </trkpt>
      <trkpt lat="42.92851" lon="2.26223">
        <ele>451.807</ele>
        <time>2011-10-15T12:22:08Z</time>
      </trkpt>
      <trkpt lat="42.92854" lon="2.26233">
        <ele>449.766</ele>
        <time>2011-10-15T12:22:10Z</time>
      </trkpt>
      <trkpt lat="42.92861" lon="2.26227">
        <ele>446.787</ele>
        <time>2011-10-15T12:22:14Z</time>
      </trkpt>
      <trkpt lat="42.92862" lon="2.26224">
        <ele>446.596</ele>
        <time>2011-10-15T12:22:15Z</time>
      </trkpt>
      <trkpt lat="42.92875" lon="2.26194">
        <ele>445.715</ele>
        <time>2011-10-15T12:22:21Z</time>
      </trkpt>
      <trkpt lat="42.92886" lon="2.26145">
        <ele>444.564</ele>
        <time>2011-10-15T12:22:28Z</time>
      </trkpt>
      <trkpt lat="42.92894" lon="2.26102">
        <ele>441.493</ele>
        <time>2011-10-15T12:22:33Z</time>
      </trkpt>
      <trkpt lat="42.92907" lon="2.2606">
        <ele>437.642</ele>
        <time>2011-10-15T12:22:37Z</time>
      </trkpt>
      <trkpt lat="42.92927" lon="2.25989">
        <ele>430.82</ele>
        <time>2011-10-15T12:22:43Z</time>
      </trkpt>
      <trkpt lat="42.92941" lon="2.25947">
        <ele>426.507</ele>
        <time>2011-10-15T12:22:47Z</time>
      </trkpt>
      <trkpt lat="42.9296" lon="2.25918">
        <ele>421.537</ele>
        <time>2011-10-15T12:22:51Z</time>
      </trkpt>
      <trkpt lat="42.9299" lon="2.25879">
        <ele>415.318</ele>
        <time>2011-10-15T12:22:57Z</time>
      </trkpt>
      <trkpt lat="42.93" lon="2.25864">
        <ele>414.076</ele>
        <time>2011-10-15T12:22:59Z</time>
      </trkpt>
      <trkpt lat="42.9302" lon="2.25832">
        <ele>408.717</ele>
        <time>2011-10-15T12:23:03Z</time>
      </trkpt>
      <trkpt lat="42.93038" lon="2.25808">
        <ele>403.751</ele>
        <time>2011-10-15T12:23:07Z</time>
      </trkpt>
      <trkpt lat="42.93041" lon="2.25801">
        <ele>402.695</ele>
        <time>2011-10-15T12:23:08Z</time>
      </trkpt>
      <trkpt lat="42.9306" lon="2.25753">
        <ele>398.259</ele>
        <time>2011-10-15T12:23:13Z</time>
      </trkpt>
      <trkpt lat="42.93084" lon="2.25684">
        <ele>393.448</ele>
        <time>2011-10-15T12:23:19Z</time>
      </trkpt>
      <trkpt lat="42.93086" lon="2.25673">
        <ele>392.679</ele>
        <time>2011-10-15T12:23:20Z</time>
      </trkpt>
      <trkpt lat="42.93103" lon="2.25647">
        <ele>389.574</ele>
        <time>2011-10-15T12:23:24Z</time>
      </trkpt>
      <trkpt lat="42.93111" lon="2.25633">
        <ele>387.33</ele>
        <time>2011-10-15T12:23:26Z</time>
      </trkpt>
      <trkpt lat="42.93119" lon="2.25605">
        <ele>384.444</ele>
        <time>2011-10-15T12:23:29Z</time>
      </trkpt>
      <trkpt lat="42.93122" lon="2.25561">
        <ele>380.866</ele>
        <time>2011-10-15T12:23:33Z</time>
      </trkpt>
      <trkpt lat="42.93118" lon="2.25522">
        <ele>377.634</ele>
        <time>2011-10-15T12:23:37Z</time>
      </trkpt>
      <trkpt lat="42.93111" lon="2.25475">
        <ele>373.899</ele>
        <time>2011-10-15T12:23:42Z</time>
      </trkpt>
      <trkpt lat="42.93101" lon="2.25447">
        <ele>371.833</ele>
        <time>2011-10-15T12:23:45Z</time>
      </trkpt>
      <trkpt lat="42.93079" lon="2.25423">
        <ele>371.121</ele>
        <time>2011-10-15T12:23:49Z</time>
      </trkpt>
      <trkpt lat="42.93067" lon="2.25414">
        <ele>370.635</ele>
        <time>2011-10-15T12:23:51Z</time>
      </trkpt>
      <trkpt lat="42.93054" lon="2.25404">
        <ele>369.838</ele>
        <time>2011-10-15T12:23:53Z</time>
      </trkpt>
      <trkpt lat="42.93039" lon="2.25388">
        <ele>368.587</ele>
        <time>2011-10-15T12:23:56Z</time>
      </trkpt>
      <trkpt lat="42.93036" lon="2.25365">
        <ele>369.91</ele>
        <time>2011-10-15T12:24:00Z</time>
      </trkpt>
      <trkpt lat="42.93051" lon="2.25314">
        <ele>368.459</ele>
        <time>2011-10-15T12:24:06Z</time>
      </trkpt>
      <trkpt lat="42.93054" lon="2.25304">
        <ele>367.994</ele>
        <time>2011-10-15T12:24:07Z</time>
      </trkpt>
      <trkpt lat="42.93059" lon="2.25255">
        <ele>364.372</ele>
        <time>2011-10-15T12:24:12Z</time>
      </trkpt>
      <trkpt lat="42.93055" lon="2.25213">
        <ele>362.263</ele>
        <time>2011-10-15T12:24:16Z</time>
      </trkpt>
      <trkpt lat="42.93054" lon="2.25193">
        <ele>361.087</ele>
        <time>2011-10-15T12:24:18Z</time>
      </trkpt>
      <trkpt lat="42.93054" lon="2.25159">
        <ele>358.677</ele>
        <time>2011-10-15T12:24:22Z</time>
      </trkpt>
      <trkpt lat="42.93055" lon="2.25137">
        <ele>356.927</ele>
        <time>2011-10-15T12:24:25Z</time>
      </trkpt>
      <trkpt lat="42.93056" lon="2.25118">
        <ele>354.705</ele>
        <time>2011-10-15T12:24:28Z</time>
      </trkpt>
      <trkpt lat="42.93063" lon="2.2509">
        <ele>351.079</ele>
        <time>2011-10-15T12:24:32Z</time>
      </trkpt>
      <trkpt lat="42.93062" lon="2.25057">
        <ele>347.928</ele>
        <time>2011-10-15T12:24:36Z</time>
      </trkpt>
      <trkpt lat="42.93067" lon="2.25008">
        <ele>344.365</ele>
        <time>2011-10-15T12:24:42Z</time>
      </trkpt>
      <trkpt lat="42.93074" lon="2.24981">
        <ele>339.639</ele>
        <time>2011-10-15T12:24:47Z</time>
      </trkpt>
      <trkpt lat="42.93075" lon="2.24976">
        <ele>338.725</ele>
        <time>2011-10-15T12:24:48Z</time>
      </trkpt>
      <trkpt lat="42.93078" lon="2.24948">
        <ele>335.841</ele>
        <time>2011-10-15T12:24:52Z</time>
      </trkpt>
      <trkpt lat="42.93079" lon="2.24907">
        <ele>330.544</ele>
        <time>2011-10-15T12:24:57Z</time>
      </trkpt>
      <trkpt lat="42.93089" lon="2.24868">
        <ele>325.902</ele>
        <time>2011-10-15T12:25:02Z</time>
      </trkpt>
      <trkpt lat="42.93091" lon="2.24862">
        <ele>324.783</ele>
        <time>2011-10-15T12:25:03Z</time>
      </trkpt>
      <trkpt lat="42.93105" lon="2.24811">
        <ele>317.956</ele>
        <time>2011-10-15T12:25:10Z</time>
      </trkpt>
      <trkpt lat="42.93109" lon="2.24786">
        <ele>313.993</ele>
        <time>2011-10-15T12:25:14Z</time>
      </trkpt>
      <trkpt lat="42.9311" lon="2.2478">
        <ele>313.441</ele>
        <time>2011-10-15T12:25:15Z</time>
      </trkpt>
      <trkpt lat="42.93112" lon="2.24766">
        <ele>312.277</ele>
        <time>2011-10-15T12:25:17Z</time>
      </trkpt>
      <trkpt lat="42.93122" lon="2.24731">
        <ele>308.701</ele>
        <time>2011-10-15T12:25:23Z</time>
      </trkpt>
      <trkpt lat="42.93123" lon="2.24718">
        <ele>307.872</ele>
        <time>2011-10-15T12:25:25Z</time>
      </trkpt>
      <trkpt lat="42.93121" lon="2.24682">
        <ele>305.392</ele>
        <time>2011-10-15T12:25:30Z</time>
      </trkpt>
      <trkpt lat="42.93118" lon="2.2465">
        <ele>302.858</ele>
        <time>2011-10-15T12:25:34Z</time>
      </trkpt>
      <trkpt lat="42.93118" lon="2.24609">
        <ele>300.295</ele>
        <time>2011-10-15T12:25:39Z</time>
      </trkpt>
      <trkpt lat="42.93114" lon="2.24579">
        <ele>298.273</ele>
        <time>2011-10-15T12:25:43Z</time>
      </trkpt>
      <trkpt lat="42.93107" lon="2.24536">
        <ele>295.467</ele>
        <time>2011-10-15T12:25:49Z</time>
      </trkpt>
      <trkpt lat="42.93107" lon="2.24523">
        <ele>294.176</ele>
        <time>2011-10-15T12:25:51Z</time>
      </trkpt>
      <trkpt lat="42.93108" lon="2.24497">
        <ele>291.786</ele>
        <time>2011-10-15T12:25:54Z</time>
      </trkpt>
      <trkpt lat="42.93107" lon="2.24463">
        <ele>290.041</ele>
        <time>2011-10-15T12:25:58Z</time>
      </trkpt>
      <trkpt lat="42.93105" lon="2.2444">
        <ele>287.481</ele>
        <time>2011-10-15T12:26:02Z</time>
      </trkpt>
      <trkpt lat="42.93102" lon="2.24421">
        <ele>286.476</ele>
        <time>2011-10-15T12:26:05Z</time>
      </trkpt>
      <trkpt lat="42.93102" lon="2.24407">
        <ele>285.659</ele>
        <time>2011-10-15T12:26:07Z</time>
      </trkpt>
      <trkpt lat="42.93102" lon="2.24366">
        <ele>282.34</ele>
        <time>2011-10-15T12:26:12Z</time>
      </trkpt>
      <trkpt lat="42.93098" lon="2.24321">
        <ele>279.277</ele>
        <time>2011-10-15T12:26:17Z</time>
      </trkpt>
      <trkpt lat="42.93099" lon="2.24313">
        <ele>278.562</ele>
        <time>2011-10-15T12:26:18Z</time>
      </trkpt>
      <trkpt lat="42.93103" lon="2.24284">
        <ele>275.937</ele>
        <time>2011-10-15T12:26:22Z</time>
      </trkpt>
      <trkpt lat="42.93104" lon="2.24258">
        <ele>271.172</ele>
        <time>2011-10-15T12:26:27Z</time>
      </trkpt>
      <trkpt lat="42.93109" lon="2.24233">
        <ele>267.447</ele>
        <time>2011-10-15T12:26:32Z</time>
      </trkpt>
      <trkpt lat="42.9311" lon="2.24214">
        <ele>264.32</ele>
        <time>2011-10-15T12:26:36Z</time>
      </trkpt>
      <trkpt lat="42.93112" lon="2.24205">
        <ele>262.066</ele>
        <time>2011-10-15T12:26:39Z</time>
      </trkpt>
      <trkpt lat="42.9311" lon="2.24187">
        <ele>258.579</ele>
        <time>2011-10-15T12:26:43Z</time>
      </trkpt>
      <trkpt lat="42.93112" lon="2.24176">
        <ele>257.174</ele>
        <time>2011-10-15T12:26:45Z</time>
      </trkpt>
      <trkpt lat="42.93121" lon="2.24143">
        <ele>252.243</ele>
        <time>2011-10-15T12:26:51Z</time>
      </trkpt>
      <trkpt lat="42.93125" lon="2.24111">
        <ele>246.387</ele>
        <time>2011-10-15T12:26:56Z</time>
      </trkpt>
      <trkpt lat="42.93122" lon="2.24075">
        <ele>241.547</ele>
        <time>2011-10-15T12:27:02Z</time>
      </trkpt>
      <trkpt lat="42.93124" lon="2.24054">
        <ele>237.597</ele>
        <time>2011-10-15T12:27:07Z</time>
      </trkpt>
      <trkpt lat="42.93116" lon="2.2401">
        <ele>234.257</ele>
        <time>2011-10-15T12:27:12Z</time>
      </trkpt>
      <trkpt lat="42.93115" lon="2.24001">
        <ele>233.287</ele>
        <time>2011-10-15T12:27:13Z</time>
      </trkpt>
      <trkpt lat="42.93108" lon="2.2396">
        <ele>229.469</ele>
        <time>2011-10-15T12:27:17Z</time>
      </trkpt>
      <trkpt lat="42.93101" lon="2.23899">
        <ele>223.123</ele>
        <time>2011-10-15T12:27:23Z</time>
      </trkpt>
      <trkpt lat="42.93095" lon="2.23857">
        <ele>218.545</ele>
        <time>2011-10-15T12:27:27Z</time>
      </trkpt>
      <trkpt lat="42.93092" lon="2.23809">
        <ele>211.964</ele>
        <time>2011-10-15T12:27:32Z</time>
      </trkpt>
      <trkpt lat="42.9309" lon="2.23777">
        <ele>206.388</ele>
        <time>2011-10-15T12:27:36Z</time>
      </trkpt>
      <trkpt lat="42.93093" lon="2.23755">
        <ele>203.407</ele>
        <time>2011-10-15T12:27:40Z</time>
      </trkpt>
      <trkpt lat="42.93087" lon="2.23738">
        <ele>200.998</ele>
        <time>2011-10-15T12:27:43Z</time>
      </trkpt>
      <trkpt lat="42.93087" lon="2.23729">
        <ele>199.231</ele>
        <time>2011-10-15T12:27:46Z</time>
      </trkpt>
      <trkpt lat="42.93088" lon="2.23729">
        <ele>197.931</ele>
        <time>2011-10-15T12:27:49Z</time>
      </trkpt>
      <trkpt lat="42.93088" lon="2.23728">
        <ele>197.817</ele>
        <time>2011-10-15T12:27:55Z</time>
      </trkpt>
      <trkpt lat="42.93088" lon="2.23728">
        <ele>198.269</ele>
        <time>2011-10-15T12:28:08Z</time>
      </trkpt>
      <trkpt lat="42.93089" lon="2.23721">
        <ele>198.53</ele>
        <time>2011-10-15T12:28:14Z</time>
      </trkpt>
      <trkpt lat="42.93091" lon="2.23717">
        <ele>200.233</ele>
        <time>2011-10-15T12:28:21Z</time>
      </trkpt>
      <trkpt lat="42.93092" lon="2.23715">
        <ele>200.475</ele>
        <time>2011-10-15T12:28:23Z</time>
      </trkpt>
      <trkpt lat="42.93096" lon="2.23713">
        <ele>201.6</ele>
        <time>2011-10-15T12:28:30Z</time>
      </trkpt>
      <trkpt lat="42.93102" lon="2.23703">
        <ele>204.447</ele>
        <time>2011-10-15T12:28:40Z</time>
      </trkpt>
      <trkpt lat="42.93103" lon="2.23699">
        <ele>206.434</ele>
        <time>2011-10-15T12:28:47Z</time>
      </trkpt>
      <trkpt lat="42.93106" lon="2.23693">
        <ele>208.315</ele>
        <time>2011-10-15T12:28:54Z</time>
      </trkpt>
      <trkpt lat="42.93106" lon="2.23693">
        <ele>208.555</ele>
        <time>2011-10-15T12:28:56Z</time>
      </trkpt>
      <trkpt lat="42.93113" lon="2.23685">
        <ele>208.495</ele>
        <time>2011-10-15T12:29:02Z</time>
      </trkpt>
      <trkpt lat="42.93114" lon="2.23683">
        <ele>208.687</ele>
        <time>2011-10-15T12:29:03Z</time>
      </trkpt>
      <trkpt lat="42.93122" lon="2.23672">
        <ele>210.244</ele>
        <time>2011-10-15T12:29:09Z</time>
      </trkpt>
      <trkpt lat="42.93139" lon="2.23664">
        <ele>209.843</ele>
        <time>2011-10-15T12:29:15Z</time>
      </trkpt>
      <trkpt lat="42.93153" lon="2.23657">
        <ele>208.944</ele>
        <time>2011-10-15T12:29:19Z</time>
      </trkpt>
      <trkpt lat="42.93171" lon="2.23645">
        <ele>207.825</ele>
        <time>2011-10-15T12:29:24Z</time>
      </trkpt>
      <trkpt lat="42.93172" lon="2.2363">
        <ele>208.125</ele>
        <time>2011-10-15T12:29:28Z</time>
      </trkpt>
      <trkpt lat="42.93169" lon="2.23625">
        <ele>208.467</ele>
        <time>2011-10-15T12:29:30Z</time>
      </trkpt>
      <trkpt lat="42.9316" lon="2.23612">
        <ele>210.806</ele>
        <time>2011-10-15T12:29:36Z</time>
      </trkpt>
      <trkpt lat="42.93147" lon="2.23607">
        <ele>212.422</ele>
        <time>2011-10-15T12:29:43Z</time>
      </trkpt>
      <trkpt lat="42.93144" lon="2.23601">
        <ele>213.344</ele>
        <time>2011-10-15T12:29:47Z</time>
      </trkpt>
      <trkpt lat="42.93146" lon="2.23583">
        <ele>215.973</ele>
        <time>2011-10-15T12:29:55Z</time>
      </trkpt>
      <trkpt lat="42.93154" lon="2.23573">
        <ele>216.248</ele>
        <time>2011-10-15T12:29:59Z</time>
      </trkpt>
      <trkpt lat="42.93166" lon="2.2355">
        <ele>215.767</ele>
        <time>2011-10-15T12:30:05Z</time>
      </trkpt>
      <trkpt lat="42.93179" lon="2.23536">
        <ele>216.211</ele>
        <time>2011-10-15T12:30:10Z</time>
      </trkpt>
      <trkpt lat="42.93188" lon="2.23526">
        <ele>217.824</ele>
        <time>2011-10-15T12:30:15Z</time>
      </trkpt>
      <trkpt lat="42.93197" lon="2.23506">
        <ele>220.293</ele>
        <time>2011-10-15T12:30:22Z</time>
      </trkpt>
      <trkpt lat="42.93198" lon="2.23481">
        <ele>222.579</ele>
        <time>2011-10-15T12:30:30Z</time>
      </trkpt>
      <trkpt lat="42.93193" lon="2.23454">
        <ele>225.687</ele>
        <time>2011-10-15T12:30:39Z</time>
      </trkpt>
      <trkpt lat="42.93193" lon="2.23435">
        <ele>226.323</ele>
        <time>2011-10-15T12:30:45Z</time>
      </trkpt>
      <trkpt lat="42.93196" lon="2.23422">
        <ele>225.931</ele>
        <time>2011-10-15T12:30:48Z</time>
      </trkpt>
      <trkpt lat="42.93202" lon="2.23413">
        <ele>225.489</ele>
        <time>2011-10-15T12:30:50Z</time>
      </trkpt>
      <trkpt lat="42.93204" lon="2.23386">
        <ele>223.828</ele>
        <time>2011-10-15T12:30:54Z</time>
      </trkpt>
      <trkpt lat="42.93203" lon="2.23379">
        <ele>223.609</ele>
        <time>2011-10-15T12:30:55Z</time>
      </trkpt>
      <trkpt lat="42.93188" lon="2.23329">
        <ele>221.417</ele>
        <time>2011-10-15T12:31:02Z</time>
      </trkpt>
      <trkpt lat="42.93175" lon="2.23279">
        <ele>219.499</ele>
        <time>2011-10-15T12:31:08Z</time>
      </trkpt>
      <trkpt lat="42.9316" lon="2.2321">
        <ele>217.623</ele>
        <time>2011-10-15T12:31:16Z</time>
      </trkpt>
      <trkpt lat="42.93147" lon="2.23171">
        <ele>216.589</ele>
        <time>2011-10-15T12:31:21Z</time>
      </trkpt>
      <trkpt lat="42.93131" lon="2.23128">
        <ele>217.633</ele>
        <time>2011-10-15T12:31:28Z</time>
      </trkpt>
      <trkpt lat="42.93118" lon="2.23101">
        <ele>218.727</ele>
        <time>2011-10-15T12:31:34Z</time>
      </trkpt>
      <trkpt lat="42.93117" lon="2.23099">
        <ele>218.999</ele>
        <time>2011-10-15T12:31:35Z</time>
      </trkpt>
      <trkpt lat="42.93113" lon="2.23101">
        <ele>219.407</ele>
        <time>2011-10-15T12:31:39Z</time>
      </trkpt>
      <trkpt lat="42.93118" lon="2.23116">
        <ele>220.028</ele>
        <time>2011-10-15T12:31:43Z</time>
      </trkpt>
      <trkpt lat="42.93119" lon="2.2312">
        <ele>220.332</ele>
        <time>2011-10-15T12:31:44Z</time>
      </trkpt>
      <trkpt lat="42.93123" lon="2.23155">
        <ele>221.791</ele>
        <time>2011-10-15T12:31:52Z</time>
      </trkpt>
      <trkpt lat="42.93128" lon="2.23185">
        <ele>223.162</ele>
        <time>2011-10-15T12:31:59Z</time>
      </trkpt>
      <trkpt lat="42.93133" lon="2.23218">
        <ele>224.961</ele>
        <time>2011-10-15T12:32:07Z</time>
      </trkpt>
      <trkpt lat="42.93137" lon="2.23256">
        <ele>226.895</ele>
        <time>2011-10-15T12:32:16Z</time>
      </trkpt>
      <trkpt lat="42.93141" lon="2.23291">
        <ele>229.903</ele>
        <time>2011-10-15T12:32:25Z</time>
      </trkpt>
      <trkpt lat="42.93148" lon="2.23319">
        <ele>231.665</ele>
        <time>2011-10-15T12:32:33Z</time>
      </trkpt>
      <trkpt lat="42.93154" lon="2.23341">
        <ele>233.041</ele>
        <time>2011-10-15T12:32:40Z</time>
      </trkpt>
      <trkpt lat="42.93159" lon="2.23373">
        <ele>235.63</ele>
        <time>2011-10-15T12:32:50Z</time>
      </trkpt>
      <trkpt lat="42.93159" lon="2.23413">
        <ele>238.672</ele>
        <time>2011-10-15T12:33:02Z</time>
      </trkpt>
      <trkpt lat="42.93158" lon="2.23442">
        <ele>240.922</ele>
        <time>2011-10-15T12:33:11Z</time>
      </trkpt>
      <trkpt lat="42.9315" lon="2.23461">
        <ele>242.654</ele>
        <time>2011-10-15T12:33:18Z</time>
      </trkpt>
      <trkpt lat="42.93139" lon="2.23463">
        <ele>243.148</ele>
        <time>2011-10-15T12:33:22Z</time>
      </trkpt>
      <trkpt lat="42.93129" lon="2.23459">
        <ele>242.751</ele>
        <time>2011-10-15T12:33:25Z</time>
      </trkpt>
      <trkpt lat="42.93111" lon="2.23456">
        <ele>242.212</ele>
        <time>2011-10-15T12:33:29Z</time>
      </trkpt>
      <trkpt lat="42.93081" lon="2.2347">
        <ele>240.394</ele>
        <time>2011-10-15T12:33:35Z</time>
      </trkpt>
      <trkpt lat="42.9307" lon="2.23478">
        <ele>238.931</ele>
        <time>2011-10-15T12:33:37Z</time>
      </trkpt>
      <trkpt lat="42.93059" lon="2.23483">
        <ele>238.167</ele>
        <time>2011-10-15T12:33:39Z</time>
      </trkpt>
      <trkpt lat="42.93042" lon="2.23486">
        <ele>238.163</ele>
        <time>2011-10-15T12:33:43Z</time>
      </trkpt>
      <trkpt lat="42.93009" lon="2.23489">
        <ele>241.521</ele>
        <time>2011-10-15T12:33:53Z</time>
      </trkpt>
      <trkpt lat="42.92986" lon="2.23506">
        <ele>243.319</ele>
        <time>2011-10-15T12:34:01Z</time>
      </trkpt>
      <trkpt lat="42.92971" lon="2.23518">
        <ele>244.678</ele>
        <time>2011-10-15T12:34:07Z</time>
      </trkpt>
      <trkpt lat="42.92954" lon="2.23522">
        <ele>247.172</ele>
        <time>2011-10-15T12:34:15Z</time>
      </trkpt>
      <trkpt lat="42.92932" lon="2.23523">
        <ele>250.352</ele>
        <time>2011-10-15T12:34:26Z</time>
      </trkpt>
      <trkpt lat="42.92914" lon="2.23524">
        <ele>253.728</ele>
        <time>2011-10-15T12:34:36Z</time>
      </trkpt>
      <trkpt lat="42.92898" lon="2.23528">
        <ele>256.731</ele>
        <time>2011-10-15T12:34:45Z</time>
      </trkpt>
      <trkpt lat="42.92882" lon="2.23529">
        <ele>258.404</ele>
        <time>2011-10-15T12:34:53Z</time>
      </trkpt>
      <trkpt lat="42.92863" lon="2.23533">
        <ele>260.768</ele>
        <time>2011-10-15T12:35:03Z</time>
      </trkpt>
      <trkpt lat="42.92847" lon="2.23539">
        <ele>263.43</ele>
        <time>2011-10-15T12:35:12Z</time>
      </trkpt>
      <trkpt lat="42.9283" lon="2.23546">
        <ele>266.18</ele>
        <time>2011-10-15T12:35:22Z</time>
      </trkpt>
      <trkpt lat="42.92816" lon="2.23558">
        <ele>268.805</ele>
        <time>2011-10-15T12:35:31Z</time>
      </trkpt>
      <trkpt lat="42.92806" lon="2.23568">
        <ele>270.433</ele>
        <time>2011-10-15T12:35:38Z</time>
      </trkpt>
      <trkpt lat="42.92795" lon="2.23582">
        <ele>270.943</ele>
        <time>2011-10-15T12:35:44Z</time>
      </trkpt>
      <trkpt lat="42.92776" lon="2.236">
        <ele>271.38</ele>
        <time>2011-10-15T12:35:53Z</time>
      </trkpt>
      <trkpt lat="42.92757" lon="2.23611">
        <ele>274.055</ele>
        <time>2011-10-15T12:36:03Z</time>
      </trkpt>
      <trkpt lat="42.92741" lon="2.23619">
        <ele>278.197</ele>
        <time>2011-10-15T12:36:13Z</time>
      </trkpt>
      <trkpt lat="42.92727" lon="2.23628">
        <ele>281.716</ele>
        <time>2011-10-15T12:36:23Z</time>
      </trkpt>
      <trkpt lat="42.92712" lon="2.23636">
        <ele>285.318</ele>
        <time>2011-10-15T12:36:34Z</time>
      </trkpt>
      <trkpt lat="42.92701" lon="2.23654">
        <ele>288.202</ele>
        <time>2011-10-15T12:36:44Z</time>
      </trkpt>
      <trkpt lat="42.92688" lon="2.23679">
        <ele>289.815</ele>
        <time>2011-10-15T12:36:55Z</time>
      </trkpt>
      <trkpt lat="42.92673" lon="2.23697">
        <ele>291.498</ele>
        <time>2011-10-15T12:37:05Z</time>
      </trkpt>
      <trkpt lat="42.92659" lon="2.23714">
        <ele>292.812</ele>
        <time>2011-10-15T12:37:13Z</time>
      </trkpt>
      <trkpt lat="42.92649" lon="2.2373">
        <ele>294.169</ele>
        <time>2011-10-15T12:37:20Z</time>
      </trkpt>
      <trkpt lat="42.92634" lon="2.23745">
        <ele>295.106</ele>
        <time>2011-10-15T12:37:27Z</time>
      </trkpt>
      <trkpt lat="42.92616" lon="2.23761">
        <ele>296.738</ele>
        <time>2011-10-15T12:37:35Z</time>
      </trkpt>
      <trkpt lat="42.92591" lon="2.23781">
        <ele>298.046</ele>
        <time>2011-10-15T12:37:45Z</time>
      </trkpt>
      <trkpt lat="42.9257" lon="2.23801">
        <ele>298.197</ele>
        <time>2011-10-15T12:37:53Z</time>
      </trkpt>
      <trkpt lat="42.92554" lon="2.23816">
        <ele>298.078</ele>
        <time>2011-10-15T12:37:59Z</time>
      </trkpt>
      <trkpt lat="42.92539" lon="2.23825">
        <ele>299.868</ele>
        <time>2011-10-15T12:38:05Z</time>
      </trkpt>
      <trkpt lat="42.92522" lon="2.23836">
        <ele>302.259</ele>
        <time>2011-10-15T12:38:13Z</time>
      </trkpt>
      <trkpt lat="42.92505" lon="2.23844">
        <ele>303.702</ele>
        <time>2011-10-15T12:38:20Z</time>
      </trkpt>
      <trkpt lat="42.92482" lon="2.23848">
        <ele>304.093</ele>
        <time>2011-10-15T12:38:27Z</time>
      </trkpt>
      <trkpt lat="42.92468" lon="2.23856">
        <ele>303.387</ele>
        <time>2011-10-15T12:38:31Z</time>
      </trkpt>
      <trkpt lat="42.92462" lon="2.23866">
        <ele>303.047</ele>
        <time>2011-10-15T12:38:34Z</time>
      </trkpt>
      <trkpt lat="42.92449" lon="2.23875">
        <ele>305.489</ele>
        <time>2011-10-15T12:38:42Z</time>
      </trkpt>
      <trkpt lat="42.92439" lon="2.23883">
        <ele>307.212</ele>
        <time>2011-10-15T12:38:48Z</time>
      </trkpt>
      <trkpt lat="42.9243" lon="2.23891">
        <ele>307.943</ele>
        <time>2011-10-15T12:38:53Z</time>
      </trkpt>
      <trkpt lat="42.92415" lon="2.23905">
        <ele>309.654</ele>
        <time>2011-10-15T12:39:02Z</time>
      </trkpt>
      <trkpt lat="42.92401" lon="2.23919">
        <ele>311.444</ele>
        <time>2011-10-15T12:39:10Z</time>
      </trkpt>
      <trkpt lat="42.92381" lon="2.23934">
        <ele>313.171</ele>
        <time>2011-10-15T12:39:21Z</time>
      </trkpt>
      <trkpt lat="42.92372" lon="2.23935">
        <ele>313.606</ele>
        <time>2011-10-15T12:39:26Z</time>
      </trkpt>
      <trkpt lat="42.92354" lon="2.23937">
        <ele>315.971</ele>
        <time>2011-10-15T12:39:35Z</time>
      </trkpt>
      <trkpt lat="42.92344" lon="2.2394">
        <ele>318.726</ele>
        <time>2011-10-15T12:39:42Z</time>
      </trkpt>
      <trkpt lat="42.92333" lon="2.23944">
        <ele>321.502</ele>
        <time>2011-10-15T12:39:50Z</time>
      </trkpt>
      <trkpt lat="42.92321" lon="2.23949">
        <ele>323.945</ele>
        <time>2011-10-15T12:39:57Z</time>
      </trkpt>
      <trkpt lat="42.9231" lon="2.23958">
        <ele>325.578</ele>
        <time>2011-10-15T12:40:04Z</time>
      </trkpt>
      <trkpt lat="42.92301" lon="2.23965">
        <ele>327.376</ele>
        <time>2011-10-15T12:40:10Z</time>
      </trkpt>
      <trkpt lat="42.92286" lon="2.23972">
        <ele>328.933</ele>
        <time>2011-10-15T12:40:18Z</time>
      </trkpt>
      <trkpt lat="42.92275" lon="2.23973">
        <ele>329.449</ele>
        <time>2011-10-15T12:40:24Z</time>
      </trkpt>
      <trkpt lat="42.92265" lon="2.23975">
        <ele>330.326</ele>
        <time>2011-10-15T12:40:30Z</time>
      </trkpt>
      <trkpt lat="42.92258" lon="2.23976">
        <ele>331.628</ele>
        <time>2011-10-15T12:40:38Z</time>
      </trkpt>
      <trkpt lat="42.92253" lon="2.23977">
        <ele>333.534</ele>
        <time>2011-10-15T12:40:46Z</time>
      </trkpt>
      <trkpt lat="42.92249" lon="2.23977">
        <ele>334.36</ele>
        <time>2011-10-15T12:40:50Z</time>
      </trkpt>
      <trkpt lat="42.92245" lon="2.23976">
        <ele>335.36</ele>
        <time>2011-10-15T12:40:54Z</time>
      </trkpt>
      <trkpt lat="42.92236" lon="2.23969">
        <ele>337.984</ele>
        <time>2011-10-15T12:41:03Z</time>
      </trkpt>
      <trkpt lat="42.92227" lon="2.23962">
        <ele>340.45</ele>
        <time>2011-10-15T12:41:12Z</time>
      </trkpt>
      <trkpt lat="42.92219" lon="2.23956">
        <ele>342.33</ele>
        <time>2011-10-15T12:41:20Z</time>
      </trkpt>
      <trkpt lat="42.9221" lon="2.23954">
        <ele>343.385</ele>
        <time>2011-10-15T12:41:27Z</time>
      </trkpt>
      <trkpt lat="42.92199" lon="2.23957">
        <ele>345.062</ele>
        <time>2011-10-15T12:41:36Z</time>
      </trkpt>
      <trkpt lat="42.92196" lon="2.23959">
        <ele>345.778</ele>
        <time>2011-10-15T12:41:39Z</time>
      </trkpt>
      <trkpt lat="42.92187" lon="2.23968">
        <ele>346.469</ele>
        <time>2011-10-15T12:41:46Z</time>
      </trkpt>
      <trkpt lat="42.92183" lon="2.23976">
        <ele>347.178</ele>
        <time>2011-10-15T12:41:51Z</time>
      </trkpt>
      <trkpt lat="42.92183" lon="2.23976">
        <ele>347.394</ele>
        <time>2011-10-15T12:41:54Z</time>
      </trkpt>
      <trkpt lat="42.92172" lon="2.2399">
        <ele>347.874</ele>
        <time>2011-10-15T12:42:01Z</time>
      </trkpt>
      <trkpt lat="42.92157" lon="2.24013">
        <ele>348.503</ele>
        <time>2011-10-15T12:42:09Z</time>
      </trkpt>
      <trkpt lat="42.92146" lon="2.24042">
        <ele>349.763</ele>
        <time>2011-10-15T12:42:17Z</time>
      </trkpt>
      <trkpt lat="42.92138" lon="2.24068">
        <ele>350.483</ele>
        <time>2011-10-15T12:42:24Z</time>
      </trkpt>
      <trkpt lat="42.92131" lon="2.24103">
        <ele>349.96</ele>
        <time>2011-10-15T12:42:30Z</time>
      </trkpt>
      <trkpt lat="42.92121" lon="2.24159">
        <ele>348.345</ele>
        <time>2011-10-15T12:42:37Z</time>
      </trkpt>
      <trkpt lat="42.92112" lon="2.24215">
        <ele>346.112</ele>
        <time>2011-10-15T12:42:44Z</time>
      </trkpt>
      <trkpt lat="42.92101" lon="2.24287">
        <ele>344.493</ele>
        <time>2011-10-15T12:42:53Z</time>
      </trkpt>
      <trkpt lat="42.92093" lon="2.24327">
        <ele>344.37</ele>
        <time>2011-10-15T12:42:59Z</time>
      </trkpt>
      <trkpt lat="42.92079" lon="2.24361">
        <ele>342.689</ele>
        <time>2011-10-15T12:43:04Z</time>
      </trkpt>
      <trkpt lat="42.92069" lon="2.24379">
        <ele>341.032</ele>
        <time>2011-10-15T12:43:06Z</time>
      </trkpt>
      <trkpt lat="42.92063" lon="2.24407">
        <ele>338.82</ele>
        <time>2011-10-15T12:43:10Z</time>
      </trkpt>
      <trkpt lat="42.92063" lon="2.24412">
        <ele>338.575</ele>
        <time>2011-10-15T12:43:11Z</time>
      </trkpt>
      <trkpt lat="42.92069" lon="2.24441">
        <ele>338.494</ele>
        <time>2011-10-15T12:43:16Z</time>
      </trkpt>
      <trkpt lat="42.92066" lon="2.24468">
        <ele>339.431</ele>
        <time>2011-10-15T12:43:21Z</time>
      </trkpt>
      <trkpt lat="42.92064" lon="2.24473">
        <ele>339.458</ele>
        <time>2011-10-15T12:43:22Z</time>
      </trkpt>
      <trkpt lat="42.92038" lon="2.24509">
        <ele>339.665</ele>
        <time>2011-10-15T12:43:30Z</time>
      </trkpt>
      <trkpt lat="42.92006" lon="2.24539">
        <ele>340.675</ele>
        <time>2011-10-15T12:43:39Z</time>
      </trkpt>
      <trkpt lat="42.91998" lon="2.24559">
        <ele>341.825</ele>
        <time>2011-10-15T12:43:44Z</time>
      </trkpt>
      <trkpt lat="42.9199" lon="2.24589">
        <ele>345.503</ele>
        <time>2011-10-15T12:43:52Z</time>
      </trkpt>
      <trkpt lat="42.91978" lon="2.24618">
        <ele>347.383</ele>
        <time>2011-10-15T12:44:00Z</time>
      </trkpt>
      <trkpt lat="42.91962" lon="2.24644">
        <ele>348.279</ele>
        <time>2011-10-15T12:44:08Z</time>
      </trkpt>
      <trkpt lat="42.91947" lon="2.24675">
        <ele>349.72</ele>
        <time>2011-10-15T12:44:17Z</time>
      </trkpt>
      <trkpt lat="42.9193" lon="2.24692">
        <ele>351.234</ele>
        <time>2011-10-15T12:44:24Z</time>
      </trkpt>
      <trkpt lat="42.91911" lon="2.24711">
        <ele>352.355</ele>
        <time>2011-10-15T12:44:32Z</time>
      </trkpt>
      <trkpt lat="42.91891" lon="2.24733">
        <ele>353.718</ele>
        <time>2011-10-15T12:44:40Z</time>
      </trkpt>
      <trkpt lat="42.9187" lon="2.24759">
        <ele>354.185</ele>
        <time>2011-10-15T12:44:48Z</time>
      </trkpt>
      <trkpt lat="42.91863" lon="2.24789">
        <ele>355.482</ele>
        <time>2011-10-15T12:44:55Z</time>
      </trkpt>
      <trkpt lat="42.9185" lon="2.24814">
        <ele>356.914</ele>
        <time>2011-10-15T12:45:02Z</time>
      </trkpt>
      <trkpt lat="42.91828" lon="2.24836">
        <ele>358.912</ele>
        <time>2011-10-15T12:45:11Z</time>
      </trkpt>
      <trkpt lat="42.91812" lon="2.24858">
        <ele>359.425</ele>
        <time>2011-10-15T12:45:18Z</time>
      </trkpt>
      <trkpt lat="42.91803" lon="2.24885">
        <ele>360.779</ele>
        <time>2011-10-15T12:45:25Z</time>
      </trkpt>
      <trkpt lat="42.91793" lon="2.24912">
        <ele>362.384</ele>
        <time>2011-10-15T12:45:32Z</time>
      </trkpt>
      <trkpt lat="42.91775" lon="2.24935">
        <ele>364.08</ele>
        <time>2011-10-15T12:45:40Z</time>
      </trkpt>
      <trkpt lat="42.91752" lon="2.24957">
        <ele>366.065</ele>
        <time>2011-10-15T12:45:50Z</time>
      </trkpt>
      <trkpt lat="42.91721" lon="2.2498">
        <ele>368.367</ele>
        <time>2011-10-15T12:46:02Z</time>
      </trkpt>
      <trkpt lat="42.91696" lon="2.24989">
        <ele>369.044</ele>
        <time>2011-10-15T12:46:10Z</time>
      </trkpt>
      <trkpt lat="42.91666" lon="2.2499">
        <ele>370.282</ele>
        <time>2011-10-15T12:46:19Z</time>
      </trkpt>
      <trkpt lat="42.91649" lon="2.2498">
        <ele>371.885</ele>
        <time>2011-10-15T12:46:25Z</time>
      </trkpt>
      <trkpt lat="42.9162" lon="2.24957">
        <ele>373.578</ele>
        <time>2011-10-15T12:46:35Z</time>
      </trkpt>
      <trkpt lat="42.91603" lon="2.24953">
        <ele>373.844</ele>
        <time>2011-10-15T12:46:40Z</time>
      </trkpt>
      <trkpt lat="42.91586" lon="2.24966">
        <ele>374.13</ele>
        <time>2011-10-15T12:46:45Z</time>
      </trkpt>
      <trkpt lat="42.91561" lon="2.2499">
        <ele>376.065</ele>
        <time>2011-10-15T12:46:54Z</time>
      </trkpt>
      <trkpt lat="42.91538" lon="2.25011">
        <ele>378.994</ele>
        <time>2011-10-15T12:47:04Z</time>
      </trkpt>
      <trkpt lat="42.91515" lon="2.25038">
        <ele>381.075</ele>
        <time>2011-10-15T12:47:14Z</time>
      </trkpt>
      <trkpt lat="42.91504" lon="2.25065">
        <ele>382.385</ele>
        <time>2011-10-15T12:47:21Z</time>
      </trkpt>
      <trkpt lat="42.91498" lon="2.25101">
        <ele>383.552</ele>
        <time>2011-10-15T12:47:29Z</time>
      </trkpt>
      <trkpt lat="42.91493" lon="2.25138">
        <ele>385.85</ele>
        <time>2011-10-15T12:47:38Z</time>
      </trkpt>
      <trkpt lat="42.91497" lon="2.25178">
        <ele>388.192</ele>
        <time>2011-10-15T12:47:48Z</time>
      </trkpt>
      <trkpt lat="42.91499" lon="2.25195">
        <ele>388.764</ele>
        <time>2011-10-15T12:47:54Z</time>
      </trkpt>
      <trkpt lat="42.91498" lon="2.25225">
        <ele>388.749</ele>
        <time>2011-10-15T12:48:00Z</time>
      </trkpt>
      <trkpt lat="42.91494" lon="2.25266">
        <ele>387.19</ele>
        <time>2011-10-15T12:48:06Z</time>
      </trkpt>
      <trkpt lat="42.91489" lon="2.25332">
        <ele>386.741</ele>
        <time>2011-10-15T12:48:15Z</time>
      </trkpt>
      <trkpt lat="42.91486" lon="2.25363">
        <ele>386.834</ele>
        <time>2011-10-15T12:48:20Z</time>
      </trkpt>
      <trkpt lat="42.91477" lon="2.25377">
        <ele>386.277</ele>
        <time>2011-10-15T12:48:24Z</time>
      </trkpt>
      <trkpt lat="42.91474" lon="2.25378">
        <ele>386.174</ele>
        <time>2011-10-15T12:48:25Z</time>
      </trkpt>
      <trkpt lat="42.91452" lon="2.2537">
        <ele>388.142</ele>
        <time>2011-10-15T12:48:32Z</time>
      </trkpt>
      <trkpt lat="42.91433" lon="2.25356">
        <ele>389.488</ele>
        <time>2011-10-15T12:48:38Z</time>
      </trkpt>
      <trkpt lat="42.9141" lon="2.25329">
        <ele>389.949</ele>
        <time>2011-10-15T12:48:46Z</time>
      </trkpt>
      <trkpt lat="42.91381" lon="2.25297">
        <ele>389.28</ele>
        <time>2011-10-15T12:48:54Z</time>
      </trkpt>
      <trkpt lat="42.91355" lon="2.25279">
        <ele>389.232</ele>
        <time>2011-10-15T12:49:00Z</time>
      </trkpt>
      <trkpt lat="42.9135" lon="2.25276">
        <ele>389.269</ele>
        <time>2011-10-15T12:49:01Z</time>
      </trkpt>
      <trkpt lat="42.91328" lon="2.25271">
        <ele>388.453</ele>
        <time>2011-10-15T12:49:05Z</time>
      </trkpt>
      <trkpt lat="42.91302" lon="2.25259">
        <ele>388.354</ele>
        <time>2011-10-15T12:49:10Z</time>
      </trkpt>
      <trkpt lat="42.91297" lon="2.25258">
        <ele>388.625</ele>
        <time>2011-10-15T12:49:11Z</time>
      </trkpt>
      <trkpt lat="42.91278" lon="2.25253">
        <ele>389.784</ele>
        <time>2011-10-15T12:49:15Z</time>
      </trkpt>
      <trkpt lat="42.9124" lon="2.25242">
        <ele>390.942</ele>
        <time>2011-10-15T12:49:24Z</time>
      </trkpt>
      <trkpt lat="42.91213" lon="2.2524">
        <ele>389.973</ele>
        <time>2011-10-15T12:49:30Z</time>
      </trkpt>
      <trkpt lat="42.91192" lon="2.25238">
        <ele>389.443</ele>
        <time>2011-10-15T12:49:34Z</time>
      </trkpt>
      <trkpt lat="42.91158" lon="2.25227">
        <ele>391.421</ele>
        <time>2011-10-15T12:49:42Z</time>
      </trkpt>
      <trkpt lat="42.91119" lon="2.25215">
        <ele>393.406</ele>
        <time>2011-10-15T12:49:52Z</time>
      </trkpt>
      <trkpt lat="42.91083" lon="2.25214">
        <ele>393.844</ele>
        <time>2011-10-15T12:50:00Z</time>
      </trkpt>
      <trkpt lat="42.91045" lon="2.25211">
        <ele>391.418</ele>
        <time>2011-10-15T12:50:07Z</time>
      </trkpt>
      <trkpt lat="42.9101" lon="2.25204">
        <ele>389.92</ele>
        <time>2011-10-15T12:50:13Z</time>
      </trkpt>
      <trkpt lat="42.90987" lon="2.25209">
        <ele>389.188</ele>
        <time>2011-10-15T12:50:17Z</time>
      </trkpt>
      <trkpt lat="42.90964" lon="2.25215">
        <ele>388.936</ele>
        <time>2011-10-15T12:50:21Z</time>
      </trkpt>
      <trkpt lat="42.90934" lon="2.25213">
        <ele>388.318</ele>
        <time>2011-10-15T12:50:26Z</time>
      </trkpt>
      <trkpt lat="42.90916" lon="2.25213">
        <ele>387.374</ele>
        <time>2011-10-15T12:50:29Z</time>
      </trkpt>
      <trkpt lat="42.90888" lon="2.25207">
        <ele>387.009</ele>
        <time>2011-10-15T12:50:34Z</time>
      </trkpt>
      <trkpt lat="42.90846" lon="2.25182">
        <ele>383.462</ele>
        <time>2011-10-15T12:50:41Z</time>
      </trkpt>
      <trkpt lat="42.90816" lon="2.25161">
        <ele>380.18</ele>
        <time>2011-10-15T12:50:46Z</time>
      </trkpt>
      <trkpt lat="42.90799" lon="2.25147">
        <ele>379.687</ele>
        <time>2011-10-15T12:50:49Z</time>
      </trkpt>
      <trkpt lat="42.90776" lon="2.25114">
        <ele>377.047</ele>
        <time>2011-10-15T12:50:54Z</time>
      </trkpt>
      <trkpt lat="42.90752" lon="2.25077">
        <ele>373.232</ele>
        <time>2011-10-15T12:50:59Z</time>
      </trkpt>
      <trkpt lat="42.90729" lon="2.25051">
        <ele>369.451</ele>
        <time>2011-10-15T12:51:03Z</time>
      </trkpt>
      <trkpt lat="42.90721" lon="2.25023">
        <ele>366.228</ele>
        <time>2011-10-15T12:51:07Z</time>
      </trkpt>
      <trkpt lat="42.90711" lon="2.2498">
        <ele>362.509</ele>
        <time>2011-10-15T12:51:12Z</time>
      </trkpt>
      <trkpt lat="42.90681" lon="2.24919">
        <ele>356.203</ele>
        <time>2011-10-15T12:51:18Z</time>
      </trkpt>
      <trkpt lat="42.90677" lon="2.2491">
        <ele>354.908</ele>
        <time>2011-10-15T12:51:19Z</time>
      </trkpt>
      <trkpt lat="42.90673" lon="2.2487">
        <ele>349.685</ele>
        <time>2011-10-15T12:51:23Z</time>
      </trkpt>
      <trkpt lat="42.90672" lon="2.24813">
        <ele>345.289</ele>
        <time>2011-10-15T12:51:28Z</time>
      </trkpt>
      <trkpt lat="42.90665" lon="2.24734">
        <ele>338.295</ele>
        <time>2011-10-15T12:51:34Z</time>
      </trkpt>
      <trkpt lat="42.90656" lon="2.24681">
        <ele>333.517</ele>
        <time>2011-10-15T12:51:38Z</time>
      </trkpt>
      <trkpt lat="42.90639" lon="2.24643">
        <ele>330.436</ele>
        <time>2011-10-15T12:51:42Z</time>
      </trkpt>
      <trkpt lat="42.9062" lon="2.24602">
        <ele>327.204</ele>
        <time>2011-10-15T12:51:47Z</time>
      </trkpt>
      <trkpt lat="42.90614" lon="2.24599">
        <ele>325.635</ele>
        <time>2011-10-15T12:51:50Z</time>
      </trkpt>
      <trkpt lat="42.90612" lon="2.24604">
        <ele>325.19</ele>
        <time>2011-10-15T12:51:51Z</time>
      </trkpt>
      <trkpt lat="42.90608" lon="2.24616">
        <ele>324.357</ele>
        <time>2011-10-15T12:51:53Z</time>
      </trkpt>
      <trkpt lat="42.9059" lon="2.24655">
        <ele>320.849</ele>
        <time>2011-10-15T12:51:57Z</time>
      </trkpt>
      <trkpt lat="42.90567" lon="2.24681">
        <ele>316.698</ele>
        <time>2011-10-15T12:52:00Z</time>
      </trkpt>
      <trkpt lat="42.90548" lon="2.24689">
        <ele>314.269</ele>
        <time>2011-10-15T12:52:02Z</time>
      </trkpt>
      <trkpt lat="42.90529" lon="2.24694">
        <ele>313.266</ele>
        <time>2011-10-15T12:52:04Z</time>
      </trkpt>
      <trkpt lat="42.9052" lon="2.24697">
        <ele>312.556</ele>
        <time>2011-10-15T12:52:05Z</time>
      </trkpt>
      <trkpt lat="42.90489" lon="2.24697">
        <ele>310.017</ele>
        <time>2011-10-15T12:52:08Z</time>
      </trkpt>
      <trkpt lat="42.90478" lon="2.24691">
        <ele>308.538</ele>
        <time>2011-10-15T12:52:09Z</time>
      </trkpt>
      <trkpt lat="42.90429" lon="2.24666">
        <ele>303.837</ele>
        <time>2011-10-15T12:52:14Z</time>
      </trkpt>
      <trkpt lat="42.90411" lon="2.24661">
        <ele>305.312</ele>
        <time>2011-10-15T12:52:17Z</time>
      </trkpt>
      <trkpt lat="42.90382" lon="2.24654">
        <ele>309.556</ele>
        <time>2011-10-15T12:52:25Z</time>
      </trkpt>
      <trkpt lat="42.90351" lon="2.24643">
        <ele>312.747</ele>
        <time>2011-10-15T12:52:35Z</time>
      </trkpt>
      <trkpt lat="42.90329" lon="2.24638">
        <ele>315.589</ele>
        <time>2011-10-15T12:52:43Z</time>
      </trkpt>
      <trkpt lat="42.90308" lon="2.24641">
        <ele>318.393</ele>
        <time>2011-10-15T12:52:52Z</time>
      </trkpt>
      <trkpt lat="42.90293" lon="2.24647">
        <ele>320.106</ele>
        <time>2011-10-15T12:52:59Z</time>
      </trkpt>
      <trkpt lat="42.90281" lon="2.24655">
        <ele>322.05</ele>
        <time>2011-10-15T12:53:05Z</time>
      </trkpt>
      <trkpt lat="42.90269" lon="2.24671">
        <ele>325.58</ele>
        <time>2011-10-15T12:53:14Z</time>
      </trkpt>
      <trkpt lat="42.90261" lon="2.2468">
        <ele>326.997</ele>
        <time>2011-10-15T12:53:19Z</time>
      </trkpt>
      <trkpt lat="42.90258" lon="2.24672">
        <ele>327.496</ele>
        <time>2011-10-15T12:53:23Z</time>
      </trkpt>
      <trkpt lat="42.90264" lon="2.2464">
        <ele>327.731</ele>
        <time>2011-10-15T12:53:31Z</time>
      </trkpt>
      <trkpt lat="42.90271" lon="2.24622">
        <ele>329.075</ele>
        <time>2011-10-15T12:53:37Z</time>
      </trkpt>
      <trkpt lat="42.90287" lon="2.24598">
        <ele>328.344</ele>
        <time>2011-10-15T12:53:44Z</time>
      </trkpt>
      <trkpt lat="42.9029" lon="2.24594">
        <ele>328.003</ele>
        <time>2011-10-15T12:53:45Z</time>
      </trkpt>
      <trkpt lat="42.90312" lon="2.24578">
        <ele>326.801</ele>
        <time>2011-10-15T12:53:49Z</time>
      </trkpt>
      <trkpt lat="42.90339" lon="2.24547">
        <ele>324.615</ele>
        <time>2011-10-15T12:53:54Z</time>
      </trkpt>
      <trkpt lat="42.90365" lon="2.24527">
        <ele>323.048</ele>
        <time>2011-10-15T12:53:58Z</time>
      </trkpt>
      <trkpt lat="42.90394" lon="2.24493">
        <ele>321.488</ele>
        <time>2011-10-15T12:54:03Z</time>
      </trkpt>
      <trkpt lat="42.90419" lon="2.2445">
        <ele>319.225</ele>
        <time>2011-10-15T12:54:08Z</time>
      </trkpt>
      <trkpt lat="42.90429" lon="2.24433">
        <ele>318.64</ele>
        <time>2011-10-15T12:54:10Z</time>
      </trkpt>
      <trkpt lat="42.90455" lon="2.24405">
        <ele>317.66</ele>
        <time>2011-10-15T12:54:14Z</time>
      </trkpt>
      <trkpt lat="42.90502" lon="2.24359">
        <ele>314.552</ele>
        <time>2011-10-15T12:54:21Z</time>
      </trkpt>
      <trkpt lat="42.90521" lon="2.24337">
        <ele>312.938</ele>
        <time>2011-10-15T12:54:24Z</time>
      </trkpt>
      <trkpt lat="42.90547" lon="2.24294">
        <ele>311.036</ele>
        <time>2011-10-15T12:54:29Z</time>
      </trkpt>
      <trkpt lat="42.90591" lon="2.24226">
        <ele>308.099</ele>
        <time>2011-10-15T12:54:37Z</time>
      </trkpt>
      <trkpt lat="42.90601" lon="2.24209">
        <ele>306.868</ele>
        <time>2011-10-15T12:54:39Z</time>
      </trkpt>
      <trkpt lat="42.90613" lon="2.24171">
        <ele>303.741</ele>
        <time>2011-10-15T12:54:43Z</time>
      </trkpt>
      <trkpt lat="42.9063" lon="2.24147">
        <ele>302.307</ele>
        <time>2011-10-15T12:54:47Z</time>
      </trkpt>
      <trkpt lat="42.90645" lon="2.24135">
        <ele>302.029</ele>
        <time>2011-10-15T12:54:50Z</time>
      </trkpt>
      <trkpt lat="42.90665" lon="2.24109">
        <ele>300.875</ele>
        <time>2011-10-15T12:54:55Z</time>
      </trkpt>
      <trkpt lat="42.9067" lon="2.24098">
        <ele>300.704</ele>
        <time>2011-10-15T12:54:57Z</time>
      </trkpt>
      <trkpt lat="42.90681" lon="2.24076">
        <ele>301.194</ele>
        <time>2011-10-15T12:55:02Z</time>
      </trkpt>
      <trkpt lat="42.90693" lon="2.2407">
        <ele>301.494</ele>
        <time>2011-10-15T12:55:05Z</time>
      </trkpt>
      <trkpt lat="42.9071" lon="2.24059">
        <ele>301.682</ele>
        <time>2011-10-15T12:55:10Z</time>
      </trkpt>
      <trkpt lat="42.90727" lon="2.24037">
        <ele>301.099</ele>
        <time>2011-10-15T12:55:16Z</time>
      </trkpt>
      <trkpt lat="42.9073" lon="2.24033">
        <ele>300.879</ele>
        <time>2011-10-15T12:55:17Z</time>
      </trkpt>
      <trkpt lat="42.90734" lon="2.24023">
        <ele>300.561</ele>
        <time>2011-10-15T12:55:19Z</time>
      </trkpt>
      <trkpt lat="42.90747" lon="2.24001">
        <ele>298.895</ele>
        <time>2011-10-15T12:55:23Z</time>
      </trkpt>
      <trkpt lat="42.90767" lon="2.23964">
        <ele>296.585</ele>
        <time>2011-10-15T12:55:28Z</time>
      </trkpt>
      <trkpt lat="42.90782" lon="2.23935">
        <ele>295.097</ele>
        <time>2011-10-15T12:55:32Z</time>
      </trkpt>
      <trkpt lat="42.90774" lon="2.23915">
        <ele>292.555</ele>
        <time>2011-10-15T12:55:36Z</time>
      </trkpt>
      <trkpt lat="42.90762" lon="2.23916">
        <ele>291.836</ele>
        <time>2011-10-15T12:55:39Z</time>
      </trkpt>
      <trkpt lat="42.90746" lon="2.23914">
        <ele>290.264</ele>
        <time>2011-10-15T12:55:42Z</time>
      </trkpt>
      <trkpt lat="42.90735" lon="2.23926">
        <ele>289.806</ele>
        <time>2011-10-15T12:55:45Z</time>
      </trkpt>
      <trkpt lat="42.9072" lon="2.23933">
        <ele>290.225</ele>
        <time>2011-10-15T12:55:49Z</time>
      </trkpt>
      <trkpt lat="42.90692" lon="2.23935">
        <ele>291.194</ele>
        <time>2011-10-15T12:55:57Z</time>
      </trkpt>
      <trkpt lat="42.90664" lon="2.23933">
        <ele>292.789</ele>
        <time>2011-10-15T12:56:05Z</time>
      </trkpt>
      <trkpt lat="42.90638" lon="2.23941">
        <ele>293.679</ele>
        <time>2011-10-15T12:56:12Z</time>
      </trkpt>
      <trkpt lat="42.9063" lon="2.23945">
        <ele>294.254</ele>
        <time>2011-10-15T12:56:14Z</time>
      </trkpt>
      <trkpt lat="42.90614" lon="2.23947">
        <ele>294.556</ele>
        <time>2011-10-15T12:56:18Z</time>
      </trkpt>
      <trkpt lat="42.90568" lon="2.23948">
        <ele>295</ele>
        <time>2011-10-15T12:56:28Z</time>
      </trkpt>
      <trkpt lat="42.90511" lon="2.23947">
        <ele>296.135</ele>
        <time>2011-10-15T12:56:41Z</time>
      </trkpt>
      <trkpt lat="42.90468" lon="2.2395">
        <ele>297.37</ele>
        <time>2011-10-15T12:56:51Z</time>
      </trkpt>
      <trkpt lat="42.90451" lon="2.23952">
        <ele>297.783</ele>
        <time>2011-10-15T12:56:55Z</time>
      </trkpt>
      <trkpt lat="42.90435" lon="2.23968">
        <ele>298.53</ele>
        <time>2011-10-15T12:57:00Z</time>
      </trkpt>
      <trkpt lat="42.90413" lon="2.24008">
        <ele>300.119</ele>
        <time>2011-10-15T12:57:09Z</time>
      </trkpt>
      <trkpt lat="42.90389" lon="2.24037">
        <ele>300.612</ele>
        <time>2011-10-15T12:57:17Z</time>
      </trkpt>
      <trkpt lat="42.90358" lon="2.24053">
        <ele>301.151</ele>
        <time>2011-10-15T12:57:25Z</time>
      </trkpt>
      <trkpt lat="42.90316" lon="2.24071">
        <ele>302.338</ele>
        <time>2011-10-15T12:57:36Z</time>
      </trkpt>
      <trkpt lat="42.90274" lon="2.241">
        <ele>304.016</ele>
        <time>2011-10-15T12:57:48Z</time>
      </trkpt>
      <trkpt lat="42.9025" lon="2.24125">
        <ele>305.568</ele>
        <time>2011-10-15T12:57:56Z</time>
      </trkpt>
      <trkpt lat="42.9022" lon="2.24147">
        <ele>306.244</ele>
        <time>2011-10-15T12:58:05Z</time>
      </trkpt>
      <trkpt lat="42.90189" lon="2.24163">
        <ele>306.211</ele>
        <time>2011-10-15T12:58:13Z</time>
      </trkpt>
      <trkpt lat="42.90148" lon="2.24176">
        <ele>307.381</ele>
        <time>2011-10-15T12:58:24Z</time>
      </trkpt>
      <trkpt lat="42.90107" lon="2.24188">
        <ele>308.824</ele>
        <time>2011-10-15T12:58:35Z</time>
      </trkpt>
      <trkpt lat="42.90093" lon="2.24205">
        <ele>309.576</ele>
        <time>2011-10-15T12:58:40Z</time>
      </trkpt>
      <trkpt lat="42.90069" lon="2.24248">
        <ele>310.687</ele>
        <time>2011-10-15T12:58:50Z</time>
      </trkpt>
      <trkpt lat="42.90043" lon="2.24292">
        <ele>311.997</ele>
        <time>2011-10-15T12:59:01Z</time>
      </trkpt>
      <trkpt lat="42.90019" lon="2.24325">
        <ele>313.121</ele>
        <time>2011-10-15T12:59:10Z</time>
      </trkpt>
      <trkpt lat="42.90012" lon="2.24353">
        <ele>313.775</ele>
        <time>2011-10-15T12:59:16Z</time>
      </trkpt>
      <trkpt lat="42.90008" lon="2.24398">
        <ele>315.862</ele>
        <time>2011-10-15T12:59:25Z</time>
      </trkpt>
      <trkpt lat="42.90007" lon="2.2444">
        <ele>318.321</ele>
        <time>2011-10-15T12:59:34Z</time>
      </trkpt>
      <trkpt lat="42.89994" lon="2.24468">
        <ele>319.795</ele>
        <time>2011-10-15T12:59:42Z</time>
      </trkpt>
      <trkpt lat="42.89987" lon="2.24473">
        <ele>320.992</ele>
        <time>2011-10-15T12:59:46Z</time>
      </trkpt>
      <trkpt lat="42.89987" lon="2.24459">
        <ele>320.965</ele>
        <time>2011-10-15T12:59:51Z</time>
      </trkpt>
      <trkpt lat="42.89989" lon="2.2445">
        <ele>320.928</ele>
        <time>2011-10-15T12:59:53Z</time>
      </trkpt>
      <trkpt lat="42.89991" lon="2.24438">
        <ele>320.686</ele>
        <time>2011-10-15T12:59:55Z</time>
      </trkpt>
      <trkpt lat="42.89993" lon="2.24425">
        <ele>320.53</ele>
        <time>2011-10-15T12:59:57Z</time>
      </trkpt>
      <trkpt lat="42.89984" lon="2.24383">
        <ele>319.882</ele>
        <time>2011-10-15T13:00:03Z</time>
      </trkpt>
      <trkpt lat="42.8997" lon="2.2436">
        <ele>319.496</ele>
        <time>2011-10-15T13:00:07Z</time>
      </trkpt>
      <trkpt lat="42.89961" lon="2.2435">
        <ele>319.578</ele>
        <time>2011-10-15T13:00:09Z</time>
      </trkpt>
      <trkpt lat="42.89943" lon="2.24314">
        <ele>319.879</ele>
        <time>2011-10-15T13:00:15Z</time>
      </trkpt>
      <trkpt lat="42.89932" lon="2.24273">
        <ele>320.167</ele>
        <time>2011-10-15T13:00:21Z</time>
      </trkpt>
      <trkpt lat="42.89919" lon="2.24236">
        <ele>321.963</ele>
        <time>2011-10-15T13:00:28Z</time>
      </trkpt>
      <trkpt lat="42.89902" lon="2.24196">
        <ele>321.635</ele>
        <time>2011-10-15T13:00:35Z</time>
      </trkpt>
      <trkpt lat="42.8988" lon="2.24154">
        <ele>320.429</ele>
        <time>2011-10-15T13:00:41Z</time>
      </trkpt>
      <trkpt lat="42.89847" lon="2.241">
        <ele>318.616</ele>
        <time>2011-10-15T13:00:49Z</time>
      </trkpt>
      <trkpt lat="42.89819" lon="2.24051">
        <ele>317.753</ele>
        <time>2011-10-15T13:00:56Z</time>
      </trkpt>
      <trkpt lat="42.89815" lon="2.24043">
        <ele>317.495</ele>
        <time>2011-10-15T13:00:57Z</time>
      </trkpt>
      <trkpt lat="42.89805" lon="2.24019">
        <ele>317.066</ele>
        <time>2011-10-15T13:01:00Z</time>
      </trkpt>
      <trkpt lat="42.89801" lon="2.23975">
        <ele>316.838</ele>
        <time>2011-10-15T13:01:05Z</time>
      </trkpt>
      <trkpt lat="42.89803" lon="2.23925">
        <ele>317.581</ele>
        <time>2011-10-15T13:01:11Z</time>
      </trkpt>
      <trkpt lat="42.89805" lon="2.23873">
        <ele>319.486</ele>
        <time>2011-10-15T13:01:19Z</time>
      </trkpt>
      <trkpt lat="42.89801" lon="2.23833">
        <ele>321.434</ele>
        <time>2011-10-15T13:01:26Z</time>
      </trkpt>
      <trkpt lat="42.898" lon="2.23828">
        <ele>321.794</ele>
        <time>2011-10-15T13:01:27Z</time>
      </trkpt>
      <trkpt lat="42.89782" lon="2.23795">
        <ele>322.002</ele>
        <time>2011-10-15T13:01:33Z</time>
      </trkpt>
      <trkpt lat="42.89752" lon="2.23748">
        <ele>319.843</ele>
        <time>2011-10-15T13:01:40Z</time>
      </trkpt>
      <trkpt lat="42.8972" lon="2.23698">
        <ele>318.162</ele>
        <time>2011-10-15T13:01:47Z</time>
      </trkpt>
      <trkpt lat="42.89703" lon="2.23671">
        <ele>317.549</ele>
        <time>2011-10-15T13:01:51Z</time>
      </trkpt>
      <trkpt lat="42.89672" lon="2.23613">
        <ele>316.556</ele>
        <time>2011-10-15T13:01:59Z</time>
      </trkpt>
      <trkpt lat="42.8966" lon="2.23573">
        <ele>316.312</ele>
        <time>2011-10-15T13:02:04Z</time>
      </trkpt>
      <trkpt lat="42.89644" lon="2.23514">
        <ele>317.398</ele>
        <time>2011-10-15T13:02:12Z</time>
      </trkpt>
      <trkpt lat="42.89627" lon="2.2347">
        <ele>317.609</ele>
        <time>2011-10-15T13:02:19Z</time>
      </trkpt>
      <trkpt lat="42.89607" lon="2.23417">
        <ele>317.123</ele>
        <time>2011-10-15T13:02:27Z</time>
      </trkpt>
      <trkpt lat="42.89587" lon="2.23358">
        <ele>318.321</ele>
        <time>2011-10-15T13:02:37Z</time>
      </trkpt>
      <trkpt lat="42.89573" lon="2.23311">
        <ele>319.897</ele>
        <time>2011-10-15T13:02:46Z</time>
      </trkpt>
      <trkpt lat="42.89563" lon="2.23269">
        <ele>322.585</ele>
        <time>2011-10-15T13:02:55Z</time>
      </trkpt>
      <trkpt lat="42.89562" lon="2.23234">
        <ele>323.842</ele>
        <time>2011-10-15T13:03:02Z</time>
      </trkpt>
      <trkpt lat="42.89562" lon="2.23218">
        <ele>324.17</ele>
        <time>2011-10-15T13:03:05Z</time>
      </trkpt>
      <trkpt lat="42.89564" lon="2.2318">
        <ele>324.923</ele>
        <time>2011-10-15T13:03:12Z</time>
      </trkpt>
      <trkpt lat="42.89559" lon="2.23165">
        <ele>325.485</ele>
        <time>2011-10-15T13:03:16Z</time>
      </trkpt>
      <trkpt lat="42.89549" lon="2.23161">
        <ele>326.82</ele>
        <time>2011-10-15T13:03:21Z</time>
      </trkpt>
      <trkpt lat="42.89534" lon="2.23163">
        <ele>329.436</ele>
        <time>2011-10-15T13:03:29Z</time>
      </trkpt>
      <trkpt lat="42.89521" lon="2.23163">
        <ele>332.324</ele>
        <time>2011-10-15T13:03:36Z</time>
      </trkpt>
      <trkpt lat="42.89509" lon="2.23157">
        <ele>334.917</ele>
        <time>2011-10-15T13:03:43Z</time>
      </trkpt>
      <trkpt lat="42.89494" lon="2.23164">
        <ele>337.016</ele>
        <time>2011-10-15T13:03:51Z</time>
      </trkpt>
      <trkpt lat="42.89471" lon="2.23184">
        <ele>339.286</ele>
        <time>2011-10-15T13:04:03Z</time>
      </trkpt>
      <trkpt lat="42.89454" lon="2.23207">
        <ele>340.808</ele>
        <time>2011-10-15T13:04:13Z</time>
      </trkpt>
      <trkpt lat="42.89437" lon="2.23225">
        <ele>341.137</ele>
        <time>2011-10-15T13:04:20Z</time>
      </trkpt>
      <trkpt lat="42.89412" lon="2.23239">
        <ele>342.484</ele>
        <time>2011-10-15T13:04:29Z</time>
      </trkpt>
      <trkpt lat="42.894" lon="2.23234">
        <ele>343.028</ele>
        <time>2011-10-15T13:04:33Z</time>
      </trkpt>
      <trkpt lat="42.89393" lon="2.23219">
        <ele>344.258</ele>
        <time>2011-10-15T13:04:38Z</time>
      </trkpt>
      <trkpt lat="42.89381" lon="2.23194">
        <ele>346.319</ele>
        <time>2011-10-15T13:04:47Z</time>
      </trkpt>
      <trkpt lat="42.89367" lon="2.23174">
        <ele>348.686</ele>
        <time>2011-10-15T13:04:56Z</time>
      </trkpt>
      <trkpt lat="42.89355" lon="2.23147">
        <ele>351.316</ele>
        <time>2011-10-15T13:05:06Z</time>
      </trkpt>
      <trkpt lat="42.89343" lon="2.23124">
        <ele>353.583</ele>
        <time>2011-10-15T13:05:15Z</time>
      </trkpt>
      <trkpt lat="42.89334" lon="2.23104">
        <ele>356.021</ele>
        <time>2011-10-15T13:05:23Z</time>
      </trkpt>
      <trkpt lat="42.89328" lon="2.2308">
        <ele>357.868</ele>
        <time>2011-10-15T13:05:31Z</time>
      </trkpt>
      <trkpt lat="42.89318" lon="2.23056">
        <ele>358.217</ele>
        <time>2011-10-15T13:05:38Z</time>
      </trkpt>
      <trkpt lat="42.89307" lon="2.23039">
        <ele>358.398</ele>
        <time>2011-10-15T13:05:43Z</time>
      </trkpt>
      <trkpt lat="42.893" lon="2.23015">
        <ele>358.237</ele>
        <time>2011-10-15T13:05:48Z</time>
      </trkpt>
      <trkpt lat="42.89298" lon="2.23005">
        <ele>358.628</ele>
        <time>2011-10-15T13:05:50Z</time>
      </trkpt>
      <trkpt lat="42.89288" lon="2.22966">
        <ele>360.389</ele>
        <time>2011-10-15T13:05:59Z</time>
      </trkpt>
      <trkpt lat="42.89279" lon="2.22939">
        <ele>360.664</ele>
        <time>2011-10-15T13:06:05Z</time>
      </trkpt>
      <trkpt lat="42.89266" lon="2.22901">
        <ele>360.199</ele>
        <time>2011-10-15T13:06:12Z</time>
      </trkpt>
      <trkpt lat="42.89253" lon="2.22872">
        <ele>360.218</ele>
        <time>2011-10-15T13:06:18Z</time>
      </trkpt>
      <trkpt lat="42.89241" lon="2.22833">
        <ele>359.64</ele>
        <time>2011-10-15T13:06:24Z</time>
      </trkpt>
      <trkpt lat="42.89231" lon="2.228">
        <ele>360.369</ele>
        <time>2011-10-15T13:06:30Z</time>
      </trkpt>
      <trkpt lat="42.89216" lon="2.22773">
        <ele>362.039</ele>
        <time>2011-10-15T13:06:37Z</time>
      </trkpt>
      <trkpt lat="42.89204" lon="2.22743">
        <ele>364.303</ele>
        <time>2011-10-15T13:06:45Z</time>
      </trkpt>
      <trkpt lat="42.89198" lon="2.22718">
        <ele>367.093</ele>
        <time>2011-10-15T13:06:53Z</time>
      </trkpt>
      <trkpt lat="42.89195" lon="2.22689">
        <ele>370.526</ele>
        <time>2011-10-15T13:07:03Z</time>
      </trkpt>
      <trkpt lat="42.89194" lon="2.22667">
        <ele>372.591</ele>
        <time>2011-10-15T13:07:10Z</time>
      </trkpt>
      <trkpt lat="42.89191" lon="2.22639">
        <ele>375.501</ele>
        <time>2011-10-15T13:07:20Z</time>
      </trkpt>
      <trkpt lat="42.89189" lon="2.22617">
        <ele>377.956</ele>
        <time>2011-10-15T13:07:28Z</time>
      </trkpt>
      <trkpt lat="42.89187" lon="2.22592">
        <ele>380.469</ele>
        <time>2011-10-15T13:07:37Z</time>
      </trkpt>
      <trkpt lat="42.89184" lon="2.22564">
        <ele>383.994</ele>
        <time>2011-10-15T13:07:48Z</time>
      </trkpt>
      <trkpt lat="42.89181" lon="2.22546">
        <ele>386.412</ele>
        <time>2011-10-15T13:07:55Z</time>
      </trkpt>
      <trkpt lat="42.89178" lon="2.22533">
        <ele>387.636</ele>
        <time>2011-10-15T13:08:00Z</time>
      </trkpt>
      <trkpt lat="42.89164" lon="2.22529">
        <ele>387.989</ele>
        <time>2011-10-15T13:08:06Z</time>
      </trkpt>
      <trkpt lat="42.89158" lon="2.22543">
        <ele>387.389</ele>
        <time>2011-10-15T13:08:11Z</time>
      </trkpt>
      <trkpt lat="42.89155" lon="2.22562">
        <ele>387.462</ele>
        <time>2011-10-15T13:08:16Z</time>
      </trkpt>
      <trkpt lat="42.89149" lon="2.2259">
        <ele>389.443</ele>
        <time>2011-10-15T13:08:24Z</time>
      </trkpt>
      <trkpt lat="42.89142" lon="2.22627">
        <ele>390.869</ele>
        <time>2011-10-15T13:08:33Z</time>
      </trkpt>
      <trkpt lat="42.89131" lon="2.22672">
        <ele>393.589</ele>
        <time>2011-10-15T13:08:45Z</time>
      </trkpt>
      <trkpt lat="42.89122" lon="2.2271">
        <ele>396.892</ele>
        <time>2011-10-15T13:08:56Z</time>
      </trkpt>
      <trkpt lat="42.89119" lon="2.2274">
        <ele>399.756</ele>
        <time>2011-10-15T13:09:05Z</time>
      </trkpt>
      <trkpt lat="42.8912" lon="2.22773">
        <ele>403.304</ele>
        <time>2011-10-15T13:09:15Z</time>
      </trkpt>
      <trkpt lat="42.89123" lon="2.22802">
        <ele>405.129</ele>
        <time>2011-10-15T13:09:23Z</time>
      </trkpt>
      <trkpt lat="42.89124" lon="2.22832">
        <ele>405.394</ele>
        <time>2011-10-15T13:09:31Z</time>
      </trkpt>
      <trkpt lat="42.89122" lon="2.22849">
        <ele>406.545</ele>
        <time>2011-10-15T13:09:36Z</time>
      </trkpt>
      <trkpt lat="42.89117" lon="2.22867">
        <ele>407.941</ele>
        <time>2011-10-15T13:09:42Z</time>
      </trkpt>
      <trkpt lat="42.89111" lon="2.22882">
        <ele>409.293</ele>
        <time>2011-10-15T13:09:48Z</time>
      </trkpt>
      <trkpt lat="42.8911" lon="2.22884">
        <ele>409.621</ele>
        <time>2011-10-15T13:09:49Z</time>
      </trkpt>
      <trkpt lat="42.89107" lon="2.22897">
        <ele>411.289</ele>
        <time>2011-10-15T13:09:54Z</time>
      </trkpt>
      <trkpt lat="42.89102" lon="2.22893">
        <ele>412.36</ele>
        <time>2011-10-15T13:09:58Z</time>
      </trkpt>
      <trkpt lat="42.891" lon="2.22868">
        <ele>414.074</ele>
        <time>2011-10-15T13:10:05Z</time>
      </trkpt>
      <trkpt lat="42.89093" lon="2.22848">
        <ele>415.147</ele>
        <time>2011-10-15T13:10:11Z</time>
      </trkpt>
      <trkpt lat="42.89086" lon="2.2283">
        <ele>416.613</ele>
        <time>2011-10-15T13:10:18Z</time>
      </trkpt>
      <trkpt lat="42.89082" lon="2.22818">
        <ele>418.295</ele>
        <time>2011-10-15T13:10:23Z</time>
      </trkpt>
      <trkpt lat="42.89082" lon="2.22803">
        <ele>419.987</ele>
        <time>2011-10-15T13:10:28Z</time>
      </trkpt>
      <trkpt lat="42.89076" lon="2.22793">
        <ele>421.458</ele>
        <time>2011-10-15T13:10:33Z</time>
      </trkpt>
      <trkpt lat="42.89065" lon="2.22794">
        <ele>422.548</ele>
        <time>2011-10-15T13:10:38Z</time>
      </trkpt>
      <trkpt lat="42.89061" lon="2.22814">
        <ele>425.583</ele>
        <time>2011-10-15T13:10:46Z</time>
      </trkpt>
      <trkpt lat="42.89059" lon="2.2283">
        <ele>427.369</ele>
        <time>2011-10-15T13:10:52Z</time>
      </trkpt>
      <trkpt lat="42.89052" lon="2.22843">
        <ele>429.455</ele>
        <time>2011-10-15T13:10:58Z</time>
      </trkpt>
      <trkpt lat="42.89043" lon="2.22861">
        <ele>431.514</ele>
        <time>2011-10-15T13:11:06Z</time>
      </trkpt>
      <trkpt lat="42.89036" lon="2.22874">
        <ele>432.962</ele>
        <time>2011-10-15T13:11:12Z</time>
      </trkpt>
      <trkpt lat="42.8903" lon="2.22896">
        <ele>434.132</ele>
        <time>2011-10-15T13:11:19Z</time>
      </trkpt>
      <trkpt lat="42.89023" lon="2.22916">
        <ele>436.015</ele>
        <time>2011-10-15T13:11:26Z</time>
      </trkpt>
      <trkpt lat="42.89018" lon="2.22935">
        <ele>436.421</ele>
        <time>2011-10-15T13:11:32Z</time>
      </trkpt>
      <trkpt lat="42.8901" lon="2.2296">
        <ele>436.724</ele>
        <time>2011-10-15T13:11:39Z</time>
      </trkpt>
      <trkpt lat="42.88998" lon="2.22981">
        <ele>437.185</ele>
        <time>2011-10-15T13:11:45Z</time>
      </trkpt>
      <trkpt lat="42.88983" lon="2.23005">
        <ele>437.299</ele>
        <time>2011-10-15T13:11:51Z</time>
      </trkpt>
      <trkpt lat="42.88965" lon="2.23025">
        <ele>437.652</ele>
        <time>2011-10-15T13:11:57Z</time>
      </trkpt>
      <trkpt lat="42.88953" lon="2.23045">
        <ele>438.912</ele>
        <time>2011-10-15T13:12:03Z</time>
      </trkpt>
      <trkpt lat="42.88935" lon="2.23078">
        <ele>439.284</ele>
        <time>2011-10-15T13:12:11Z</time>
      </trkpt>
      <trkpt lat="42.88931" lon="2.23087">
        <ele>439.189</ele>
        <time>2011-10-15T13:12:13Z</time>
      </trkpt>
      <trkpt lat="42.88922" lon="2.23113">
        <ele>438.571</ele>
        <time>2011-10-15T13:12:17Z</time>
      </trkpt>
      <trkpt lat="42.88913" lon="2.23131">
        <ele>437.909</ele>
        <time>2011-10-15T13:12:20Z</time>
      </trkpt>
      <trkpt lat="42.8889" lon="2.23153">
        <ele>436.481</ele>
        <time>2011-10-15T13:12:25Z</time>
      </trkpt>
      <trkpt lat="42.88881" lon="2.23162">
        <ele>436.253</ele>
        <time>2011-10-15T13:12:27Z</time>
      </trkpt>
      <trkpt lat="42.88869" lon="2.23184">
        <ele>435.952</ele>
        <time>2011-10-15T13:12:31Z</time>
      </trkpt>
      <trkpt lat="42.88867" lon="2.23196">
        <ele>436.042</ele>
        <time>2011-10-15T13:12:33Z</time>
      </trkpt>
      <trkpt lat="42.88865" lon="2.23231">
        <ele>436.939</ele>
        <time>2011-10-15T13:12:39Z</time>
      </trkpt>
      <trkpt lat="42.88863" lon="2.23242">
        <ele>437.11</ele>
        <time>2011-10-15T13:12:41Z</time>
      </trkpt>
      <trkpt lat="42.88851" lon="2.23276">
        <ele>437.693</ele>
        <time>2011-10-15T13:12:47Z</time>
      </trkpt>
      <trkpt lat="42.88841" lon="2.23312">
        <ele>438.334</ele>
        <time>2011-10-15T13:12:54Z</time>
      </trkpt>
      <trkpt lat="42.8883" lon="2.23333">
        <ele>439.925</ele>
        <time>2011-10-15T13:12:59Z</time>
      </trkpt>
      <trkpt lat="42.88818" lon="2.23355">
        <ele>441.972</ele>
        <time>2011-10-15T13:13:05Z</time>
      </trkpt>
      <trkpt lat="42.888" lon="2.23387">
        <ele>442.315</ele>
        <time>2011-10-15T13:13:12Z</time>
      </trkpt>
      <trkpt lat="42.88784" lon="2.23403">
        <ele>443.001</ele>
        <time>2011-10-15T13:13:17Z</time>
      </trkpt>
      <trkpt lat="42.88759" lon="2.23407">
        <ele>444.667</ele>
        <time>2011-10-15T13:13:24Z</time>
      </trkpt>
      <trkpt lat="42.88756" lon="2.23409">
        <ele>445.083</ele>
        <time>2011-10-15T13:13:25Z</time>
      </trkpt>
      <trkpt lat="42.88749" lon="2.23425">
        <ele>446.553</ele>
        <time>2011-10-15T13:13:30Z</time>
      </trkpt>
      <trkpt lat="42.88745" lon="2.23452">
        <ele>448.793</ele>
        <time>2011-10-15T13:13:38Z</time>
      </trkpt>
      <trkpt lat="42.88753" lon="2.23463">
        <ele>450.695</ele>
        <time>2011-10-15T13:13:43Z</time>
      </trkpt>
      <trkpt lat="42.88758" lon="2.23468">
        <ele>451.955</ele>
        <time>2011-10-15T13:13:46Z</time>
      </trkpt>
      <trkpt lat="42.8877" lon="2.23483">
        <ele>453.874</ele>
        <time>2011-10-15T13:13:53Z</time>
      </trkpt>
      <trkpt lat="42.88781" lon="2.23501">
        <ele>453.239</ele>
        <time>2011-10-15T13:13:59Z</time>
      </trkpt>
      <trkpt lat="42.88798" lon="2.23526">
        <ele>452.944</ele>
        <time>2011-10-15T13:14:05Z</time>
      </trkpt>
      <trkpt lat="42.88807" lon="2.23537">
        <ele>452.422</ele>
        <time>2011-10-15T13:14:07Z</time>
      </trkpt>
      <trkpt lat="42.88812" lon="2.23558">
        <ele>451.388</ele>
        <time>2011-10-15T13:14:10Z</time>
      </trkpt>
      <trkpt lat="42.88807" lon="2.23587">
        <ele>450.239</ele>
        <time>2011-10-15T13:14:14Z</time>
      </trkpt>
      <trkpt lat="42.88809" lon="2.23628">
        <ele>451.181</ele>
        <time>2011-10-15T13:14:21Z</time>
      </trkpt>
      <trkpt lat="42.88809" lon="2.23652">
        <ele>452.626</ele>
        <time>2011-10-15T13:14:27Z</time>
      </trkpt>
      <trkpt lat="42.88808" lon="2.23681">
        <ele>454.354</ele>
        <time>2011-10-15T13:14:34Z</time>
      </trkpt>
      <trkpt lat="42.88807" lon="2.23713">
        <ele>456.671</ele>
        <time>2011-10-15T13:14:42Z</time>
      </trkpt>
      <trkpt lat="42.88798" lon="2.23733">
        <ele>458.391</ele>
        <time>2011-10-15T13:14:48Z</time>
      </trkpt>
      <trkpt lat="42.88788" lon="2.23755">
        <ele>459.144</ele>
        <time>2011-10-15T13:14:54Z</time>
      </trkpt>
      <trkpt lat="42.88773" lon="2.23784">
        <ele>460.658</ele>
        <time>2011-10-15T13:15:02Z</time>
      </trkpt>
      <trkpt lat="42.88756" lon="2.23811">
        <ele>460.692</ele>
        <time>2011-10-15T13:15:09Z</time>
      </trkpt>
      <trkpt lat="42.88742" lon="2.2383">
        <ele>461.053</ele>
        <time>2011-10-15T13:15:14Z</time>
      </trkpt>
      <trkpt lat="42.88726" lon="2.23858">
        <ele>460.886</ele>
        <time>2011-10-15T13:15:20Z</time>
      </trkpt>
      <trkpt lat="42.88715" lon="2.23884">
        <ele>461.44</ele>
        <time>2011-10-15T13:15:26Z</time>
      </trkpt>
      <trkpt lat="42.88698" lon="2.23922">
        <ele>461.293</ele>
        <time>2011-10-15T13:15:33Z</time>
      </trkpt>
      <trkpt lat="42.88687" lon="2.23949">
        <ele>461.297</ele>
        <time>2011-10-15T13:15:38Z</time>
      </trkpt>
      <trkpt lat="42.88679" lon="2.23971">
        <ele>460.979</ele>
        <time>2011-10-15T13:15:42Z</time>
      </trkpt>
      <trkpt lat="42.88674" lon="2.23983">
        <ele>460.8</ele>
        <time>2011-10-15T13:15:44Z</time>
      </trkpt>
      <trkpt lat="42.88663" lon="2.24021">
        <ele>459.923</ele>
        <time>2011-10-15T13:15:50Z</time>
      </trkpt>
      <trkpt lat="42.88669" lon="2.24042">
        <ele>459.358</ele>
        <time>2011-10-15T13:15:53Z</time>
      </trkpt>
      <trkpt lat="42.88686" lon="2.24065">
        <ele>457.932</ele>
        <time>2011-10-15T13:15:57Z</time>
      </trkpt>
      <trkpt lat="42.887" lon="2.24096">
        <ele>455.454</ele>
        <time>2011-10-15T13:16:01Z</time>
      </trkpt>
      <trkpt lat="42.88706" lon="2.24114">
        <ele>454.027</ele>
        <time>2011-10-15T13:16:03Z</time>
      </trkpt>
      <trkpt lat="42.88715" lon="2.24165">
        <ele>451.499</ele>
        <time>2011-10-15T13:16:08Z</time>
      </trkpt>
      <trkpt lat="42.88721" lon="2.24202">
        <ele>450.16</ele>
        <time>2011-10-15T13:16:12Z</time>
      </trkpt>
      <trkpt lat="42.8873" lon="2.24225">
        <ele>450.237</ele>
        <time>2011-10-15T13:16:16Z</time>
      </trkpt>
      <trkpt lat="42.88737" lon="2.24236">
        <ele>451.46</ele>
        <time>2011-10-15T13:16:20Z</time>
      </trkpt>
      <trkpt lat="42.88744" lon="2.2425">
        <ele>452.483</ele>
        <time>2011-10-15T13:16:25Z</time>
      </trkpt>
      <trkpt lat="42.8875" lon="2.24256">
        <ele>453.419</ele>
        <time>2011-10-15T13:16:29Z</time>
      </trkpt>
      <trkpt lat="42.88758" lon="2.24261">
        <ele>454.657</ele>
        <time>2011-10-15T13:16:34Z</time>
      </trkpt>
      <trkpt lat="42.88766" lon="2.24268">
        <ele>456.409</ele>
        <time>2011-10-15T13:16:40Z</time>
      </trkpt>
      <trkpt lat="42.88772" lon="2.24271">
        <ele>458.083</ele>
        <time>2011-10-15T13:16:44Z</time>
      </trkpt>
      <trkpt lat="42.88779" lon="2.24275">
        <ele>460.895</ele>
        <time>2011-10-15T13:16:51Z</time>
      </trkpt>
      <trkpt lat="42.88791" lon="2.24279">
        <ele>464.061</ele>
        <time>2011-10-15T13:16:59Z</time>
      </trkpt>
      <trkpt lat="42.88796" lon="2.24278">
        <ele>465.404</ele>
        <time>2011-10-15T13:17:02Z</time>
      </trkpt>
      <trkpt lat="42.88802" lon="2.24279">
        <ele>467.533</ele>
        <time>2011-10-15T13:17:07Z</time>
      </trkpt>
      <trkpt lat="42.88816" lon="2.24283">
        <ele>470.754</ele>
        <time>2011-10-15T13:17:17Z</time>
      </trkpt>
      <trkpt lat="42.88821" lon="2.24283">
        <ele>471.664</ele>
        <time>2011-10-15T13:17:21Z</time>
      </trkpt>
      <trkpt lat="42.88828" lon="2.24293">
        <ele>471.875</ele>
        <time>2011-10-15T13:17:29Z</time>
      </trkpt>
      <trkpt lat="42.8883" lon="2.24298">
        <ele>472.023</ele>
        <time>2011-10-15T13:17:31Z</time>
      </trkpt>
      <trkpt lat="42.88828" lon="2.24308">
        <ele>473.069</ele>
        <time>2011-10-15T13:17:37Z</time>
      </trkpt>
      <trkpt lat="42.88827" lon="2.24308">
        <ele>473.16</ele>
        <time>2011-10-15T13:17:38Z</time>
      </trkpt>
      <trkpt lat="42.88811" lon="2.2431">
        <ele>473.761</ele>
        <time>2011-10-15T13:17:45Z</time>
      </trkpt>
      <trkpt lat="42.88797" lon="2.24316">
        <ele>473.52</ele>
        <time>2011-10-15T13:17:49Z</time>
      </trkpt>
      <trkpt lat="42.88779" lon="2.24329">
        <ele>472.769</ele>
        <time>2011-10-15T13:17:54Z</time>
      </trkpt>
      <trkpt lat="42.88756" lon="2.24341">
        <ele>472.57</ele>
        <time>2011-10-15T13:18:00Z</time>
      </trkpt>
      <trkpt lat="42.88737" lon="2.24357">
        <ele>472.447</ele>
        <time>2011-10-15T13:18:06Z</time>
      </trkpt>
      <trkpt lat="42.88732" lon="2.24377">
        <ele>473.144</ele>
        <time>2011-10-15T13:18:11Z</time>
      </trkpt>
      <trkpt lat="42.88725" lon="2.24394">
        <ele>473.969</ele>
        <time>2011-10-15T13:18:17Z</time>
      </trkpt>
      <trkpt lat="42.88713" lon="2.24414">
        <ele>473.899</ele>
        <time>2011-10-15T13:18:23Z</time>
      </trkpt>
      <trkpt lat="42.88706" lon="2.2443">
        <ele>474.914</ele>
        <time>2011-10-15T13:18:28Z</time>
      </trkpt>
      <trkpt lat="42.88694" lon="2.24452">
        <ele>476.367</ele>
        <time>2011-10-15T13:18:35Z</time>
      </trkpt>
      <trkpt lat="42.88681" lon="2.24472">
        <ele>478.025</ele>
        <time>2011-10-15T13:18:42Z</time>
      </trkpt>
      <trkpt lat="42.88666" lon="2.24485">
        <ele>480.405</ele>
        <time>2011-10-15T13:18:49Z</time>
      </trkpt>
      <trkpt lat="42.88663" lon="2.24488">
        <ele>481.437</ele>
        <time>2011-10-15T13:18:53Z</time>
      </trkpt>
      <trkpt lat="42.88662" lon="2.24489">
        <ele>481.486</ele>
        <time>2011-10-15T13:18:57Z</time>
      </trkpt>
      <trkpt lat="42.88658" lon="2.24498">
        <ele>483.008</ele>
        <time>2011-10-15T13:19:03Z</time>
      </trkpt>
      <trkpt lat="42.88651" lon="2.24509">
        <ele>485.93</ele>
        <time>2011-10-15T13:19:12Z</time>
      </trkpt>
      <trkpt lat="42.88647" lon="2.24511">
        <ele>486.477</ele>
        <time>2011-10-15T13:19:16Z</time>
      </trkpt>
      <trkpt lat="42.88631" lon="2.24511">
        <ele>486.534</ele>
        <time>2011-10-15T13:19:22Z</time>
      </trkpt>
      <trkpt lat="42.8862" lon="2.24519">
        <ele>486.51</ele>
        <time>2011-10-15T13:19:26Z</time>
      </trkpt>
      <trkpt lat="42.88616" lon="2.24524">
        <ele>486.673</ele>
        <time>2011-10-15T13:19:29Z</time>
      </trkpt>
      <trkpt lat="42.88615" lon="2.24536">
        <ele>487.408</ele>
        <time>2011-10-15T13:19:33Z</time>
      </trkpt>
      <trkpt lat="42.88616" lon="2.24544">
        <ele>488.091</ele>
        <time>2011-10-15T13:19:36Z</time>
      </trkpt>
      <trkpt lat="42.88613" lon="2.24571">
        <ele>490.088</ele>
        <time>2011-10-15T13:19:44Z</time>
      </trkpt>
      <trkpt lat="42.88612" lon="2.2459">
        <ele>490.821</ele>
        <time>2011-10-15T13:19:49Z</time>
      </trkpt>
      <trkpt lat="42.88615" lon="2.24611">
        <ele>491.72</ele>
        <time>2011-10-15T13:19:55Z</time>
      </trkpt>
      <trkpt lat="42.88614" lon="2.24628">
        <ele>492.522</ele>
        <time>2011-10-15T13:19:59Z</time>
      </trkpt>
      <trkpt lat="42.88615" lon="2.24636">
        <ele>492.562</ele>
        <time>2011-10-15T13:20:01Z</time>
      </trkpt>
      <trkpt lat="42.88615" lon="2.24651">
        <ele>492.418</ele>
        <time>2011-10-15T13:20:06Z</time>
      </trkpt>
      <trkpt lat="42.88614" lon="2.24654">
        <ele>492.249</ele>
        <time>2011-10-15T13:20:07Z</time>
      </trkpt>
      <trkpt lat="42.88615" lon="2.24665">
        <ele>492.049</ele>
        <time>2011-10-15T13:20:10Z</time>
      </trkpt>
      <trkpt lat="42.8862" lon="2.24686">
        <ele>492.41</ele>
        <time>2011-10-15T13:20:16Z</time>
      </trkpt>
      <trkpt lat="42.88622" lon="2.24703">
        <ele>492.609</ele>
        <time>2011-10-15T13:20:20Z</time>
      </trkpt>
      <trkpt lat="42.88623" lon="2.24724">
        <ele>491.434</ele>
        <time>2011-10-15T13:20:25Z</time>
      </trkpt>
      <trkpt lat="42.88626" lon="2.24735">
        <ele>490.86</ele>
        <time>2011-10-15T13:20:28Z</time>
      </trkpt>
      <trkpt lat="42.88627" lon="2.24752">
        <ele>490.897</ele>
        <time>2011-10-15T13:20:35Z</time>
      </trkpt>
      <trkpt lat="42.88625" lon="2.24761">
        <ele>490.291</ele>
        <time>2011-10-15T13:20:39Z</time>
      </trkpt>
      <trkpt lat="42.88622" lon="2.24779">
        <ele>490.402</ele>
        <time>2011-10-15T13:20:44Z</time>
      </trkpt>
      <trkpt lat="42.88621" lon="2.248">
        <ele>491.316</ele>
        <time>2011-10-15T13:20:50Z</time>
      </trkpt>
      <trkpt lat="42.88619" lon="2.24813">
        <ele>491.37</ele>
        <time>2011-10-15T13:20:55Z</time>
      </trkpt>
      <trkpt lat="42.88617" lon="2.24825">
        <ele>491.182</ele>
        <time>2011-10-15T13:21:02Z</time>
      </trkpt>
      <trkpt lat="42.88613" lon="2.2484">
        <ele>490.895</ele>
        <time>2011-10-15T13:21:08Z</time>
      </trkpt>
      <trkpt lat="42.88613" lon="2.24871">
        <ele>491.351</ele>
        <time>2011-10-15T13:21:15Z</time>
      </trkpt>
      <trkpt lat="42.88614" lon="2.24895">
        <ele>491.472</ele>
        <time>2011-10-15T13:21:20Z</time>
      </trkpt>
      <trkpt lat="42.8862" lon="2.24914">
        <ele>491.389</ele>
        <time>2011-10-15T13:21:24Z</time>
      </trkpt>
      <trkpt lat="42.88621" lon="2.24935">
        <ele>491.159</ele>
        <time>2011-10-15T13:21:28Z</time>
      </trkpt>
      <trkpt lat="42.88624" lon="2.24972">
        <ele>490.954</ele>
        <time>2011-10-15T13:21:34Z</time>
      </trkpt>
      <trkpt lat="42.88628" lon="2.25007">
        <ele>490.275</ele>
        <time>2011-10-15T13:21:40Z</time>
      </trkpt>
      <trkpt lat="42.88631" lon="2.25029">
        <ele>490.287</ele>
        <time>2011-10-15T13:21:44Z</time>
      </trkpt>
      <trkpt lat="42.88633" lon="2.25039">
        <ele>490.101</ele>
        <time>2011-10-15T13:21:46Z</time>
      </trkpt>
      <trkpt lat="42.88635" lon="2.25081">
        <ele>489.953</ele>
        <time>2011-10-15T13:21:53Z</time>
      </trkpt>
      <trkpt lat="42.88638" lon="2.25093">
        <ele>489.836</ele>
        <time>2011-10-15T13:21:55Z</time>
      </trkpt>
      <trkpt lat="42.8864" lon="2.25122">
        <ele>489.627</ele>
        <time>2011-10-15T13:22:00Z</time>
      </trkpt>
      <trkpt lat="42.88641" lon="2.25143">
        <ele>489.157</ele>
        <time>2011-10-15T13:22:03Z</time>
      </trkpt>
      <trkpt lat="42.88643" lon="2.25157">
        <ele>488.742</ele>
        <time>2011-10-15T13:22:05Z</time>
      </trkpt>
      <trkpt lat="42.88647" lon="2.25183">
        <ele>488.237</ele>
        <time>2011-10-15T13:22:09Z</time>
      </trkpt>
      <trkpt lat="42.88653" lon="2.25211">
        <ele>488.346</ele>
        <time>2011-10-15T13:22:14Z</time>
      </trkpt>
      <trkpt lat="42.88653" lon="2.25242">
        <ele>489.254</ele>
        <time>2011-10-15T13:22:20Z</time>
      </trkpt>
      <trkpt lat="42.88653" lon="2.25272">
        <ele>489.751</ele>
        <time>2011-10-15T13:22:26Z</time>
      </trkpt>
      <trkpt lat="42.88658" lon="2.25299">
        <ele>489.814</ele>
        <time>2011-10-15T13:22:31Z</time>
      </trkpt>
      <trkpt lat="42.88661" lon="2.25321">
        <ele>489.573</ele>
        <time>2011-10-15T13:22:35Z</time>
      </trkpt>
      <trkpt lat="42.88663" lon="2.25333">
        <ele>489.032</ele>
        <time>2011-10-15T13:22:37Z</time>
      </trkpt>
      <trkpt lat="42.88663" lon="2.25361">
        <ele>488.502</ele>
        <time>2011-10-15T13:22:41Z</time>
      </trkpt>
      <trkpt lat="42.88666" lon="2.25409">
        <ele>486.79</ele>
        <time>2011-10-15T13:22:48Z</time>
      </trkpt>
      <trkpt lat="42.88672" lon="2.25437">
        <ele>486.712</ele>
        <time>2011-10-15T13:22:53Z</time>
      </trkpt>
      <trkpt lat="42.88674" lon="2.25442">
        <ele>486.663</ele>
        <time>2011-10-15T13:22:54Z</time>
      </trkpt>
      <trkpt lat="42.88683" lon="2.25474">
        <ele>487.387</ele>
        <time>2011-10-15T13:23:00Z</time>
      </trkpt>
      <trkpt lat="42.88688" lon="2.25495">
        <ele>488.215</ele>
        <time>2011-10-15T13:23:05Z</time>
      </trkpt>
      <trkpt lat="42.88693" lon="2.25519">
        <ele>490.617</ele>
        <time>2011-10-15T13:23:12Z</time>
      </trkpt>
      <trkpt lat="42.88695" lon="2.25539">
        <ele>492.436</ele>
        <time>2011-10-15T13:23:18Z</time>
      </trkpt>
      <trkpt lat="42.88692" lon="2.2556">
        <ele>493.161</ele>
        <time>2011-10-15T13:23:23Z</time>
      </trkpt>
      <trkpt lat="42.8869" lon="2.25584">
        <ele>493.986</ele>
        <time>2011-10-15T13:23:28Z</time>
      </trkpt>
      <trkpt lat="42.88691" lon="2.25604">
        <ele>494.931</ele>
        <time>2011-10-15T13:23:33Z</time>
      </trkpt>
      <trkpt lat="42.88691" lon="2.25607">
        <ele>495.082</ele>
        <time>2011-10-15T13:23:34Z</time>
      </trkpt>
      <trkpt lat="42.8869" lon="2.25631">
        <ele>496.956</ele>
        <time>2011-10-15T13:23:41Z</time>
      </trkpt>
      <trkpt lat="42.88687" lon="2.25645">
        <ele>498.562</ele>
        <time>2011-10-15T13:23:46Z</time>
      </trkpt>
      <trkpt lat="42.88686" lon="2.25649">
        <ele>498.797</ele>
        <time>2011-10-15T13:23:47Z</time>
      </trkpt>
      <trkpt lat="42.88681" lon="2.2567">
        <ele>499.853</ele>
        <time>2011-10-15T13:23:54Z</time>
      </trkpt>
      <trkpt lat="42.8868" lon="2.25698">
        <ele>502.416</ele>
        <time>2011-10-15T13:24:03Z</time>
      </trkpt>
      <trkpt lat="42.88676" lon="2.25718">
        <ele>503.462</ele>
        <time>2011-10-15T13:24:10Z</time>
      </trkpt>
      <trkpt lat="42.88672" lon="2.25737">
        <ele>503.894</ele>
        <time>2011-10-15T13:24:15Z</time>
      </trkpt>
      <trkpt lat="42.88671" lon="2.25764">
        <ele>503.968</ele>
        <time>2011-10-15T13:24:21Z</time>
      </trkpt>
      <trkpt lat="42.8867" lon="2.25782">
        <ele>504.136</ele>
        <time>2011-10-15T13:24:25Z</time>
      </trkpt>
      <trkpt lat="42.88671" lon="2.25803">
        <ele>503.806</ele>
        <time>2011-10-15T13:24:29Z</time>
      </trkpt>
      <trkpt lat="42.88668" lon="2.25822">
        <ele>501.93</ele>
        <time>2011-10-15T13:24:34Z</time>
      </trkpt>
      <trkpt lat="42.88665" lon="2.25816">
        <ele>500.213</ele>
        <time>2011-10-15T13:24:38Z</time>
      </trkpt>
      <trkpt lat="42.88655" lon="2.25799">
        <ele>499.739</ele>
        <time>2011-10-15T13:24:43Z</time>
      </trkpt>
      <trkpt lat="42.88648" lon="2.25775">
        <ele>499.336</ele>
        <time>2011-10-15T13:24:48Z</time>
      </trkpt>
      <trkpt lat="42.88645" lon="2.25742">
        <ele>498.179</ele>
        <time>2011-10-15T13:24:53Z</time>
      </trkpt>
      <trkpt lat="42.88644" lon="2.25728">
        <ele>497.333</ele>
        <time>2011-10-15T13:24:55Z</time>
      </trkpt>
      <trkpt lat="42.88639" lon="2.25699">
        <ele>495.716</ele>
        <time>2011-10-15T13:24:59Z</time>
      </trkpt>
      <trkpt lat="42.88635" lon="2.25678">
        <ele>493.985</ele>
        <time>2011-10-15T13:25:02Z</time>
      </trkpt>
      <trkpt lat="42.88634" lon="2.25645">
        <ele>492.485</ele>
        <time>2011-10-15T13:25:06Z</time>
      </trkpt>
      <trkpt lat="42.88636" lon="2.25633">
        <ele>491.318</ele>
        <time>2011-10-15T13:25:08Z</time>
      </trkpt>
      <trkpt lat="42.88624" lon="2.256">
        <ele>486.782</ele>
        <time>2011-10-15T13:25:13Z</time>
      </trkpt>
      <trkpt lat="42.88611" lon="2.25576">
        <ele>482.755</ele>
        <time>2011-10-15T13:25:16Z</time>
      </trkpt>
      <trkpt lat="42.88601" lon="2.2553">
        <ele>474.514</ele>
        <time>2011-10-15T13:25:21Z</time>
      </trkpt>
      <trkpt lat="42.886" lon="2.25516">
        <ele>473.048</ele>
        <time>2011-10-15T13:25:23Z</time>
      </trkpt>
      <trkpt lat="42.88595" lon="2.25502">
        <ele>468.328</ele>
        <time>2011-10-15T13:25:27Z</time>
      </trkpt>
      <trkpt lat="42.88595" lon="2.25499">
        <ele>467.362</ele>
        <time>2011-10-15T13:25:28Z</time>
      </trkpt>
      <trkpt lat="42.88587" lon="2.25493">
        <ele>463.448</ele>
        <time>2011-10-15T13:25:32Z</time>
      </trkpt>
      <trkpt lat="42.88575" lon="2.25501">
        <ele>459.434</ele>
        <time>2011-10-15T13:25:37Z</time>
      </trkpt>
      <trkpt lat="42.88566" lon="2.2552">
        <ele>457.6</ele>
        <time>2011-10-15T13:25:40Z</time>
      </trkpt>
      <trkpt lat="42.88558" lon="2.25539">
        <ele>456.07</ele>
        <time>2011-10-15T13:25:43Z</time>
      </trkpt>
      <trkpt lat="42.88549" lon="2.25572">
        <ele>454.985</ele>
        <time>2011-10-15T13:25:49Z</time>
      </trkpt>
      <trkpt lat="42.88544" lon="2.25598">
        <ele>455.508</ele>
        <time>2011-10-15T13:25:54Z</time>
      </trkpt>
      <trkpt lat="42.88544" lon="2.25633">
        <ele>455.078</ele>
        <time>2011-10-15T13:25:59Z</time>
      </trkpt>
      <trkpt lat="42.88543" lon="2.25657">
        <ele>454.016</ele>
        <time>2011-10-15T13:26:04Z</time>
      </trkpt>
      <trkpt lat="42.88543" lon="2.25676">
        <ele>453.296</ele>
        <time>2011-10-15T13:26:08Z</time>
      </trkpt>
      <trkpt lat="42.88542" lon="2.2569">
        <ele>452.283</ele>
        <time>2011-10-15T13:26:10Z</time>
      </trkpt>
      <trkpt lat="42.88539" lon="2.25705">
        <ele>451.441</ele>
        <time>2011-10-15T13:26:12Z</time>
      </trkpt>
      <trkpt lat="42.88532" lon="2.25736">
        <ele>451.41</ele>
        <time>2011-10-15T13:26:18Z</time>
      </trkpt>
      <trkpt lat="42.88527" lon="2.25744">
        <ele>451.57</ele>
        <time>2011-10-15T13:26:20Z</time>
      </trkpt>
      <trkpt lat="42.88511" lon="2.25751">
        <ele>451.006</ele>
        <time>2011-10-15T13:26:24Z</time>
      </trkpt>
      <trkpt lat="42.88499" lon="2.25742">
        <ele>450.418</ele>
        <time>2011-10-15T13:26:28Z</time>
      </trkpt>
      <trkpt lat="42.88496" lon="2.25741">
        <ele>450.488</ele>
        <time>2011-10-15T13:26:29Z</time>
      </trkpt>
      <trkpt lat="42.88481" lon="2.25737">
        <ele>449.941</ele>
        <time>2011-10-15T13:26:33Z</time>
      </trkpt>
      <trkpt lat="42.8846" lon="2.25733">
        <ele>449.735</ele>
        <time>2011-10-15T13:26:38Z</time>
      </trkpt>
      <trkpt lat="42.88441" lon="2.25728">
        <ele>450.288</ele>
        <time>2011-10-15T13:26:44Z</time>
      </trkpt>
      <trkpt lat="42.88438" lon="2.25728">
        <ele>450.503</ele>
        <time>2011-10-15T13:26:45Z</time>
      </trkpt>
      <trkpt lat="42.88424" lon="2.25717">
        <ele>452.319</ele>
        <time>2011-10-15T13:26:51Z</time>
      </trkpt>
      <trkpt lat="42.88405" lon="2.25709">
        <ele>451.635</ele>
        <time>2011-10-15T13:26:56Z</time>
      </trkpt>
      <trkpt lat="42.88399" lon="2.25708">
        <ele>451.341</ele>
        <time>2011-10-15T13:26:57Z</time>
      </trkpt>
      <trkpt lat="42.88384" lon="2.257">
        <ele>450.567</ele>
        <time>2011-10-15T13:27:01Z</time>
      </trkpt>
      <trkpt lat="42.88377" lon="2.25693">
        <ele>450.777</ele>
        <time>2011-10-15T13:27:03Z</time>
      </trkpt>
      <trkpt lat="42.88358" lon="2.25667">
        <ele>451.48</ele>
        <time>2011-10-15T13:27:09Z</time>
      </trkpt>
      <trkpt lat="42.88344" lon="2.25653">
        <ele>453.531</ele>
        <time>2011-10-15T13:27:15Z</time>
      </trkpt>
      <trkpt lat="42.88333" lon="2.25654">
        <ele>453.654</ele>
        <time>2011-10-15T13:27:18Z</time>
      </trkpt>
      <trkpt lat="42.88305" lon="2.25664">
        <ele>451.892</ele>
        <time>2011-10-15T13:27:25Z</time>
      </trkpt>
      <trkpt lat="42.88297" lon="2.25667">
        <ele>451.827</ele>
        <time>2011-10-15T13:27:27Z</time>
      </trkpt>
      <trkpt lat="42.88277" lon="2.25689">
        <ele>450.353</ele>
        <time>2011-10-15T13:27:32Z</time>
      </trkpt>
      <trkpt lat="42.88253" lon="2.25721">
        <ele>447.123</ele>
        <time>2011-10-15T13:27:38Z</time>
      </trkpt>
      <trkpt lat="42.8824" lon="2.25734">
        <ele>447.91</ele>
        <time>2011-10-15T13:27:42Z</time>
      </trkpt>
      <trkpt lat="42.88222" lon="2.25756">
        <ele>448.624</ele>
        <time>2011-10-15T13:27:47Z</time>
      </trkpt>
      <trkpt lat="42.88211" lon="2.2577">
        <ele>448.491</ele>
        <time>2011-10-15T13:27:50Z</time>
      </trkpt>
      <trkpt lat="42.88199" lon="2.25793">
        <ele>448.195</ele>
        <time>2011-10-15T13:27:55Z</time>
      </trkpt>
      <trkpt lat="42.88193" lon="2.2581">
        <ele>448.048</ele>
        <time>2011-10-15T13:27:58Z</time>
      </trkpt>
      <trkpt lat="42.88185" lon="2.25831">
        <ele>448.367</ele>
        <time>2011-10-15T13:28:02Z</time>
      </trkpt>
      <trkpt lat="42.88181" lon="2.25862">
        <ele>448.967</ele>
        <time>2011-10-15T13:28:08Z</time>
      </trkpt>
      <trkpt lat="42.88179" lon="2.25885">
        <ele>450.56</ele>
        <time>2011-10-15T13:28:13Z</time>
      </trkpt>
      <trkpt lat="42.88177" lon="2.25905">
        <ele>450.83</ele>
        <time>2011-10-15T13:28:17Z</time>
      </trkpt>
      <trkpt lat="42.88172" lon="2.25944">
        <ele>451.206</ele>
        <time>2011-10-15T13:28:24Z</time>
      </trkpt>
      <trkpt lat="42.88173" lon="2.25956">
        <ele>451.334</ele>
        <time>2011-10-15T13:28:26Z</time>
      </trkpt>
      <trkpt lat="42.88173" lon="2.25993">
        <ele>446.226</ele>
        <time>2011-10-15T13:28:31Z</time>
      </trkpt>
      <trkpt lat="42.88171" lon="2.26024">
        <ele>441.999</ele>
        <time>2011-10-15T13:28:35Z</time>
      </trkpt>
      <trkpt lat="42.88171" lon="2.26033">
        <ele>440.913</ele>
        <time>2011-10-15T13:28:36Z</time>
      </trkpt>
      <trkpt lat="42.8817" lon="2.26071">
        <ele>437.208</ele>
        <time>2011-10-15T13:28:40Z</time>
      </trkpt>
      <trkpt lat="42.88172" lon="2.26103">
        <ele>434.003</ele>
        <time>2011-10-15T13:28:44Z</time>
      </trkpt>
      <trkpt lat="42.88172" lon="2.26118">
        <ele>433.134</ele>
        <time>2011-10-15T13:28:46Z</time>
      </trkpt>
      <trkpt lat="42.88162" lon="2.26128">
        <ele>429.931</ele>
        <time>2011-10-15T13:28:49Z</time>
      </trkpt>
      <trkpt lat="42.8815" lon="2.26148">
        <ele>425.34</ele>
        <time>2011-10-15T13:28:54Z</time>
      </trkpt>
      <trkpt lat="42.8815" lon="2.26155">
        <ele>425.098</ele>
        <time>2011-10-15T13:28:55Z</time>
      </trkpt>
      <trkpt lat="42.88152" lon="2.26163">
        <ele>424.933</ele>
        <time>2011-10-15T13:28:56Z</time>
      </trkpt>
      <trkpt lat="42.88158" lon="2.26177">
        <ele>424.502</ele>
        <time>2011-10-15T13:28:58Z</time>
      </trkpt>
      <trkpt lat="42.88166" lon="2.26205">
        <ele>424.403</ele>
        <time>2011-10-15T13:29:03Z</time>
      </trkpt>
      <trkpt lat="42.88171" lon="2.26212">
        <ele>424.995</ele>
        <time>2011-10-15T13:29:05Z</time>
      </trkpt>
      <trkpt lat="42.88181" lon="2.26229">
        <ele>426.901</ele>
        <time>2011-10-15T13:29:12Z</time>
      </trkpt>
      <trkpt lat="42.88187" lon="2.26244">
        <ele>428.363</ele>
        <time>2011-10-15T13:29:18Z</time>
      </trkpt>
      <trkpt lat="42.88193" lon="2.26263">
        <ele>429.698</ele>
        <time>2011-10-15T13:29:25Z</time>
      </trkpt>
      <trkpt lat="42.88203" lon="2.26273">
        <ele>430.897</ele>
        <time>2011-10-15T13:29:31Z</time>
      </trkpt>
      <trkpt lat="42.88209" lon="2.26288">
        <ele>431.789</ele>
        <time>2011-10-15T13:29:37Z</time>
      </trkpt>
      <trkpt lat="42.88211" lon="2.2632">
        <ele>433.744</ele>
        <time>2011-10-15T13:29:47Z</time>
      </trkpt>
      <trkpt lat="42.88219" lon="2.26338">
        <ele>435.788</ele>
        <time>2011-10-15T13:29:55Z</time>
      </trkpt>
      <trkpt lat="42.88226" lon="2.26355">
        <ele>437.588</ele>
        <time>2011-10-15T13:30:03Z</time>
      </trkpt>
      <trkpt lat="42.8823" lon="2.26376">
        <ele>440.275</ele>
        <time>2011-10-15T13:30:12Z</time>
      </trkpt>
      <trkpt lat="42.88233" lon="2.26398">
        <ele>442.681</ele>
        <time>2011-10-15T13:30:21Z</time>
      </trkpt>
      <trkpt lat="42.88234" lon="2.26419">
        <ele>444.491</ele>
        <time>2011-10-15T13:30:30Z</time>
      </trkpt>
      <trkpt lat="42.8824" lon="2.26435">
        <ele>447.372</ele>
        <time>2011-10-15T13:30:38Z</time>
      </trkpt>
      <trkpt lat="42.88252" lon="2.26452">
        <ele>450.169</ele>
        <time>2011-10-15T13:30:48Z</time>
      </trkpt>
      <trkpt lat="42.88263" lon="2.26472">
        <ele>452.281</ele>
        <time>2011-10-15T13:30:58Z</time>
      </trkpt>
      <trkpt lat="42.88271" lon="2.26487">
        <ele>454.052</ele>
        <time>2011-10-15T13:31:05Z</time>
      </trkpt>
      <trkpt lat="42.88283" lon="2.26513">
        <ele>456.191</ele>
        <time>2011-10-15T13:31:17Z</time>
      </trkpt>
      <trkpt lat="42.88295" lon="2.26537">
        <ele>458.089</ele>
        <time>2011-10-15T13:31:27Z</time>
      </trkpt>
      <trkpt lat="42.88305" lon="2.26558">
        <ele>458.973</ele>
        <time>2011-10-15T13:31:35Z</time>
      </trkpt>
      <trkpt lat="42.88312" lon="2.26583">
        <ele>460.543</ele>
        <time>2011-10-15T13:31:44Z</time>
      </trkpt>
      <trkpt lat="42.88315" lon="2.26607">
        <ele>461.894</ele>
        <time>2011-10-15T13:31:53Z</time>
      </trkpt>
      <trkpt lat="42.88317" lon="2.26624">
        <ele>463.032</ele>
        <time>2011-10-15T13:31:59Z</time>
      </trkpt>
      <trkpt lat="42.88319" lon="2.26657">
        <ele>465.269</ele>
        <time>2011-10-15T13:32:11Z</time>
      </trkpt>
      <trkpt lat="42.88322" lon="2.26685">
        <ele>468.011</ele>
        <time>2011-10-15T13:32:21Z</time>
      </trkpt>
      <trkpt lat="42.88328" lon="2.26719">
        <ele>470.767</ele>
        <time>2011-10-15T13:32:33Z</time>
      </trkpt>
      <trkpt lat="42.88331" lon="2.26754">
        <ele>472.796</ele>
        <time>2011-10-15T13:32:44Z</time>
      </trkpt>
      <trkpt lat="42.88333" lon="2.26779">
        <ele>473.801</ele>
        <time>2011-10-15T13:32:52Z</time>
      </trkpt>
      <trkpt lat="42.88339" lon="2.26806">
        <ele>475.048</ele>
        <time>2011-10-15T13:33:01Z</time>
      </trkpt>
      <trkpt lat="42.88347" lon="2.26828">
        <ele>477.249</ele>
        <time>2011-10-15T13:33:10Z</time>
      </trkpt>
      <trkpt lat="42.88355" lon="2.26853">
        <ele>480.059</ele>
        <time>2011-10-15T13:33:20Z</time>
      </trkpt>
      <trkpt lat="42.8836" lon="2.26877">
        <ele>482.33</ele>
        <time>2011-10-15T13:33:29Z</time>
      </trkpt>
      <trkpt lat="42.88362" lon="2.269">
        <ele>483.79</ele>
        <time>2011-10-15T13:33:37Z</time>
      </trkpt>
      <trkpt lat="42.88365" lon="2.26935">
        <ele>485.135</ele>
        <time>2011-10-15T13:33:49Z</time>
      </trkpt>
      <trkpt lat="42.88366" lon="2.26964">
        <ele>486.89</ele>
        <time>2011-10-15T13:33:59Z</time>
      </trkpt>
      <trkpt lat="42.88367" lon="2.26989">
        <ele>488.74</ele>
        <time>2011-10-15T13:34:08Z</time>
      </trkpt>
      <trkpt lat="42.88368" lon="2.27018">
        <ele>491.349</ele>
        <time>2011-10-15T13:34:19Z</time>
      </trkpt>
      <trkpt lat="42.88369" lon="2.27048">
        <ele>493.924</ele>
        <time>2011-10-15T13:34:30Z</time>
      </trkpt>
      <trkpt lat="42.8837" lon="2.27071">
        <ele>496.367</ele>
        <time>2011-10-15T13:34:39Z</time>
      </trkpt>
      <trkpt lat="42.8837" lon="2.27102">
        <ele>498.854</ele>
        <time>2011-10-15T13:34:51Z</time>
      </trkpt>
      <trkpt lat="42.88368" lon="2.27109">
        <ele>499.806</ele>
        <time>2011-10-15T13:34:54Z</time>
      </trkpt>
      <trkpt lat="42.88358" lon="2.27112">
        <ele>501.736</ele>
        <time>2011-10-15T13:35:00Z</time>
      </trkpt>
      <trkpt lat="42.88356" lon="2.27111">
        <ele>501.859</ele>
        <time>2011-10-15T13:35:01Z</time>
      </trkpt>
      <trkpt lat="42.88338" lon="2.27102">
        <ele>502.022</ele>
        <time>2011-10-15T13:35:09Z</time>
      </trkpt>
      <trkpt lat="42.88316" lon="2.27101">
        <ele>502.936</ele>
        <time>2011-10-15T13:35:16Z</time>
      </trkpt>
      <trkpt lat="42.88288" lon="2.27101">
        <ele>502.73</ele>
        <time>2011-10-15T13:35:24Z</time>
      </trkpt>
      <trkpt lat="42.88269" lon="2.27086">
        <ele>503.099</ele>
        <time>2011-10-15T13:35:30Z</time>
      </trkpt>
      <trkpt lat="42.88247" lon="2.27064">
        <ele>504.383</ele>
        <time>2011-10-15T13:35:38Z</time>
      </trkpt>
      <trkpt lat="42.88225" lon="2.27058">
        <ele>504.691</ele>
        <time>2011-10-15T13:35:44Z</time>
      </trkpt>
      <trkpt lat="42.8821" lon="2.27056">
        <ele>504.012</ele>
        <time>2011-10-15T13:35:47Z</time>
      </trkpt>
      <trkpt lat="42.88195" lon="2.27045">
        <ele>502.761</ele>
        <time>2011-10-15T13:35:50Z</time>
      </trkpt>
      <trkpt lat="42.88188" lon="2.27033">
        <ele>502.446</ele>
        <time>2011-10-15T13:35:52Z</time>
      </trkpt>
      <trkpt lat="42.88161" lon="2.26983">
        <ele>502.442</ele>
        <time>2011-10-15T13:36:01Z</time>
      </trkpt>
      <trkpt lat="42.8815" lon="2.26969">
        <ele>502.575</ele>
        <time>2011-10-15T13:36:04Z</time>
      </trkpt>
      <trkpt lat="42.88124" lon="2.26949">
        <ele>502.431</ele>
        <time>2011-10-15T13:36:10Z</time>
      </trkpt>
      <trkpt lat="42.88106" lon="2.26927">
        <ele>501.993</ele>
        <time>2011-10-15T13:36:15Z</time>
      </trkpt>
      <trkpt lat="42.88086" lon="2.26874">
        <ele>502.317</ele>
        <time>2011-10-15T13:36:24Z</time>
      </trkpt>
      <trkpt lat="42.88082" lon="2.26861">
        <ele>502.321</ele>
        <time>2011-10-15T13:36:26Z</time>
      </trkpt>
      <trkpt lat="42.88082" lon="2.26819">
        <ele>502.335</ele>
        <time>2011-10-15T13:36:32Z</time>
      </trkpt>
      <trkpt lat="42.88089" lon="2.26788">
        <ele>501.487</ele>
        <time>2011-10-15T13:36:37Z</time>
      </trkpt>
      <trkpt lat="42.88085" lon="2.26754">
        <ele>501.485</ele>
        <time>2011-10-15T13:36:42Z</time>
      </trkpt>
      <trkpt lat="42.88071" lon="2.26746">
        <ele>501.492</ele>
        <time>2011-10-15T13:36:45Z</time>
      </trkpt>
      <trkpt lat="42.8806" lon="2.26749">
        <ele>501.5</ele>
        <time>2011-10-15T13:36:47Z</time>
      </trkpt>
      <trkpt lat="42.88023" lon="2.26769">
        <ele>501.817</ele>
        <time>2011-10-15T13:36:55Z</time>
      </trkpt>
      <trkpt lat="42.88006" lon="2.2679">
        <ele>502.084</ele>
        <time>2011-10-15T13:37:00Z</time>
      </trkpt>
      <trkpt lat="42.87992" lon="2.26816">
        <ele>501.9</ele>
        <time>2011-10-15T13:37:05Z</time>
      </trkpt>
      <trkpt lat="42.87971" lon="2.26818">
        <ele>501.749</ele>
        <time>2011-10-15T13:37:09Z</time>
      </trkpt>
      <trkpt lat="42.87945" lon="2.268">
        <ele>501.537</ele>
        <time>2011-10-15T13:37:15Z</time>
      </trkpt>
      <trkpt lat="42.87942" lon="2.26795">
        <ele>501.51</ele>
        <time>2011-10-15T13:37:16Z</time>
      </trkpt>
      <trkpt lat="42.87925" lon="2.2676">
        <ele>501.133</ele>
        <time>2011-10-15T13:37:23Z</time>
      </trkpt>
      <trkpt lat="42.87921" lon="2.26753">
        <ele>500.609</ele>
        <time>2011-10-15T13:37:27Z</time>
      </trkpt>
      <trkpt lat="42.87921" lon="2.26753">
        <ele>500.403</ele>
        <time>2011-10-15T13:37:45Z</time>
      </trkpt>
      <trkpt lat="42.87917" lon="2.26745">
        <ele>498.047</ele>
        <time>2011-10-15T13:46:13Z</time>
      </trkpt>
      <trkpt lat="42.87909" lon="2.26735">
        <ele>498.275</ele>
        <time>2011-10-15T13:46:19Z</time>
      </trkpt>
      <trkpt lat="42.87902" lon="2.26724">
        <ele>498.316</ele>
        <time>2011-10-15T13:46:24Z</time>
      </trkpt>
      <trkpt lat="42.87899" lon="2.26726">
        <ele>498.187</ele>
        <time>2011-10-15T13:46:28Z</time>
      </trkpt>
      <trkpt lat="42.87898" lon="2.26726">
        <ele>497.705</ele>
        <time>2011-10-15T13:46:53Z</time>
      </trkpt>
      <trkpt lat="42.87897" lon="2.26723">
        <ele>497.461</ele>
        <time>2011-10-15T13:46:58Z</time>
      </trkpt>
      <trkpt lat="42.87895" lon="2.2672">
        <ele>497.678</ele>
        <time>2011-10-15T13:48:20Z</time>
      </trkpt>
      <trkpt lat="42.87894" lon="2.26709">
        <ele>496.883</ele>
        <time>2011-10-15T13:48:26Z</time>
      </trkpt>
      <trkpt lat="42.87891" lon="2.26687">
        <ele>495.126</ele>
        <time>2011-10-15T13:48:30Z</time>
      </trkpt>
      <trkpt lat="42.8789" lon="2.26678">
        <ele>494.217</ele>
        <time>2011-10-15T13:48:32Z</time>
      </trkpt>
      <trkpt lat="42.87881" lon="2.26652">
        <ele>493.013</ele>
        <time>2011-10-15T13:48:39Z</time>
      </trkpt>
      <trkpt lat="42.87869" lon="2.26616">
        <ele>492.153</ele>
        <time>2011-10-15T13:48:47Z</time>
      </trkpt>
      <trkpt lat="42.8786" lon="2.26584">
        <ele>490.792</ele>
        <time>2011-10-15T13:48:53Z</time>
      </trkpt>
      <trkpt lat="42.87859" lon="2.26571">
        <ele>490.163</ele>
        <time>2011-10-15T13:48:55Z</time>
      </trkpt>
      <trkpt lat="42.87861" lon="2.26511">
        <ele>488.076</ele>
        <time>2011-10-15T13:49:02Z</time>
      </trkpt>
      <trkpt lat="42.8786" lon="2.26493">
        <ele>487.783</ele>
        <time>2011-10-15T13:49:04Z</time>
      </trkpt>
      <trkpt lat="42.87852" lon="2.26468">
        <ele>486.546</ele>
        <time>2011-10-15T13:49:08Z</time>
      </trkpt>
      <trkpt lat="42.87832" lon="2.26435">
        <ele>483.943</ele>
        <time>2011-10-15T13:49:14Z</time>
      </trkpt>
      <trkpt lat="42.87822" lon="2.26416">
        <ele>482.49</ele>
        <time>2011-10-15T13:49:18Z</time>
      </trkpt>
      <trkpt lat="42.87815" lon="2.26373">
        <ele>479.555</ele>
        <time>2011-10-15T13:49:25Z</time>
      </trkpt>
      <trkpt lat="42.87811" lon="2.26328">
        <ele>475.918</ele>
        <time>2011-10-15T13:49:31Z</time>
      </trkpt>
      <trkpt lat="42.87814" lon="2.26303">
        <ele>473.439</ele>
        <time>2011-10-15T13:49:35Z</time>
      </trkpt>
      <trkpt lat="42.87809" lon="2.26268">
        <ele>470.829</ele>
        <time>2011-10-15T13:49:40Z</time>
      </trkpt>
      <trkpt lat="42.87804" lon="2.26238">
        <ele>470.104</ele>
        <time>2011-10-15T13:49:44Z</time>
      </trkpt>
      <trkpt lat="42.87801" lon="2.26212">
        <ele>469.636</ele>
        <time>2011-10-15T13:49:48Z</time>
      </trkpt>
      <trkpt lat="42.87804" lon="2.26173">
        <ele>469.117</ele>
        <time>2011-10-15T13:49:55Z</time>
      </trkpt>
      <trkpt lat="42.87813" lon="2.26148">
        <ele>469.411</ele>
        <time>2011-10-15T13:50:01Z</time>
      </trkpt>
      <trkpt lat="42.87819" lon="2.26135">
        <ele>470.213</ele>
        <time>2011-10-15T13:50:06Z</time>
      </trkpt>
      <trkpt lat="42.8783" lon="2.26117">
        <ele>472.153</ele>
        <time>2011-10-15T13:50:14Z</time>
      </trkpt>
      <trkpt lat="42.87831" lon="2.26101">
        <ele>472.568</ele>
        <time>2011-10-15T13:50:20Z</time>
      </trkpt>
      <trkpt lat="42.87832" lon="2.26075">
        <ele>472.414</ele>
        <time>2011-10-15T13:50:29Z</time>
      </trkpt>
      <trkpt lat="42.87834" lon="2.26051">
        <ele>471.255</ele>
        <time>2011-10-15T13:50:36Z</time>
      </trkpt>
      <trkpt lat="42.87835" lon="2.2602">
        <ele>469.599</ele>
        <time>2011-10-15T13:50:43Z</time>
      </trkpt>
      <trkpt lat="42.87838" lon="2.25987">
        <ele>467.09</ele>
        <time>2011-10-15T13:50:50Z</time>
      </trkpt>
      <trkpt lat="42.87836" lon="2.25964">
        <ele>465.333</ele>
        <time>2011-10-15T13:50:55Z</time>
      </trkpt>
      <trkpt lat="42.87832" lon="2.2594">
        <ele>464.195</ele>
        <time>2011-10-15T13:51:00Z</time>
      </trkpt>
      <trkpt lat="42.87827" lon="2.25905">
        <ele>461.286</ele>
        <time>2011-10-15T13:51:06Z</time>
      </trkpt>
      <trkpt lat="42.87821" lon="2.25876">
        <ele>459.256</ele>
        <time>2011-10-15T13:51:12Z</time>
      </trkpt>
      <trkpt lat="42.8782" lon="2.25864">
        <ele>457.93</ele>
        <time>2011-10-15T13:51:15Z</time>
      </trkpt>
      <trkpt lat="42.87811" lon="2.25836">
        <ele>453.819</ele>
        <time>2011-10-15T13:51:20Z</time>
      </trkpt>
      <trkpt lat="42.8781" lon="2.25831">
        <ele>453.1</ele>
        <time>2011-10-15T13:51:21Z</time>
      </trkpt>
      <trkpt lat="42.87806" lon="2.25812">
        <ele>449.737</ele>
        <time>2011-10-15T13:51:26Z</time>
      </trkpt>
      <trkpt lat="42.878" lon="2.25792">
        <ele>447.543</ele>
        <time>2011-10-15T13:51:32Z</time>
      </trkpt>
      <trkpt lat="42.87793" lon="2.25772">
        <ele>445.319</ele>
        <time>2011-10-15T13:51:37Z</time>
      </trkpt>
      <trkpt lat="42.87788" lon="2.25749">
        <ele>442.438</ele>
        <time>2011-10-15T13:51:42Z</time>
      </trkpt>
      <trkpt lat="42.87782" lon="2.25725">
        <ele>439.356</ele>
        <time>2011-10-15T13:51:48Z</time>
      </trkpt>
      <trkpt lat="42.87777" lon="2.25708">
        <ele>437.587</ele>
        <time>2011-10-15T13:51:52Z</time>
      </trkpt>
      <trkpt lat="42.87763" lon="2.25687">
        <ele>434.209</ele>
        <time>2011-10-15T13:51:58Z</time>
      </trkpt>
      <trkpt lat="42.87751" lon="2.25664">
        <ele>431.924</ele>
        <time>2011-10-15T13:52:04Z</time>
      </trkpt>
      <trkpt lat="42.8775" lon="2.25636">
        <ele>429.738</ele>
        <time>2011-10-15T13:52:10Z</time>
      </trkpt>
      <trkpt lat="42.87754" lon="2.25622">
        <ele>428.251</ele>
        <time>2011-10-15T13:52:14Z</time>
      </trkpt>
      <trkpt lat="42.87757" lon="2.25598">
        <ele>425.069</ele>
        <time>2011-10-15T13:52:20Z</time>
      </trkpt>
      <trkpt lat="42.87756" lon="2.25567">
        <ele>422.367</ele>
        <time>2011-10-15T13:52:26Z</time>
      </trkpt>
      <trkpt lat="42.87752" lon="2.25544">
        <ele>420.353</ele>
        <time>2011-10-15T13:52:31Z</time>
      </trkpt>
      <trkpt lat="42.87746" lon="2.25518">
        <ele>418.139</ele>
        <time>2011-10-15T13:52:37Z</time>
      </trkpt>
      <trkpt lat="42.8774" lon="2.25496">
        <ele>414.789</ele>
        <time>2011-10-15T13:52:42Z</time>
      </trkpt>
      <trkpt lat="42.87734" lon="2.25474">
        <ele>411.683</ele>
        <time>2011-10-15T13:52:47Z</time>
      </trkpt>
      <trkpt lat="42.87734" lon="2.25471">
        <ele>410.004</ele>
        <time>2011-10-15T13:52:51Z</time>
      </trkpt>
      <trkpt lat="42.87733" lon="2.25466">
        <ele>409.039</ele>
        <time>2011-10-15T13:53:02Z</time>
      </trkpt>
      <trkpt lat="42.87723" lon="2.25446">
        <ele>407.821</ele>
        <time>2011-10-15T13:53:07Z</time>
      </trkpt>
      <trkpt lat="42.87715" lon="2.25428">
        <ele>406.216</ele>
        <time>2011-10-15T13:53:12Z</time>
      </trkpt>
      <trkpt lat="42.87707" lon="2.25406">
        <ele>404.186</ele>
        <time>2011-10-15T13:53:17Z</time>
      </trkpt>
      <trkpt lat="42.87698" lon="2.25387">
        <ele>401.651</ele>
        <time>2011-10-15T13:53:22Z</time>
      </trkpt>
      <trkpt lat="42.87687" lon="2.25369">
        <ele>398.716</ele>
        <time>2011-10-15T13:53:28Z</time>
      </trkpt>
      <trkpt lat="42.87679" lon="2.25352">
        <ele>395.376</ele>
        <time>2011-10-15T13:53:33Z</time>
      </trkpt>
      <trkpt lat="42.87673" lon="2.25344">
        <ele>392.047</ele>
        <time>2011-10-15T13:53:37Z</time>
      </trkpt>
      <trkpt lat="42.87673" lon="2.25344">
        <ele>390.793</ele>
        <time>2011-10-15T13:53:40Z</time>
      </trkpt>
      <trkpt lat="42.87673" lon="2.25342">
        <ele>391.16</ele>
        <time>2011-10-15T13:53:48Z</time>
      </trkpt>
      <trkpt lat="42.87673" lon="2.25342">
        <ele>390.837</ele>
        <time>2011-10-15T13:54:41Z</time>
      </trkpt>
      <trkpt lat="42.8767" lon="2.25331">
        <ele>389.311</ele>
        <time>2011-10-15T13:54:49Z</time>
      </trkpt>
      <trkpt lat="42.87668" lon="2.2532">
        <ele>387.681</ele>
        <time>2011-10-15T13:54:54Z</time>
      </trkpt>
      <trkpt lat="42.87662" lon="2.25298">
        <ele>385.66</ele>
        <time>2011-10-15T13:55:01Z</time>
      </trkpt>
      <trkpt lat="42.87658" lon="2.2528">
        <ele>384.217</ele>
        <time>2011-10-15T13:55:06Z</time>
      </trkpt>
      <trkpt lat="42.87652" lon="2.25259">
        <ele>381.333</ele>
        <time>2011-10-15T13:55:12Z</time>
      </trkpt>
      <trkpt lat="42.87643" lon="2.25234">
        <ele>378.086</ele>
        <time>2011-10-15T13:55:19Z</time>
      </trkpt>
      <trkpt lat="42.87638" lon="2.25217">
        <ele>376.984</ele>
        <time>2011-10-15T13:55:24Z</time>
      </trkpt>
      <trkpt lat="42.87627" lon="2.25199">
        <ele>375.456</ele>
        <time>2011-10-15T13:55:29Z</time>
      </trkpt>
      <trkpt lat="42.87621" lon="2.2519">
        <ele>375.836</ele>
        <time>2011-10-15T13:55:33Z</time>
      </trkpt>
      <trkpt lat="42.87614" lon="2.25173">
        <ele>375.4</ele>
        <time>2011-10-15T13:55:37Z</time>
      </trkpt>
      <trkpt lat="42.87611" lon="2.25152">
        <ele>372.799</ele>
        <time>2011-10-15T13:55:42Z</time>
      </trkpt>
      <trkpt lat="42.87611" lon="2.25146">
        <ele>371.689</ele>
        <time>2011-10-15T13:55:44Z</time>
      </trkpt>
      <trkpt lat="42.87599" lon="2.25127">
        <ele>368.759</ele>
        <time>2011-10-15T13:55:50Z</time>
      </trkpt>
      <trkpt lat="42.87589" lon="2.25131">
        <ele>366.898</ele>
        <time>2011-10-15T13:55:54Z</time>
      </trkpt>
      <trkpt lat="42.87582" lon="2.25129">
        <ele>365.228</ele>
        <time>2011-10-15T13:55:58Z</time>
      </trkpt>
      <trkpt lat="42.87585" lon="2.25116">
        <ele>362.709</ele>
        <time>2011-10-15T13:56:03Z</time>
      </trkpt>
      <trkpt lat="42.87591" lon="2.25099">
        <ele>361.434</ele>
        <time>2011-10-15T13:56:07Z</time>
      </trkpt>
      <trkpt lat="42.87593" lon="2.25076">
        <ele>358.225</ele>
        <time>2011-10-15T13:56:12Z</time>
      </trkpt>
      <trkpt lat="42.87592" lon="2.25071">
        <ele>357.627</ele>
        <time>2011-10-15T13:56:14Z</time>
      </trkpt>
      <trkpt lat="42.87589" lon="2.25056">
        <ele>355.46</ele>
        <time>2011-10-15T13:56:19Z</time>
      </trkpt>
      <trkpt lat="42.87593" lon="2.25031">
        <ele>353.064</ele>
        <time>2011-10-15T13:56:24Z</time>
      </trkpt>
      <trkpt lat="42.87597" lon="2.25014">
        <ele>350.637</ele>
        <time>2011-10-15T13:56:28Z</time>
      </trkpt>
      <trkpt lat="42.87596" lon="2.25004">
        <ele>348.66</ele>
        <time>2011-10-15T13:56:31Z</time>
      </trkpt>
      <trkpt lat="42.87588" lon="2.25008">
        <ele>347.057</ele>
        <time>2011-10-15T13:56:34Z</time>
      </trkpt>
      <trkpt lat="42.87586" lon="2.25012">
        <ele>346.618</ele>
        <time>2011-10-15T13:56:35Z</time>
      </trkpt>
      <trkpt lat="42.8758" lon="2.25028">
        <ele>345.434</ele>
        <time>2011-10-15T13:56:39Z</time>
      </trkpt>
      <trkpt lat="42.87572" lon="2.25027">
        <ele>343.619</ele>
        <time>2011-10-15T13:56:43Z</time>
      </trkpt>
      <trkpt lat="42.87569" lon="2.25026">
        <ele>343.279</ele>
        <time>2011-10-15T13:56:44Z</time>
      </trkpt>
      <trkpt lat="42.87557" lon="2.25019">
        <ele>343.327</ele>
        <time>2011-10-15T13:56:52Z</time>
      </trkpt>
      <trkpt lat="42.87548" lon="2.25014">
        <ele>343.484</ele>
        <time>2011-10-15T13:57:00Z</time>
      </trkpt>
      <trkpt lat="42.87545" lon="2.25013">
        <ele>343.655</ele>
        <time>2011-10-15T13:57:05Z</time>
      </trkpt>
      <trkpt lat="42.87541" lon="2.2501">
        <ele>343.372</ele>
        <time>2011-10-15T13:59:51Z</time>
      </trkpt>
      <trkpt lat="42.87535" lon="2.24995">
        <ele>343.945</ele>
        <time>2011-10-15T13:59:59Z</time>
      </trkpt>
      <trkpt lat="42.87533" lon="2.2497">
        <ele>344.01</ele>
        <time>2011-10-15T14:00:07Z</time>
      </trkpt>
      <trkpt lat="42.87532" lon="2.24943">
        <ele>344.473</ele>
        <time>2011-10-15T14:00:16Z</time>
      </trkpt>
      <trkpt lat="42.87533" lon="2.24908">
        <ele>344.334</ele>
        <time>2011-10-15T14:00:26Z</time>
      </trkpt>
      <trkpt lat="42.87532" lon="2.24874">
        <ele>344.281</ele>
        <time>2011-10-15T14:00:35Z</time>
      </trkpt>
      <trkpt lat="42.87526" lon="2.24848">
        <ele>344.285</ele>
        <time>2011-10-15T14:00:44Z</time>
      </trkpt>
      <trkpt lat="42.87516" lon="2.24843">
        <ele>344.314</ele>
        <time>2011-10-15T14:00:48Z</time>
      </trkpt>
      <trkpt lat="42.87492" lon="2.24845">
        <ele>341.761</ele>
        <time>2011-10-15T14:00:55Z</time>
      </trkpt>
      <trkpt lat="42.87474" lon="2.24841">
        <ele>340.391</ele>
        <time>2011-10-15T14:01:01Z</time>
      </trkpt>
      <trkpt lat="42.87457" lon="2.2484">
        <ele>338.439</ele>
        <time>2011-10-15T14:01:08Z</time>
      </trkpt>
      <trkpt lat="42.87447" lon="2.24848">
        <ele>337.932</ele>
        <time>2011-10-15T14:01:13Z</time>
      </trkpt>
      <trkpt lat="42.87435" lon="2.24866">
        <ele>338.15</ele>
        <time>2011-10-15T14:01:21Z</time>
      </trkpt>
      <trkpt lat="42.87416" lon="2.2489">
        <ele>338.23</ele>
        <time>2011-10-15T14:01:30Z</time>
      </trkpt>
      <trkpt lat="42.87407" lon="2.24894">
        <ele>338.167</ele>
        <time>2011-10-15T14:01:33Z</time>
      </trkpt>
      <trkpt lat="42.87388" lon="2.24882">
        <ele>336.924</ele>
        <time>2011-10-15T14:01:38Z</time>
      </trkpt>
      <trkpt lat="42.87373" lon="2.24856">
        <ele>336.589</ele>
        <time>2011-10-15T14:01:45Z</time>
      </trkpt>
      <trkpt lat="42.87368" lon="2.24844">
        <ele>338.189</ele>
        <time>2011-10-15T14:01:51Z</time>
      </trkpt>
      <trkpt lat="42.87367" lon="2.24841">
        <ele>338.57</ele>
        <time>2011-10-15T14:01:59Z</time>
      </trkpt>
      <trkpt lat="42.87355" lon="2.24838">
        <ele>340.375</ele>
        <time>2011-10-15T14:02:06Z</time>
      </trkpt>
      <trkpt lat="42.87344" lon="2.24843">
        <ele>341.75</ele>
        <time>2011-10-15T14:02:13Z</time>
      </trkpt>
      <trkpt lat="42.87333" lon="2.2485">
        <ele>343.36</ele>
        <time>2011-10-15T14:02:21Z</time>
      </trkpt>
      <trkpt lat="42.87324" lon="2.24854">
        <ele>344.642</ele>
        <time>2011-10-15T14:02:26Z</time>
      </trkpt>
      <trkpt lat="42.87311" lon="2.24853">
        <ele>346.167</ele>
        <time>2011-10-15T14:02:34Z</time>
      </trkpt>
      <trkpt lat="42.87301" lon="2.24847">
        <ele>347.602</ele>
        <time>2011-10-15T14:02:40Z</time>
      </trkpt>
      <trkpt lat="42.87289" lon="2.24838">
        <ele>349.779</ele>
        <time>2011-10-15T14:02:48Z</time>
      </trkpt>
      <trkpt lat="42.87277" lon="2.24826">
        <ele>350.71</ele>
        <time>2011-10-15T14:02:56Z</time>
      </trkpt>
      <trkpt lat="42.87264" lon="2.24813">
        <ele>351.547</ele>
        <time>2011-10-15T14:03:05Z</time>
      </trkpt>
      <trkpt lat="42.87251" lon="2.24799">
        <ele>352.411</ele>
        <time>2011-10-15T14:03:15Z</time>
      </trkpt>
      <trkpt lat="42.87235" lon="2.24785">
        <ele>353.482</ele>
        <time>2011-10-15T14:03:26Z</time>
      </trkpt>
      <trkpt lat="42.87222" lon="2.24772">
        <ele>354.44</ele>
        <time>2011-10-15T14:03:36Z</time>
      </trkpt>
      <trkpt lat="42.87207" lon="2.24758">
        <ele>356.311</ele>
        <time>2011-10-15T14:03:46Z</time>
      </trkpt>
      <trkpt lat="42.87201" lon="2.24754">
        <ele>357.026</ele>
        <time>2011-10-15T14:03:50Z</time>
      </trkpt>
      <trkpt lat="42.87191" lon="2.24743">
        <ele>357.269</ele>
        <time>2011-10-15T14:03:58Z</time>
      </trkpt>
      <trkpt lat="42.87179" lon="2.24731">
        <ele>358.118</ele>
        <time>2011-10-15T14:04:07Z</time>
      </trkpt>
      <trkpt lat="42.87173" lon="2.24724">
        <ele>358.743</ele>
        <time>2011-10-15T14:04:12Z</time>
      </trkpt>
      <trkpt lat="42.87158" lon="2.24712">
        <ele>359.149</ele>
        <time>2011-10-15T14:04:22Z</time>
      </trkpt>
      <trkpt lat="42.87148" lon="2.24704">
        <ele>360.565</ele>
        <time>2011-10-15T14:04:29Z</time>
      </trkpt>
      <trkpt lat="42.87135" lon="2.24694">
        <ele>362.259</ele>
        <time>2011-10-15T14:04:38Z</time>
      </trkpt>
      <trkpt lat="42.87124" lon="2.24685">
        <ele>363.44</ele>
        <time>2011-10-15T14:04:45Z</time>
      </trkpt>
      <trkpt lat="42.87109" lon="2.24672">
        <ele>365.892</ele>
        <time>2011-10-15T14:04:56Z</time>
      </trkpt>
      <trkpt lat="42.87096" lon="2.24663">
        <ele>367.62</ele>
        <time>2011-10-15T14:05:05Z</time>
      </trkpt>
      <trkpt lat="42.87082" lon="2.24651">
        <ele>369.737</ele>
        <time>2011-10-15T14:05:15Z</time>
      </trkpt>
      <trkpt lat="42.8707" lon="2.24642">
        <ele>371.198</ele>
        <time>2011-10-15T14:05:23Z</time>
      </trkpt>
      <trkpt lat="42.87056" lon="2.2463">
        <ele>372.624</ele>
        <time>2011-10-15T14:05:33Z</time>
      </trkpt>
      <trkpt lat="42.87044" lon="2.24622">
        <ele>374.716</ele>
        <time>2011-10-15T14:05:41Z</time>
      </trkpt>
      <trkpt lat="42.8703" lon="2.24611">
        <ele>376.787</ele>
        <time>2011-10-15T14:05:50Z</time>
      </trkpt>
      <trkpt lat="42.87019" lon="2.24605">
        <ele>377.398</ele>
        <time>2011-10-15T14:05:57Z</time>
      </trkpt>
      <trkpt lat="42.87006" lon="2.24604">
        <ele>377.717</ele>
        <time>2011-10-15T14:06:05Z</time>
      </trkpt>
      <trkpt lat="42.86992" lon="2.24606">
        <ele>378.27</ele>
        <time>2011-10-15T14:06:14Z</time>
      </trkpt>
      <trkpt lat="42.86973" lon="2.24606">
        <ele>379.633</ele>
        <time>2011-10-15T14:06:24Z</time>
      </trkpt>
      <trkpt lat="42.86955" lon="2.24603">
        <ele>382.159</ele>
        <time>2011-10-15T14:06:34Z</time>
      </trkpt>
      <trkpt lat="42.86937" lon="2.246">
        <ele>383.959</ele>
        <time>2011-10-15T14:06:44Z</time>
      </trkpt>
      <trkpt lat="42.86921" lon="2.24603">
        <ele>386.252</ele>
        <time>2011-10-15T14:06:53Z</time>
      </trkpt>
      <trkpt lat="42.86905" lon="2.24609">
        <ele>387.114</ele>
        <time>2011-10-15T14:07:02Z</time>
      </trkpt>
      <trkpt lat="42.86892" lon="2.2461">
        <ele>388.389</ele>
        <time>2011-10-15T14:07:09Z</time>
      </trkpt>
      <trkpt lat="42.86872" lon="2.24599">
        <ele>389.898</ele>
        <time>2011-10-15T14:07:21Z</time>
      </trkpt>
      <trkpt lat="42.86856" lon="2.24593">
        <ele>391.627</ele>
        <time>2011-10-15T14:07:30Z</time>
      </trkpt>
      <trkpt lat="42.86848" lon="2.24596">
        <ele>392.675</ele>
        <time>2011-10-15T14:07:37Z</time>
      </trkpt>
      <trkpt lat="42.86845" lon="2.24595">
        <ele>393.263</ele>
        <time>2011-10-15T14:08:58Z</time>
      </trkpt>
      <trkpt lat="42.86843" lon="2.24593">
        <ele>392.773</ele>
        <time>2011-10-15T14:09:47Z</time>
      </trkpt>
      <trkpt lat="42.86848" lon="2.24597">
        <ele>392.508</ele>
        <time>2011-10-15T14:10:05Z</time>
      </trkpt>
      <trkpt lat="42.86842" lon="2.24608">
        <ele>392.386</ele>
        <time>2011-10-15T14:10:11Z</time>
      </trkpt>
      <trkpt lat="42.86839" lon="2.24613">
        <ele>392.78</ele>
        <time>2011-10-15T14:10:13Z</time>
      </trkpt>
      <trkpt lat="42.86834" lon="2.24621">
        <ele>393.504</ele>
        <time>2011-10-15T14:10:16Z</time>
      </trkpt>
      <trkpt lat="42.86818" lon="2.24632">
        <ele>395.215</ele>
        <time>2011-10-15T14:10:24Z</time>
      </trkpt>
      <trkpt lat="42.86803" lon="2.24632">
        <ele>396.987</ele>
        <time>2011-10-15T14:10:30Z</time>
      </trkpt>
      <trkpt lat="42.86789" lon="2.24639">
        <ele>398.838</ele>
        <time>2011-10-15T14:10:37Z</time>
      </trkpt>
      <trkpt lat="42.86775" lon="2.24648">
        <ele>399.202</ele>
        <time>2011-10-15T14:10:43Z</time>
      </trkpt>
      <trkpt lat="42.86753" lon="2.24661">
        <ele>399.292</ele>
        <time>2011-10-15T14:10:51Z</time>
      </trkpt>
      <trkpt lat="42.86726" lon="2.24679">
        <ele>398.793</ele>
        <time>2011-10-15T14:11:00Z</time>
      </trkpt>
      <trkpt lat="42.86719" lon="2.24679">
        <ele>398.882</ele>
        <time>2011-10-15T14:11:02Z</time>
      </trkpt>
      <trkpt lat="42.86705" lon="2.24665">
        <ele>399.534</ele>
        <time>2011-10-15T14:11:08Z</time>
      </trkpt>
      <trkpt lat="42.8669" lon="2.24648">
        <ele>400.972</ele>
        <time>2011-10-15T14:11:15Z</time>
      </trkpt>
      <trkpt lat="42.86667" lon="2.24622">
        <ele>402.522</ele>
        <time>2011-10-15T14:11:24Z</time>
      </trkpt>
      <trkpt lat="42.86648" lon="2.24599">
        <ele>401.76</ele>
        <time>2011-10-15T14:11:30Z</time>
      </trkpt>
      <trkpt lat="42.8663" lon="2.24572">
        <ele>401.589</ele>
        <time>2011-10-15T14:11:36Z</time>
      </trkpt>
      <trkpt lat="42.86612" lon="2.24564">
        <ele>402.53</ele>
        <time>2011-10-15T14:11:41Z</time>
      </trkpt>
      <trkpt lat="42.86594" lon="2.24557">
        <ele>404.606</ele>
        <time>2011-10-15T14:11:47Z</time>
      </trkpt>
      <trkpt lat="42.86572" lon="2.24554">
        <ele>404.862</ele>
        <time>2011-10-15T14:11:53Z</time>
      </trkpt>
      <trkpt lat="42.86564" lon="2.24554">
        <ele>404.768</ele>
        <time>2011-10-15T14:11:55Z</time>
      </trkpt>
      <trkpt lat="42.86538" lon="2.24542">
        <ele>405.545</ele>
        <time>2011-10-15T14:12:02Z</time>
      </trkpt>
      <trkpt lat="42.86519" lon="2.24529">
        <ele>406.427</ele>
        <time>2011-10-15T14:12:08Z</time>
      </trkpt>
      <trkpt lat="42.86508" lon="2.24516">
        <ele>405.585</ele>
        <time>2011-10-15T14:12:11Z</time>
      </trkpt>
      <trkpt lat="42.86494" lon="2.24477">
        <ele>402.908</ele>
        <time>2011-10-15T14:12:16Z</time>
      </trkpt>
      <trkpt lat="42.86474" lon="2.24426">
        <ele>398.452</ele>
        <time>2011-10-15T14:12:21Z</time>
      </trkpt>
      <trkpt lat="42.86459" lon="2.24403">
        <ele>395.582</ele>
        <time>2011-10-15T14:12:24Z</time>
      </trkpt>
      <trkpt lat="42.86433" lon="2.24379">
        <ele>392.232</ele>
        <time>2011-10-15T14:12:28Z</time>
      </trkpt>
      <trkpt lat="42.86422" lon="2.24366">
        <ele>391.596</ele>
        <time>2011-10-15T14:12:30Z</time>
      </trkpt>
      <trkpt lat="42.86417" lon="2.24341">
        <ele>391.285</ele>
        <time>2011-10-15T14:12:33Z</time>
      </trkpt>
      <trkpt lat="42.8642" lon="2.24324">
        <ele>390.896</ele>
        <time>2011-10-15T14:12:35Z</time>
      </trkpt>
      <trkpt lat="42.86424" lon="2.24306">
        <ele>390.141</ele>
        <time>2011-10-15T14:12:37Z</time>
      </trkpt>
      <trkpt lat="42.86423" lon="2.24265">
        <ele>388.858</ele>
        <time>2011-10-15T14:12:41Z</time>
      </trkpt>
      <trkpt lat="42.86419" lon="2.24256">
        <ele>388.376</ele>
        <time>2011-10-15T14:12:42Z</time>
      </trkpt>
      <trkpt lat="42.86396" lon="2.24236">
        <ele>385.657</ele>
        <time>2011-10-15T14:12:47Z</time>
      </trkpt>
      <trkpt lat="42.86379" lon="2.2423">
        <ele>384.219</ele>
        <time>2011-10-15T14:12:50Z</time>
      </trkpt>
      <trkpt lat="42.86353" lon="2.24211">
        <ele>380.731</ele>
        <time>2011-10-15T14:12:54Z</time>
      </trkpt>
      <trkpt lat="42.86331" lon="2.24201">
        <ele>377.231</ele>
        <time>2011-10-15T14:12:57Z</time>
      </trkpt>
      <trkpt lat="42.863" lon="2.24166">
        <ele>373.301</ele>
        <time>2011-10-15T14:13:02Z</time>
      </trkpt>
      <trkpt lat="42.86295" lon="2.24146">
        <ele>372.623</ele>
        <time>2011-10-15T14:13:04Z</time>
      </trkpt>
      <trkpt lat="42.86294" lon="2.24135">
        <ele>371.924</ele>
        <time>2011-10-15T14:13:05Z</time>
      </trkpt>
      <trkpt lat="42.86292" lon="2.24113">
        <ele>370.857</ele>
        <time>2011-10-15T14:13:07Z</time>
      </trkpt>
      <trkpt lat="42.86279" lon="2.24032">
        <ele>366.939</ele>
        <time>2011-10-15T14:13:14Z</time>
      </trkpt>
      <trkpt lat="42.86265" lon="2.23987">
        <ele>363.953</ele>
        <time>2011-10-15T14:13:18Z</time>
      </trkpt>
      <trkpt lat="42.86263" lon="2.23977">
        <ele>362.917</ele>
        <time>2011-10-15T14:13:19Z</time>
      </trkpt>
      <trkpt lat="42.86243" lon="2.23943">
        <ele>357.512</ele>
        <time>2011-10-15T14:13:23Z</time>
      </trkpt>
      <trkpt lat="42.86237" lon="2.23937">
        <ele>356.389</ele>
        <time>2011-10-15T14:13:24Z</time>
      </trkpt>
      <trkpt lat="42.86208" lon="2.23903">
        <ele>353.057</ele>
        <time>2011-10-15T14:13:29Z</time>
      </trkpt>
      <trkpt lat="42.86193" lon="2.23859">
        <ele>349.615</ele>
        <time>2011-10-15T14:13:33Z</time>
      </trkpt>
      <trkpt lat="42.86175" lon="2.23821">
        <ele>346.46</ele>
        <time>2011-10-15T14:13:37Z</time>
      </trkpt>
      <trkpt lat="42.86149" lon="2.23793">
        <ele>344.043</ele>
        <time>2011-10-15T14:13:41Z</time>
      </trkpt>
      <trkpt lat="42.86116" lon="2.23762">
        <ele>343.002</ele>
        <time>2011-10-15T14:13:46Z</time>
      </trkpt>
      <trkpt lat="42.86097" lon="2.23728">
        <ele>340.588</ele>
        <time>2011-10-15T14:13:50Z</time>
      </trkpt>
      <trkpt lat="42.86093" lon="2.23725">
        <ele>338.915</ele>
        <time>2011-10-15T14:13:52Z</time>
      </trkpt>
      <trkpt lat="42.86092" lon="2.23727">
        <ele>338.386</ele>
        <time>2011-10-15T14:13:53Z</time>
      </trkpt>
      <trkpt lat="42.86088" lon="2.23736">
        <ele>337.525</ele>
        <time>2011-10-15T14:13:56Z</time>
      </trkpt>
      <trkpt lat="42.86083" lon="2.23748">
        <ele>335.154</ele>
        <time>2011-10-15T14:14:00Z</time>
      </trkpt>
      <trkpt lat="42.86076" lon="2.23759">
        <ele>333.959</ele>
        <time>2011-10-15T14:14:03Z</time>
      </trkpt>
      <trkpt lat="42.86066" lon="2.23794">
        <ele>331.377</ele>
        <time>2011-10-15T14:14:07Z</time>
      </trkpt>
      <trkpt lat="42.86054" lon="2.23818">
        <ele>328.938</ele>
        <time>2011-10-15T14:14:10Z</time>
      </trkpt>
      <trkpt lat="42.86028" lon="2.23843">
        <ele>324.762</ele>
        <time>2011-10-15T14:14:15Z</time>
      </trkpt>
      <trkpt lat="42.86019" lon="2.23838">
        <ele>324.1</ele>
        <time>2011-10-15T14:14:17Z</time>
      </trkpt>
      <trkpt lat="42.86016" lon="2.23833">
        <ele>324.027</ele>
        <time>2011-10-15T14:14:18Z</time>
      </trkpt>
      <trkpt lat="42.85998" lon="2.23816">
        <ele>324.181</ele>
        <time>2011-10-15T14:14:23Z</time>
      </trkpt>
      <trkpt lat="42.85988" lon="2.23821">
        <ele>323.809</ele>
        <time>2011-10-15T14:14:25Z</time>
      </trkpt>
      <trkpt lat="42.85972" lon="2.23832">
        <ele>323.014</ele>
        <time>2011-10-15T14:14:28Z</time>
      </trkpt>
      <trkpt lat="42.85961" lon="2.23843">
        <ele>322.343</ele>
        <time>2011-10-15T14:14:30Z</time>
      </trkpt>
      <trkpt lat="42.85925" lon="2.23869">
        <ele>318.834</ele>
        <time>2011-10-15T14:14:35Z</time>
      </trkpt>
      <trkpt lat="42.85899" lon="2.23873">
        <ele>318.392</ele>
        <time>2011-10-15T14:14:39Z</time>
      </trkpt>
      <trkpt lat="42.85882" lon="2.23858">
        <ele>318.489</ele>
        <time>2011-10-15T14:14:43Z</time>
      </trkpt>
      <trkpt lat="42.85879" lon="2.23853">
        <ele>318.459</ele>
        <time>2011-10-15T14:14:44Z</time>
      </trkpt>
      <trkpt lat="42.85859" lon="2.23815">
        <ele>319.119</ele>
        <time>2011-10-15T14:14:52Z</time>
      </trkpt>
      <trkpt lat="42.85852" lon="2.23802">
        <ele>320.578</ele>
        <time>2011-10-15T14:14:56Z</time>
      </trkpt>
      <trkpt lat="42.85846" lon="2.23796">
        <ele>320.963</ele>
        <time>2011-10-15T14:14:58Z</time>
      </trkpt>
      <trkpt lat="42.85824" lon="2.23792">
        <ele>321.073</ele>
        <time>2011-10-15T14:15:03Z</time>
      </trkpt>
      <trkpt lat="42.85809" lon="2.23808">
        <ele>320.657</ele>
        <time>2011-10-15T14:15:08Z</time>
      </trkpt>
      <trkpt lat="42.85795" lon="2.23827">
        <ele>321.637</ele>
        <time>2011-10-15T14:15:14Z</time>
      </trkpt>
      <trkpt lat="42.85784" lon="2.23838">
        <ele>323.168</ele>
        <time>2011-10-15T14:15:19Z</time>
      </trkpt>
      <trkpt lat="42.85768" lon="2.23846">
        <ele>325.055</ele>
        <time>2011-10-15T14:15:26Z</time>
      </trkpt>
      <trkpt lat="42.85749" lon="2.23862">
        <ele>326.4</ele>
        <time>2011-10-15T14:15:35Z</time>
      </trkpt>
      <trkpt lat="42.85732" lon="2.23886">
        <ele>327.992</ele>
        <time>2011-10-15T14:15:44Z</time>
      </trkpt>
      <trkpt lat="42.85718" lon="2.23903">
        <ele>329.46</ele>
        <time>2011-10-15T14:15:52Z</time>
      </trkpt>
      <trkpt lat="42.85705" lon="2.23919">
        <ele>331.275</ele>
        <time>2011-10-15T14:15:59Z</time>
      </trkpt>
      <trkpt lat="42.85692" lon="2.23939">
        <ele>333.433</ele>
        <time>2011-10-15T14:16:08Z</time>
      </trkpt>
      <trkpt lat="42.85682" lon="2.23959">
        <ele>335.845</ele>
        <time>2011-10-15T14:16:16Z</time>
      </trkpt>
      <trkpt lat="42.85671" lon="2.23975">
        <ele>338.277</ele>
        <time>2011-10-15T14:16:24Z</time>
      </trkpt>
      <trkpt lat="42.85657" lon="2.2398">
        <ele>339.877</ele>
        <time>2011-10-15T14:16:32Z</time>
      </trkpt>
      <trkpt lat="42.85643" lon="2.23981">
        <ele>341.431</ele>
        <time>2011-10-15T14:16:39Z</time>
      </trkpt>
      <trkpt lat="42.85636" lon="2.23973">
        <ele>342.372</ele>
        <time>2011-10-15T14:16:43Z</time>
      </trkpt>
      <trkpt lat="42.85639" lon="2.23958">
        <ele>343.77</ele>
        <time>2011-10-15T14:16:48Z</time>
      </trkpt>
      <trkpt lat="42.85642" lon="2.23954">
        <ele>344.003</ele>
        <time>2011-10-15T14:16:50Z</time>
      </trkpt>
      <trkpt lat="42.85657" lon="2.23937">
        <ele>344.897</ele>
        <time>2011-10-15T14:16:57Z</time>
      </trkpt>
      <trkpt lat="42.85672" lon="2.23911">
        <ele>345.908</ele>
        <time>2011-10-15T14:17:05Z</time>
      </trkpt>
      <trkpt lat="42.85689" lon="2.23885">
        <ele>346.366</ele>
        <time>2011-10-15T14:17:13Z</time>
      </trkpt>
      <trkpt lat="42.85699" lon="2.23864">
        <ele>347.092</ele>
        <time>2011-10-15T14:17:19Z</time>
      </trkpt>
      <trkpt lat="42.85704" lon="2.23845">
        <ele>348.26</ele>
        <time>2011-10-15T14:17:25Z</time>
      </trkpt>
      <trkpt lat="42.85703" lon="2.23824">
        <ele>350.19</ele>
        <time>2011-10-15T14:17:32Z</time>
      </trkpt>
      <trkpt lat="42.857" lon="2.23804">
        <ele>352.044</ele>
        <time>2011-10-15T14:17:39Z</time>
      </trkpt>
      <trkpt lat="42.85691" lon="2.23792">
        <ele>353.256</ele>
        <time>2011-10-15T14:17:45Z</time>
      </trkpt>
      <trkpt lat="42.85678" lon="2.23791">
        <ele>354.773</ele>
        <time>2011-10-15T14:17:51Z</time>
      </trkpt>
      <trkpt lat="42.85667" lon="2.23799">
        <ele>357.117</ele>
        <time>2011-10-15T14:17:57Z</time>
      </trkpt>
      <trkpt lat="42.85653" lon="2.23811">
        <ele>359.357</ele>
        <time>2011-10-15T14:18:05Z</time>
      </trkpt>
      <trkpt lat="42.85642" lon="2.23823">
        <ele>360.615</ele>
        <time>2011-10-15T14:18:12Z</time>
      </trkpt>
      <trkpt lat="42.85629" lon="2.23832">
        <ele>362.296</ele>
        <time>2011-10-15T14:18:19Z</time>
      </trkpt>
      <trkpt lat="42.85616" lon="2.23837">
        <ele>364.576</ele>
        <time>2011-10-15T14:18:26Z</time>
      </trkpt>
      <trkpt lat="42.85604" lon="2.23835">
        <ele>366.491</ele>
        <time>2011-10-15T14:18:32Z</time>
      </trkpt>
      <trkpt lat="42.85588" lon="2.23828">
        <ele>368.773</ele>
        <time>2011-10-15T14:18:41Z</time>
      </trkpt>
      <trkpt lat="42.85576" lon="2.23823">
        <ele>370.327</ele>
        <time>2011-10-15T14:18:48Z</time>
      </trkpt>
      <trkpt lat="42.85559" lon="2.23812">
        <ele>372.647</ele>
        <time>2011-10-15T14:18:59Z</time>
      </trkpt>
      <trkpt lat="42.85563" lon="2.23807">
        <ele>373.36</ele>
        <time>2011-10-15T14:19:03Z</time>
      </trkpt>
      <trkpt lat="42.85581" lon="2.23803">
        <ele>372.826</ele>
        <time>2011-10-15T14:19:09Z</time>
      </trkpt>
      <trkpt lat="42.85595" lon="2.23787">
        <ele>372.728</ele>
        <time>2011-10-15T14:19:14Z</time>
      </trkpt>
      <trkpt lat="42.85601" lon="2.23779">
        <ele>372.52</ele>
        <time>2011-10-15T14:19:16Z</time>
      </trkpt>
      <trkpt lat="42.85629" lon="2.2373">
        <ele>371.232</ele>
        <time>2011-10-15T14:19:25Z</time>
      </trkpt>
      <trkpt lat="42.85656" lon="2.23685">
        <ele>370.296</ele>
        <time>2011-10-15T14:19:33Z</time>
      </trkpt>
      <trkpt lat="42.8568" lon="2.23641">
        <ele>368.704</ele>
        <time>2011-10-15T14:19:40Z</time>
      </trkpt>
      <trkpt lat="42.85703" lon="2.23594">
        <ele>367.582</ele>
        <time>2011-10-15T14:19:46Z</time>
      </trkpt>
      <trkpt lat="42.85732" lon="2.23533">
        <ele>365.404</ele>
        <time>2011-10-15T14:19:53Z</time>
      </trkpt>
      <trkpt lat="42.85745" lon="2.23506">
        <ele>364.264</ele>
        <time>2011-10-15T14:19:56Z</time>
      </trkpt>
      <trkpt lat="42.85768" lon="2.23476">
        <ele>362.805</ele>
        <time>2011-10-15T14:20:00Z</time>
      </trkpt>
      <trkpt lat="42.85823" lon="2.23422">
        <ele>358.528</ele>
        <time>2011-10-15T14:20:08Z</time>
      </trkpt>
      <trkpt lat="42.85872" lon="2.23365">
        <ele>356.214</ele>
        <time>2011-10-15T14:20:15Z</time>
      </trkpt>
      <trkpt lat="42.85934" lon="2.23283">
        <ele>351.553</ele>
        <time>2011-10-15T14:20:24Z</time>
      </trkpt>
      <trkpt lat="42.85985" lon="2.2321">
        <ele>345.595</ele>
        <time>2011-10-15T14:20:31Z</time>
      </trkpt>
      <trkpt lat="42.86021" lon="2.23158">
        <ele>341.305</ele>
        <time>2011-10-15T14:20:36Z</time>
      </trkpt>
      <trkpt lat="42.86031" lon="2.2312">
        <ele>339.161</ele>
        <time>2011-10-15T14:20:39Z</time>
      </trkpt>
      <trkpt lat="42.86029" lon="2.23107">
        <ele>339.16</ele>
        <time>2011-10-15T14:20:40Z</time>
      </trkpt>
      <trkpt lat="42.86022" lon="2.23081">
        <ele>337.679</ele>
        <time>2011-10-15T14:20:42Z</time>
      </trkpt>
      <trkpt lat="42.86008" lon="2.23043">
        <ele>336.602</ele>
        <time>2011-10-15T14:20:45Z</time>
      </trkpt>
      <trkpt lat="42.86002" lon="2.2299">
        <ele>335.038</ele>
        <time>2011-10-15T14:20:49Z</time>
      </trkpt>
      <trkpt lat="42.86006" lon="2.22967">
        <ele>333.933</ele>
        <time>2011-10-15T14:20:51Z</time>
      </trkpt>
      <trkpt lat="42.86026" lon="2.22895">
        <ele>329.667</ele>
        <time>2011-10-15T14:20:58Z</time>
      </trkpt>
      <trkpt lat="42.86033" lon="2.22869">
        <ele>327.846</ele>
        <time>2011-10-15T14:21:02Z</time>
      </trkpt>
      <trkpt lat="42.86033" lon="2.22865">
        <ele>326.177</ele>
        <time>2011-10-15T14:21:07Z</time>
      </trkpt>
      <trkpt lat="42.86032" lon="2.22866">
        <ele>326.765</ele>
        <time>2011-10-15T14:21:15Z</time>
      </trkpt>
      <trkpt lat="42.86029" lon="2.22865">
        <ele>326.901</ele>
        <time>2011-10-15T14:21:17Z</time>
      </trkpt>
      <trkpt lat="42.86028" lon="2.22858">
        <ele>327.227</ele>
        <time>2011-10-15T14:21:23Z</time>
      </trkpt>
      <trkpt lat="42.8603" lon="2.22859">
        <ele>326.937</ele>
        <time>2011-10-15T14:22:16Z</time>
      </trkpt>
      <trkpt lat="42.86034" lon="2.22865">
        <ele>327.045</ele>
        <time>2011-10-15T14:22:21Z</time>
      </trkpt>
      <trkpt lat="42.86045" lon="2.22857">
        <ele>326.584</ele>
        <time>2011-10-15T14:22:26Z</time>
      </trkpt>
      <trkpt lat="42.86063" lon="2.2284">
        <ele>326.11</ele>
        <time>2011-10-15T14:22:32Z</time>
      </trkpt>
      <trkpt lat="42.86067" lon="2.22826">
        <ele>325.61</ele>
        <time>2011-10-15T14:22:35Z</time>
      </trkpt>
      <trkpt lat="42.86062" lon="2.22796">
        <ele>325.638</ele>
        <time>2011-10-15T14:22:42Z</time>
      </trkpt>
      <trkpt lat="42.86052" lon="2.22764">
        <ele>327.355</ele>
        <time>2011-10-15T14:22:51Z</time>
      </trkpt>
      <trkpt lat="42.86038" lon="2.22749">
        <ele>328.598</ele>
        <time>2011-10-15T14:22:57Z</time>
      </trkpt>
      <trkpt lat="42.86024" lon="2.22751">
        <ele>329.773</ele>
        <time>2011-10-15T14:23:02Z</time>
      </trkpt>
      <trkpt lat="42.86011" lon="2.22761">
        <ele>331.265</ele>
        <time>2011-10-15T14:23:08Z</time>
      </trkpt>
      <trkpt lat="42.85994" lon="2.22763">
        <ele>332.692</ele>
        <time>2011-10-15T14:23:15Z</time>
      </trkpt>
      <trkpt lat="42.85986" lon="2.22753">
        <ele>333.54</ele>
        <time>2011-10-15T14:23:20Z</time>
      </trkpt>
      <trkpt lat="42.85977" lon="2.22735">
        <ele>335.21</ele>
        <time>2011-10-15T14:23:27Z</time>
      </trkpt>
      <trkpt lat="42.85969" lon="2.22714">
        <ele>337.234</ele>
        <time>2011-10-15T14:23:35Z</time>
      </trkpt>
      <trkpt lat="42.85967" lon="2.227">
        <ele>338.296</ele>
        <time>2011-10-15T14:23:40Z</time>
      </trkpt>
      <trkpt lat="42.85968" lon="2.22698">
        <ele>338.532</ele>
        <time>2011-10-15T14:23:41Z</time>
      </trkpt>
      <trkpt lat="42.8598" lon="2.22697">
        <ele>339.694</ele>
        <time>2011-10-15T14:23:47Z</time>
      </trkpt>
      <trkpt lat="42.85982" lon="2.22698">
        <ele>339.911</ele>
        <time>2011-10-15T14:23:48Z</time>
      </trkpt>
      <trkpt lat="42.86" lon="2.22698">
        <ele>341.072</ele>
        <time>2011-10-15T14:23:56Z</time>
      </trkpt>
      <trkpt lat="42.86002" lon="2.22688">
        <ele>341.938</ele>
        <time>2011-10-15T14:24:01Z</time>
      </trkpt>
      <trkpt lat="42.85997" lon="2.22685">
        <ele>342.494</ele>
        <time>2011-10-15T14:24:04Z</time>
      </trkpt>
      <trkpt lat="42.8598" lon="2.22675">
        <ele>344.189</ele>
        <time>2011-10-15T14:24:12Z</time>
      </trkpt>
      <trkpt lat="42.85966" lon="2.22659">
        <ele>345.646</ele>
        <time>2011-10-15T14:24:20Z</time>
      </trkpt>
      <trkpt lat="42.85952" lon="2.22646">
        <ele>346.668</ele>
        <time>2011-10-15T14:24:27Z</time>
      </trkpt>
      <trkpt lat="42.85939" lon="2.2263">
        <ele>348.512</ele>
        <time>2011-10-15T14:24:35Z</time>
      </trkpt>
      <trkpt lat="42.85941" lon="2.22617">
        <ele>349.245</ele>
        <time>2011-10-15T14:24:39Z</time>
      </trkpt>
      <trkpt lat="42.85952" lon="2.22619">
        <ele>350.022</ele>
        <time>2011-10-15T14:24:44Z</time>
      </trkpt>
      <trkpt lat="42.85955" lon="2.22624">
        <ele>350.317</ele>
        <time>2011-10-15T14:24:46Z</time>
      </trkpt>
      <trkpt lat="42.85969" lon="2.22637">
        <ele>350.985</ele>
        <time>2011-10-15T14:24:53Z</time>
      </trkpt>
      <trkpt lat="42.85983" lon="2.22644">
        <ele>351.766</ele>
        <time>2011-10-15T14:24:59Z</time>
      </trkpt>
      <trkpt lat="42.85997" lon="2.2264">
        <ele>352.811</ele>
        <time>2011-10-15T14:25:05Z</time>
      </trkpt>
      <trkpt lat="42.86013" lon="2.22623">
        <ele>355.375</ele>
        <time>2011-10-15T14:25:14Z</time>
      </trkpt>
      <trkpt lat="42.86013" lon="2.22614">
        <ele>356.064</ele>
        <time>2011-10-15T14:25:18Z</time>
      </trkpt>
      <trkpt lat="42.86004" lon="2.22614">
        <ele>356.966</ele>
        <time>2011-10-15T14:25:22Z</time>
      </trkpt>
      <trkpt lat="42.85984" lon="2.22617">
        <ele>358.066</ele>
        <time>2011-10-15T14:25:31Z</time>
      </trkpt>
      <trkpt lat="42.85976" lon="2.22608">
        <ele>358.892</ele>
        <time>2011-10-15T14:25:36Z</time>
      </trkpt>
      <trkpt lat="42.85964" lon="2.22585">
        <ele>360.105</ele>
        <time>2011-10-15T14:25:45Z</time>
      </trkpt>
      <trkpt lat="42.85958" lon="2.22564">
        <ele>361.95</ele>
        <time>2011-10-15T14:25:52Z</time>
      </trkpt>
      <trkpt lat="42.85958" lon="2.22561">
        <ele>362.168</ele>
        <time>2011-10-15T14:25:53Z</time>
      </trkpt>
      <trkpt lat="42.85967" lon="2.22557">
        <ele>363.114</ele>
        <time>2011-10-15T14:25:57Z</time>
      </trkpt>
      <trkpt lat="42.85972" lon="2.22569">
        <ele>363.713</ele>
        <time>2011-10-15T14:26:01Z</time>
      </trkpt>
      <trkpt lat="42.85973" lon="2.22573">
        <ele>363.817</ele>
        <time>2011-10-15T14:26:02Z</time>
      </trkpt>
      <trkpt lat="42.85982" lon="2.2259">
        <ele>364.089</ele>
        <time>2011-10-15T14:26:08Z</time>
      </trkpt>
      <trkpt lat="42.85992" lon="2.22589">
        <ele>364.741</ele>
        <time>2011-10-15T14:26:12Z</time>
      </trkpt>
      <trkpt lat="42.86004" lon="2.22568">
        <ele>366.82</ele>
        <time>2011-10-15T14:26:20Z</time>
      </trkpt>
      <trkpt lat="42.86015" lon="2.22542">
        <ele>368.964</ele>
        <time>2011-10-15T14:26:29Z</time>
      </trkpt>
      <trkpt lat="42.86018" lon="2.22531">
        <ele>370.031</ele>
        <time>2011-10-15T14:26:33Z</time>
      </trkpt>
      <trkpt lat="42.86013" lon="2.22526">
        <ele>370.836</ele>
        <time>2011-10-15T14:26:37Z</time>
      </trkpt>
      <trkpt lat="42.86008" lon="2.22531">
        <ele>371.495</ele>
        <time>2011-10-15T14:26:40Z</time>
      </trkpt>
      <trkpt lat="42.86002" lon="2.22539">
        <ele>372.222</ele>
        <time>2011-10-15T14:26:44Z</time>
      </trkpt>
      <trkpt lat="42.85989" lon="2.22537">
        <ele>373.035</ele>
        <time>2011-10-15T14:26:50Z</time>
      </trkpt>
      <trkpt lat="42.85986" lon="2.22528">
        <ele>373.23</ele>
        <time>2011-10-15T14:26:53Z</time>
      </trkpt>
      <trkpt lat="42.85984" lon="2.225">
        <ele>374.85</ele>
        <time>2011-10-15T14:27:02Z</time>
      </trkpt>
      <trkpt lat="42.85981" lon="2.22479">
        <ele>376.331</ele>
        <time>2011-10-15T14:27:09Z</time>
      </trkpt>
      <trkpt lat="42.85976" lon="2.22449">
        <ele>378.197</ele>
        <time>2011-10-15T14:27:19Z</time>
      </trkpt>
      <trkpt lat="42.85965" lon="2.22429">
        <ele>379.44</ele>
        <time>2011-10-15T14:27:27Z</time>
      </trkpt>
      <trkpt lat="42.85952" lon="2.22423">
        <ele>379.992</ele>
        <time>2011-10-15T14:27:33Z</time>
      </trkpt>
      <trkpt lat="42.85939" lon="2.22431">
        <ele>381.276</ele>
        <time>2011-10-15T14:27:39Z</time>
      </trkpt>
      <trkpt lat="42.85921" lon="2.22443">
        <ele>382.638</ele>
        <time>2011-10-15T14:27:47Z</time>
      </trkpt>
      <trkpt lat="42.85907" lon="2.22438">
        <ele>383.023</ele>
        <time>2011-10-15T14:27:53Z</time>
      </trkpt>
      <trkpt lat="42.85896" lon="2.22428">
        <ele>384.12</ele>
        <time>2011-10-15T14:27:59Z</time>
      </trkpt>
      <trkpt lat="42.85884" lon="2.22427">
        <ele>385.298</ele>
        <time>2011-10-15T14:28:04Z</time>
      </trkpt>
      <trkpt lat="42.85865" lon="2.22428">
        <ele>386.717</ele>
        <time>2011-10-15T14:28:12Z</time>
      </trkpt>
      <trkpt lat="42.85843" lon="2.22428">
        <ele>388.003</ele>
        <time>2011-10-15T14:28:21Z</time>
      </trkpt>
      <trkpt lat="42.85823" lon="2.22422">
        <ele>388.784</ele>
        <time>2011-10-15T14:28:29Z</time>
      </trkpt>
      <trkpt lat="42.85806" lon="2.22416">
        <ele>389.827</ele>
        <time>2011-10-15T14:28:36Z</time>
      </trkpt>
      <trkpt lat="42.85791" lon="2.22408">
        <ele>391.272</ele>
        <time>2011-10-15T14:28:43Z</time>
      </trkpt>
      <trkpt lat="42.85784" lon="2.22402">
        <ele>392.432</ele>
        <time>2011-10-15T14:28:47Z</time>
      </trkpt>
      <trkpt lat="42.85787" lon="2.22389">
        <ele>393.889</ele>
        <time>2011-10-15T14:28:52Z</time>
      </trkpt>
      <trkpt lat="42.85791" lon="2.22389">
        <ele>394.479</ele>
        <time>2011-10-15T14:28:54Z</time>
      </trkpt>
      <trkpt lat="42.85808" lon="2.22394">
        <ele>395.278</ele>
        <time>2011-10-15T14:29:01Z</time>
      </trkpt>
      <trkpt lat="42.85823" lon="2.2239">
        <ele>396.3</ele>
        <time>2011-10-15T14:29:08Z</time>
      </trkpt>
      <trkpt lat="42.85835" lon="2.22389">
        <ele>397.08</ele>
        <time>2011-10-15T14:29:13Z</time>
      </trkpt>
      <trkpt lat="42.85856" lon="2.22386">
        <ele>398.983</ele>
        <time>2011-10-15T14:29:22Z</time>
      </trkpt>
      <trkpt lat="42.85874" lon="2.22383">
        <ele>400.051</ele>
        <time>2011-10-15T14:29:29Z</time>
      </trkpt>
      <trkpt lat="42.85897" lon="2.22375">
        <ele>401.779</ele>
        <time>2011-10-15T14:29:39Z</time>
      </trkpt>
      <trkpt lat="42.85916" lon="2.2237">
        <ele>403.439</ele>
        <time>2011-10-15T14:29:47Z</time>
      </trkpt>
      <trkpt lat="42.85932" lon="2.22357">
        <ele>404.993</ele>
        <time>2011-10-15T14:29:54Z</time>
      </trkpt>
      <trkpt lat="42.8595" lon="2.22337">
        <ele>406.638</ele>
        <time>2011-10-15T14:30:03Z</time>
      </trkpt>
      <trkpt lat="42.85968" lon="2.22323">
        <ele>408.286</ele>
        <time>2011-10-15T14:30:11Z</time>
      </trkpt>
      <trkpt lat="42.85981" lon="2.22303">
        <ele>409.934</ele>
        <time>2011-10-15T14:30:19Z</time>
      </trkpt>
      <trkpt lat="42.85989" lon="2.22275">
        <ele>411.688</ele>
        <time>2011-10-15T14:30:28Z</time>
      </trkpt>
      <trkpt lat="42.85994" lon="2.22243">
        <ele>413.553</ele>
        <time>2011-10-15T14:30:38Z</time>
      </trkpt>
      <trkpt lat="42.85994" lon="2.22225">
        <ele>414.389</ele>
        <time>2011-10-15T14:30:46Z</time>
      </trkpt>
      <trkpt lat="42.85995" lon="2.22207">
        <ele>415.536</ele>
        <time>2011-10-15T14:30:54Z</time>
      </trkpt>
      <trkpt lat="42.85997" lon="2.22191">
        <ele>416.459</ele>
        <time>2011-10-15T14:30:59Z</time>
      </trkpt>
      <trkpt lat="42.86004" lon="2.22166">
        <ele>418.455</ele>
        <time>2011-10-15T14:31:08Z</time>
      </trkpt>
      <trkpt lat="42.86005" lon="2.22155">
        <ele>419.006</ele>
        <time>2011-10-15T14:31:12Z</time>
      </trkpt>
      <trkpt lat="42.85999" lon="2.22155">
        <ele>419.853</ele>
        <time>2011-10-15T14:31:16Z</time>
      </trkpt>
      <trkpt lat="42.85997" lon="2.22157">
        <ele>420.106</ele>
        <time>2011-10-15T14:31:17Z</time>
      </trkpt>
      <trkpt lat="42.85989" lon="2.22179">
        <ele>421.185</ele>
        <time>2011-10-15T14:31:25Z</time>
      </trkpt>
      <trkpt lat="42.8598" lon="2.22204">
        <ele>423.202</ele>
        <time>2011-10-15T14:31:34Z</time>
      </trkpt>
      <trkpt lat="42.85971" lon="2.22225">
        <ele>424.258</ele>
        <time>2011-10-15T14:31:42Z</time>
      </trkpt>
      <trkpt lat="42.85958" lon="2.22242">
        <ele>425.4</ele>
        <time>2011-10-15T14:31:50Z</time>
      </trkpt>
      <trkpt lat="42.85939" lon="2.22257">
        <ele>427.193</ele>
        <time>2011-10-15T14:31:59Z</time>
      </trkpt>
      <trkpt lat="42.8592" lon="2.22269">
        <ele>428.507</ele>
        <time>2011-10-15T14:32:08Z</time>
      </trkpt>
      <trkpt lat="42.85902" lon="2.22282">
        <ele>430.278</ele>
        <time>2011-10-15T14:32:17Z</time>
      </trkpt>
      <trkpt lat="42.85889" lon="2.2229">
        <ele>430.756</ele>
        <time>2011-10-15T14:32:23Z</time>
      </trkpt>
      <trkpt lat="42.85883" lon="2.22279">
        <ele>431.89</ele>
        <time>2011-10-15T14:32:28Z</time>
      </trkpt>
      <trkpt lat="42.85889" lon="2.22273">
        <ele>432.436</ele>
        <time>2011-10-15T14:32:31Z</time>
      </trkpt>
      <trkpt lat="42.8591" lon="2.22254">
        <ele>433.696</ele>
        <time>2011-10-15T14:32:41Z</time>
      </trkpt>
      <trkpt lat="42.85924" lon="2.22229">
        <ele>434.743</ele>
        <time>2011-10-15T14:32:50Z</time>
      </trkpt>
      <trkpt lat="42.85939" lon="2.22198">
        <ele>435.737</ele>
        <time>2011-10-15T14:33:00Z</time>
      </trkpt>
      <trkpt lat="42.8595" lon="2.22168">
        <ele>437.336</ele>
        <time>2011-10-15T14:33:09Z</time>
      </trkpt>
      <trkpt lat="42.85951" lon="2.22146">
        <ele>438.019</ele>
        <time>2011-10-15T14:33:15Z</time>
      </trkpt>
      <trkpt lat="42.85943" lon="2.22132">
        <ele>438.578</ele>
        <time>2011-10-15T14:33:20Z</time>
      </trkpt>
      <trkpt lat="42.85927" lon="2.22111">
        <ele>440.052</ele>
        <time>2011-10-15T14:33:28Z</time>
      </trkpt>
      <trkpt lat="42.85923" lon="2.22093">
        <ele>441.109</ele>
        <time>2011-10-15T14:33:33Z</time>
      </trkpt>
      <trkpt lat="42.85927" lon="2.22075">
        <ele>441.738</ele>
        <time>2011-10-15T14:33:38Z</time>
      </trkpt>
      <trkpt lat="42.85938" lon="2.22049">
        <ele>442.834</ele>
        <time>2011-10-15T14:33:46Z</time>
      </trkpt>
      <trkpt lat="42.8595" lon="2.22028">
        <ele>444.089</ele>
        <time>2011-10-15T14:33:53Z</time>
      </trkpt>
      <trkpt lat="42.85965" lon="2.22012">
        <ele>445.037</ele>
        <time>2011-10-15T14:34:00Z</time>
      </trkpt>
      <trkpt lat="42.85965" lon="2.21998">
        <ele>445.916</ele>
        <time>2011-10-15T14:34:04Z</time>
      </trkpt>
      <trkpt lat="42.85964" lon="2.21976">
        <ele>446.475</ele>
        <time>2011-10-15T14:34:10Z</time>
      </trkpt>
      <trkpt lat="42.85966" lon="2.21947">
        <ele>447.763</ele>
        <time>2011-10-15T14:34:18Z</time>
      </trkpt>
      <trkpt lat="42.85969" lon="2.21918">
        <ele>449.118</ele>
        <time>2011-10-15T14:34:26Z</time>
      </trkpt>
      <trkpt lat="42.85976" lon="2.21891">
        <ele>450.379</ele>
        <time>2011-10-15T14:34:34Z</time>
      </trkpt>
      <trkpt lat="42.85978" lon="2.21867">
        <ele>450.625</ele>
        <time>2011-10-15T14:34:41Z</time>
      </trkpt>
      <trkpt lat="42.85971" lon="2.21851">
        <ele>452.992</ele>
        <time>2011-10-15T14:34:46Z</time>
      </trkpt>
      <trkpt lat="42.8597" lon="2.21847">
        <ele>453.259</ele>
        <time>2011-10-15T14:34:47Z</time>
      </trkpt>
      <trkpt lat="42.85974" lon="2.21833">
        <ele>454.152</ele>
        <time>2011-10-15T14:34:51Z</time>
      </trkpt>
      <trkpt lat="42.85988" lon="2.21813">
        <ele>455.036</ele>
        <time>2011-10-15T14:34:58Z</time>
      </trkpt>
      <trkpt lat="42.85996" lon="2.21789">
        <ele>455.878</ele>
        <time>2011-10-15T14:35:05Z</time>
      </trkpt>
      <trkpt lat="42.86009" lon="2.2177">
        <ele>457.083</ele>
        <time>2011-10-15T14:35:12Z</time>
      </trkpt>
      <trkpt lat="42.86024" lon="2.21773">
        <ele>457.763</ele>
        <time>2011-10-15T14:35:17Z</time>
      </trkpt>
      <trkpt lat="42.86038" lon="2.21771">
        <ele>458.457</ele>
        <time>2011-10-15T14:35:22Z</time>
      </trkpt>
      <trkpt lat="42.86051" lon="2.21754">
        <ele>459.113</ele>
        <time>2011-10-15T14:35:28Z</time>
      </trkpt>
      <trkpt lat="42.86067" lon="2.21718">
        <ele>460.983</ele>
        <time>2011-10-15T14:35:39Z</time>
      </trkpt>
      <trkpt lat="42.86076" lon="2.21702">
        <ele>461.113</ele>
        <time>2011-10-15T14:35:44Z</time>
      </trkpt>
      <trkpt lat="42.86086" lon="2.21673">
        <ele>462.492</ele>
        <time>2011-10-15T14:35:52Z</time>
      </trkpt>
      <trkpt lat="42.86097" lon="2.21635">
        <ele>464.284</ele>
        <time>2011-10-15T14:36:02Z</time>
      </trkpt>
      <trkpt lat="42.86104" lon="2.216">
        <ele>465.748</ele>
        <time>2011-10-15T14:36:11Z</time>
      </trkpt>
      <trkpt lat="42.86109" lon="2.21558">
        <ele>466.636</ele>
        <time>2011-10-15T14:36:21Z</time>
      </trkpt>
      <trkpt lat="42.86115" lon="2.2152">
        <ele>467.146</ele>
        <time>2011-10-15T14:36:29Z</time>
      </trkpt>
      <trkpt lat="42.86117" lon="2.21483">
        <ele>467.338</ele>
        <time>2011-10-15T14:36:36Z</time>
      </trkpt>
      <trkpt lat="42.8612" lon="2.21441">
        <ele>468.202</ele>
        <time>2011-10-15T14:36:44Z</time>
      </trkpt>
      <trkpt lat="42.86129" lon="2.21394">
        <ele>468.972</ele>
        <time>2011-10-15T14:36:53Z</time>
      </trkpt>
      <trkpt lat="42.86139" lon="2.21348">
        <ele>469.919</ele>
        <time>2011-10-15T14:37:02Z</time>
      </trkpt>
      <trkpt lat="42.8615" lon="2.2132">
        <ele>470.549</ele>
        <time>2011-10-15T14:37:08Z</time>
      </trkpt>
      <trkpt lat="42.8616" lon="2.21291">
        <ele>471.131</ele>
        <time>2011-10-15T14:37:14Z</time>
      </trkpt>
      <trkpt lat="42.86174" lon="2.21247">
        <ele>471.814</ele>
        <time>2011-10-15T14:37:23Z</time>
      </trkpt>
      <trkpt lat="42.86181" lon="2.21198">
        <ele>472.777</ele>
        <time>2011-10-15T14:37:32Z</time>
      </trkpt>
      <trkpt lat="42.86181" lon="2.21152">
        <ele>474.177</ele>
        <time>2011-10-15T14:37:41Z</time>
      </trkpt>
      <trkpt lat="42.86173" lon="2.21136">
        <ele>474.606</ele>
        <time>2011-10-15T14:37:45Z</time>
      </trkpt>
      <trkpt lat="42.8616" lon="2.21133">
        <ele>475.317</ele>
        <time>2011-10-15T14:37:49Z</time>
      </trkpt>
      <trkpt lat="42.86143" lon="2.21133">
        <ele>476.746</ele>
        <time>2011-10-15T14:37:54Z</time>
      </trkpt>
      <trkpt lat="42.86127" lon="2.21122">
        <ele>477.766</ele>
        <time>2011-10-15T14:38:00Z</time>
      </trkpt>
      <trkpt lat="42.86113" lon="2.21098">
        <ele>478.943</ele>
        <time>2011-10-15T14:38:07Z</time>
      </trkpt>
      <trkpt lat="42.86106" lon="2.21075">
        <ele>479.777</ele>
        <time>2011-10-15T14:38:12Z</time>
      </trkpt>
      <trkpt lat="42.86101" lon="2.21046">
        <ele>480.254</ele>
        <time>2011-10-15T14:38:18Z</time>
      </trkpt>
      <trkpt lat="42.86095" lon="2.21013">
        <ele>480.489</ele>
        <time>2011-10-15T14:38:25Z</time>
      </trkpt>
      <trkpt lat="42.861" lon="2.20976">
        <ele>482.147</ele>
        <time>2011-10-15T14:38:34Z</time>
      </trkpt>
      <trkpt lat="42.86106" lon="2.20938">
        <ele>484.309</ele>
        <time>2011-10-15T14:38:43Z</time>
      </trkpt>
      <trkpt lat="42.86111" lon="2.20904">
        <ele>485.352</ele>
        <time>2011-10-15T14:38:51Z</time>
      </trkpt>
      <trkpt lat="42.86115" lon="2.20868">
        <ele>487.303</ele>
        <time>2011-10-15T14:39:00Z</time>
      </trkpt>
      <trkpt lat="42.86123" lon="2.20848">
        <ele>488.032</ele>
        <time>2011-10-15T14:39:05Z</time>
      </trkpt>
      <trkpt lat="42.86135" lon="2.20827">
        <ele>488.474</ele>
        <time>2011-10-15T14:39:11Z</time>
      </trkpt>
      <trkpt lat="42.86152" lon="2.20805">
        <ele>489.064</ele>
        <time>2011-10-15T14:39:18Z</time>
      </trkpt>
      <trkpt lat="42.86168" lon="2.20797">
        <ele>489.215</ele>
        <time>2011-10-15T14:39:23Z</time>
      </trkpt>
      <trkpt lat="42.8617" lon="2.20794">
        <ele>489.321</ele>
        <time>2011-10-15T14:39:24Z</time>
      </trkpt>
      <trkpt lat="42.86169" lon="2.20783">
        <ele>489.664</ele>
        <time>2011-10-15T14:39:28Z</time>
      </trkpt>
      <trkpt lat="42.86166" lon="2.20781">
        <ele>489.724</ele>
        <time>2011-10-15T14:39:29Z</time>
      </trkpt>
      <trkpt lat="42.86147" lon="2.20764">
        <ele>490.456</ele>
        <time>2011-10-15T14:39:35Z</time>
      </trkpt>
      <trkpt lat="42.86124" lon="2.20732">
        <ele>491.105</ele>
        <time>2011-10-15T14:39:43Z</time>
      </trkpt>
      <trkpt lat="42.86111" lon="2.20699">
        <ele>491.454</ele>
        <time>2011-10-15T14:39:50Z</time>
      </trkpt>
      <trkpt lat="42.86105" lon="2.20661">
        <ele>491.79</ele>
        <time>2011-10-15T14:39:57Z</time>
      </trkpt>
      <trkpt lat="42.86105" lon="2.20655">
        <ele>491.804</ele>
        <time>2011-10-15T14:39:58Z</time>
      </trkpt>
      <trkpt lat="42.86111" lon="2.20628">
        <ele>491.265</ele>
        <time>2011-10-15T14:40:03Z</time>
      </trkpt>
      <trkpt lat="42.86122" lon="2.20593">
        <ele>491.984</ele>
        <time>2011-10-15T14:40:10Z</time>
      </trkpt>
      <trkpt lat="42.86136" lon="2.20553">
        <ele>492.456</ele>
        <time>2011-10-15T14:40:18Z</time>
      </trkpt>
      <trkpt lat="42.86148" lon="2.20505">
        <ele>493.273</ele>
        <time>2011-10-15T14:40:27Z</time>
      </trkpt>
      <trkpt lat="42.86151" lon="2.20487">
        <ele>493.067</ele>
        <time>2011-10-15T14:40:30Z</time>
      </trkpt>
      <trkpt lat="42.86151" lon="2.20448">
        <ele>492.597</ele>
        <time>2011-10-15T14:40:36Z</time>
      </trkpt>
      <trkpt lat="42.86147" lon="2.20415">
        <ele>492.257</ele>
        <time>2011-10-15T14:40:41Z</time>
      </trkpt>
      <trkpt lat="42.86146" lon="2.2037">
        <ele>492.022</ele>
        <time>2011-10-15T14:40:48Z</time>
      </trkpt>
      <trkpt lat="42.86145" lon="2.20321">
        <ele>491.509</ele>
        <time>2011-10-15T14:40:55Z</time>
      </trkpt>
      <trkpt lat="42.86145" lon="2.20271">
        <ele>490.811</ele>
        <time>2011-10-15T14:41:02Z</time>
      </trkpt>
      <trkpt lat="42.86152" lon="2.20214">
        <ele>491.146</ele>
        <time>2011-10-15T14:41:11Z</time>
      </trkpt>
      <trkpt lat="42.86154" lon="2.20202">
        <ele>491.32</ele>
        <time>2011-10-15T14:41:13Z</time>
      </trkpt>
      <trkpt lat="42.86165" lon="2.2016">
        <ele>491.951</ele>
        <time>2011-10-15T14:41:21Z</time>
      </trkpt>
      <trkpt lat="42.86173" lon="2.20133">
        <ele>492.637</ele>
        <time>2011-10-15T14:41:27Z</time>
      </trkpt>
      <trkpt lat="42.86174" lon="2.20129">
        <ele>492.761</ele>
        <time>2011-10-15T14:41:29Z</time>
      </trkpt>
      <trkpt lat="42.86172" lon="2.20124">
        <ele>493.195</ele>
        <time>2011-10-15T14:41:34Z</time>
      </trkpt>
      <trkpt lat="42.86167" lon="2.20119">
        <ele>493.09</ele>
        <time>2011-10-15T14:41:40Z</time>
      </trkpt>
      <trkpt lat="42.86166" lon="2.2012">
        <ele>493.278</ele>
        <time>2011-10-15T14:41:50Z</time>
      </trkpt>
      <trkpt lat="42.86166" lon="2.20122">
        <ele>493.486</ele>
        <time>2011-10-15T14:42:48Z</time>
      </trkpt>
      <trkpt lat="42.86168" lon="2.20129">
        <ele>493.34</ele>
        <time>2011-10-15T14:42:53Z</time>
      </trkpt>
      <trkpt lat="42.86177" lon="2.20127">
        <ele>493.536</ele>
        <time>2011-10-15T14:42:58Z</time>
      </trkpt>
      <trkpt lat="42.86196" lon="2.20108">
        <ele>493.706</ele>
        <time>2011-10-15T14:43:07Z</time>
      </trkpt>
      <trkpt lat="42.86215" lon="2.20093">
        <ele>492.836</ele>
        <time>2011-10-15T14:43:13Z</time>
      </trkpt>
      <trkpt lat="42.86239" lon="2.20081">
        <ele>490.911</ele>
        <time>2011-10-15T14:43:18Z</time>
      </trkpt>
      <trkpt lat="42.86278" lon="2.20051">
        <ele>487.928</ele>
        <time>2011-10-15T14:43:25Z</time>
      </trkpt>
      <trkpt lat="42.86313" lon="2.20025">
        <ele>484.587</ele>
        <time>2011-10-15T14:43:30Z</time>
      </trkpt>
      <trkpt lat="42.86328" lon="2.20015">
        <ele>483.31</ele>
        <time>2011-10-15T14:43:32Z</time>
      </trkpt>
      <trkpt lat="42.86368" lon="2.2">
        <ele>481.283</ele>
        <time>2011-10-15T14:43:38Z</time>
      </trkpt>
      <trkpt lat="42.86383" lon="2.19995">
        <ele>481.578</ele>
        <time>2011-10-15T14:43:41Z</time>
      </trkpt>
      <trkpt lat="42.86403" lon="2.19988">
        <ele>483.855</ele>
        <time>2011-10-15T14:43:47Z</time>
      </trkpt>
      <trkpt lat="42.86425" lon="2.19986">
        <ele>485.399</ele>
        <time>2011-10-15T14:43:54Z</time>
      </trkpt>
      <trkpt lat="42.86444" lon="2.19996">
        <ele>486.974</ele>
        <time>2011-10-15T14:44:00Z</time>
      </trkpt>
      <trkpt lat="42.86461" lon="2.20009">
        <ele>488.534</ele>
        <time>2011-10-15T14:44:06Z</time>
      </trkpt>
      <trkpt lat="42.86479" lon="2.20006">
        <ele>489.982</ele>
        <time>2011-10-15T14:44:12Z</time>
      </trkpt>
      <trkpt lat="42.86499" lon="2.19999">
        <ele>489.328</ele>
        <time>2011-10-15T14:44:17Z</time>
      </trkpt>
      <trkpt lat="42.8653" lon="2.19995">
        <ele>487.759</ele>
        <time>2011-10-15T14:44:23Z</time>
      </trkpt>
      <trkpt lat="42.86547" lon="2.19988">
        <ele>486.313</ele>
        <time>2011-10-15T14:44:27Z</time>
      </trkpt>
      <trkpt lat="42.86549" lon="2.19985">
        <ele>485.661</ele>
        <time>2011-10-15T14:44:31Z</time>
      </trkpt>
      <trkpt lat="42.86549" lon="2.19982">
        <ele>485.841</ele>
        <time>2011-10-15T14:45:10Z</time>
      </trkpt>
      <trkpt lat="42.8655" lon="2.19969">
        <ele>485.409</ele>
        <time>2011-10-15T14:45:15Z</time>
      </trkpt>
      <trkpt lat="42.86554" lon="2.19961">
        <ele>484.789</ele>
        <time>2011-10-15T14:45:17Z</time>
      </trkpt>
      <trkpt lat="42.86564" lon="2.19941">
        <ele>482.566</ele>
        <time>2011-10-15T14:45:22Z</time>
      </trkpt>
      <trkpt lat="42.8657" lon="2.19935">
        <ele>481.413</ele>
        <time>2011-10-15T14:45:24Z</time>
      </trkpt>
      <trkpt lat="42.86586" lon="2.19928">
        <ele>479.095</ele>
        <time>2011-10-15T14:45:28Z</time>
      </trkpt>
      <trkpt lat="42.86602" lon="2.19914">
        <ele>477.25</ele>
        <time>2011-10-15T14:45:33Z</time>
      </trkpt>
      <trkpt lat="42.86606" lon="2.1991">
        <ele>476.716</ele>
        <time>2011-10-15T14:45:34Z</time>
      </trkpt>
      <trkpt lat="42.86619" lon="2.19896">
        <ele>474.224</ele>
        <time>2011-10-15T14:45:38Z</time>
      </trkpt>
      <trkpt lat="42.86642" lon="2.19863">
        <ele>469.731</ele>
        <time>2011-10-15T14:45:45Z</time>
      </trkpt>
      <trkpt lat="42.86661" lon="2.19834">
        <ele>466.163</ele>
        <time>2011-10-15T14:45:50Z</time>
      </trkpt>
      <trkpt lat="42.86668" lon="2.19825">
        <ele>464.587</ele>
        <time>2011-10-15T14:45:52Z</time>
      </trkpt>
      <trkpt lat="42.86688" lon="2.19784">
        <ele>460.431</ele>
        <time>2011-10-15T14:45:58Z</time>
      </trkpt>
      <trkpt lat="42.86713" lon="2.19736">
        <ele>454.438</ele>
        <time>2011-10-15T14:46:05Z</time>
      </trkpt>
      <trkpt lat="42.8672" lon="2.19724">
        <ele>453.099</ele>
        <time>2011-10-15T14:46:07Z</time>
      </trkpt>
      <trkpt lat="42.86739" lon="2.19711">
        <ele>450.404</ele>
        <time>2011-10-15T14:46:11Z</time>
      </trkpt>
      <trkpt lat="42.86756" lon="2.19705">
        <ele>449.099</ele>
        <time>2011-10-15T14:46:14Z</time>
      </trkpt>
      <trkpt lat="42.86782" lon="2.19693">
        <ele>447.287</ele>
        <time>2011-10-15T14:46:19Z</time>
      </trkpt>
      <trkpt lat="42.86797" lon="2.19692">
        <ele>445.751</ele>
        <time>2011-10-15T14:46:22Z</time>
      </trkpt>
      <trkpt lat="42.86813" lon="2.19683">
        <ele>444.217</ele>
        <time>2011-10-15T14:46:25Z</time>
      </trkpt>
      <trkpt lat="42.86831" lon="2.19683">
        <ele>439.896</ele>
        <time>2011-10-15T14:46:29Z</time>
      </trkpt>
      <trkpt lat="42.86843" lon="2.19688">
        <ele>437.461</ele>
        <time>2011-10-15T14:46:32Z</time>
      </trkpt>
      <trkpt lat="42.86858" lon="2.1968">
        <ele>433.352</ele>
        <time>2011-10-15T14:46:37Z</time>
      </trkpt>
      <trkpt lat="42.86866" lon="2.19673">
        <ele>430.886</ele>
        <time>2011-10-15T14:46:40Z</time>
      </trkpt>
      <trkpt lat="42.8688" lon="2.19657">
        <ele>427.562</ele>
        <time>2011-10-15T14:46:44Z</time>
      </trkpt>
      <trkpt lat="42.86894" lon="2.19648">
        <ele>426.009</ele>
        <time>2011-10-15T14:46:47Z</time>
      </trkpt>
      <trkpt lat="42.86899" lon="2.19644">
        <ele>426.008</ele>
        <time>2011-10-15T14:46:48Z</time>
      </trkpt>
      <trkpt lat="42.86921" lon="2.19615">
        <ele>423.648</ele>
        <time>2011-10-15T14:46:53Z</time>
      </trkpt>
      <trkpt lat="42.86939" lon="2.19589">
        <ele>420.227</ele>
        <time>2011-10-15T14:46:57Z</time>
      </trkpt>
      <trkpt lat="42.86946" lon="2.19578">
        <ele>418.48</ele>
        <time>2011-10-15T14:46:59Z</time>
      </trkpt>
      <trkpt lat="42.86967" lon="2.19563">
        <ele>414.324</ele>
        <time>2011-10-15T14:47:04Z</time>
      </trkpt>
      <trkpt lat="42.8698" lon="2.19556">
        <ele>411.208</ele>
        <time>2011-10-15T14:47:08Z</time>
      </trkpt>
      <trkpt lat="42.86983" lon="2.19553">
        <ele>410.35</ele>
        <time>2011-10-15T14:47:09Z</time>
      </trkpt>
      <trkpt lat="42.86992" lon="2.19531">
        <ele>407.34</ele>
        <time>2011-10-15T14:47:13Z</time>
      </trkpt>
      <trkpt lat="42.87004" lon="2.19506">
        <ele>403.184</ele>
        <time>2011-10-15T14:47:17Z</time>
      </trkpt>
      <trkpt lat="42.8702" lon="2.19483">
        <ele>399.282</ele>
        <time>2011-10-15T14:47:21Z</time>
      </trkpt>
      <trkpt lat="42.87033" lon="2.1947">
        <ele>396.06</ele>
        <time>2011-10-15T14:47:24Z</time>
      </trkpt>
      <trkpt lat="42.87044" lon="2.19463">
        <ele>393.735</ele>
        <time>2011-10-15T14:47:26Z</time>
      </trkpt>
      <trkpt lat="42.87066" lon="2.19453">
        <ele>389.848</ele>
        <time>2011-10-15T14:47:30Z</time>
      </trkpt>
      <trkpt lat="42.87072" lon="2.19433">
        <ele>386.461</ele>
        <time>2011-10-15T14:47:34Z</time>
      </trkpt>
      <trkpt lat="42.87073" lon="2.19418">
        <ele>385.178</ele>
        <time>2011-10-15T14:47:36Z</time>
      </trkpt>
      <trkpt lat="42.87076" lon="2.19404">
        <ele>384.319</ele>
        <time>2011-10-15T14:47:38Z</time>
      </trkpt>
      <trkpt lat="42.8708" lon="2.19385">
        <ele>381.583</ele>
        <time>2011-10-15T14:47:41Z</time>
      </trkpt>
      <trkpt lat="42.87085" lon="2.19374">
        <ele>379.876</ele>
        <time>2011-10-15T14:47:43Z</time>
      </trkpt>
      <trkpt lat="42.87089" lon="2.1935">
        <ele>376.605</ele>
        <time>2011-10-15T14:47:47Z</time>
      </trkpt>
      <trkpt lat="42.87097" lon="2.19324">
        <ele>371.71</ele>
        <time>2011-10-15T14:47:52Z</time>
      </trkpt>
      <trkpt lat="42.87113" lon="2.19304">
        <ele>367.323</ele>
        <time>2011-10-15T14:47:56Z</time>
      </trkpt>
      <trkpt lat="42.87142" lon="2.19279">
        <ele>360.653</ele>
        <time>2011-10-15T14:48:02Z</time>
      </trkpt>
      <trkpt lat="42.87147" lon="2.19274">
        <ele>359.731</ele>
        <time>2011-10-15T14:48:03Z</time>
      </trkpt>
      <trkpt lat="42.8716" lon="2.19239">
        <ele>355.335</ele>
        <time>2011-10-15T14:48:08Z</time>
      </trkpt>
      <trkpt lat="42.87171" lon="2.1922">
        <ele>352.092</ele>
        <time>2011-10-15T14:48:11Z</time>
      </trkpt>
      <trkpt lat="42.87203" lon="2.19205">
        <ele>346.058</ele>
        <time>2011-10-15T14:48:17Z</time>
      </trkpt>
      <trkpt lat="42.87213" lon="2.19197">
        <ele>341.958</ele>
        <time>2011-10-15T14:48:21Z</time>
      </trkpt>
      <trkpt lat="42.87219" lon="2.19193">
        <ele>339.577</ele>
        <time>2011-10-15T14:48:25Z</time>
      </trkpt>
      <trkpt lat="42.8722" lon="2.19194">
        <ele>338.545</ele>
        <time>2011-10-15T14:48:32Z</time>
      </trkpt>
      <trkpt lat="42.87219" lon="2.19192">
        <ele>338.999</ele>
        <time>2011-10-15T14:48:42Z</time>
      </trkpt>
      <trkpt lat="42.8722" lon="2.19192">
        <ele>338.906</ele>
        <time>2011-10-15T14:48:46Z</time>
      </trkpt>
      <trkpt lat="42.8723" lon="2.19192">
        <ele>338.383</ele>
        <time>2011-10-15T14:48:51Z</time>
      </trkpt>
      <trkpt lat="42.87255" lon="2.19183">
        <ele>337.551</ele>
        <time>2011-10-15T14:48:57Z</time>
      </trkpt>
      <trkpt lat="42.87279" lon="2.19167">
        <ele>335.579</ele>
        <time>2011-10-15T14:49:01Z</time>
      </trkpt>
      <trkpt lat="42.87284" lon="2.19163">
        <ele>335.104</ele>
        <time>2011-10-15T14:49:02Z</time>
      </trkpt>
      <trkpt lat="42.87292" lon="2.19137">
        <ele>331.898</ele>
        <time>2011-10-15T14:49:06Z</time>
      </trkpt>
      <trkpt lat="42.87286" lon="2.19117">
        <ele>328.105</ele>
        <time>2011-10-15T14:49:09Z</time>
      </trkpt>
      <trkpt lat="42.87289" lon="2.19114">
        <ele>326.501</ele>
        <time>2011-10-15T14:49:11Z</time>
      </trkpt>
      <trkpt lat="42.87294" lon="2.19121">
        <ele>325.434</ele>
        <time>2011-10-15T14:49:13Z</time>
      </trkpt>
      <trkpt lat="42.87307" lon="2.19138">
        <ele>322.63</ele>
        <time>2011-10-15T14:49:17Z</time>
      </trkpt>
      <trkpt lat="42.87316" lon="2.19147">
        <ele>321.108</ele>
        <time>2011-10-15T14:49:20Z</time>
      </trkpt>
      <trkpt lat="42.87323" lon="2.19162">
        <ele>318.41</ele>
        <time>2011-10-15T14:49:23Z</time>
      </trkpt>
      <trkpt lat="42.87327" lon="2.19161">
        <ele>315.502</ele>
        <time>2011-10-15T14:49:26Z</time>
      </trkpt>
      <trkpt lat="42.87329" lon="2.19153">
        <ele>314.241</ele>
        <time>2011-10-15T14:49:28Z</time>
      </trkpt>
      <trkpt lat="42.87333" lon="2.19139">
        <ele>312.936</ele>
        <time>2011-10-15T14:49:30Z</time>
      </trkpt>
      <trkpt lat="42.87341" lon="2.19117">
        <ele>308.777</ele>
        <time>2011-10-15T14:49:34Z</time>
      </trkpt>
      <trkpt lat="42.87354" lon="2.1911">
        <ele>304.934</ele>
        <time>2011-10-15T14:49:37Z</time>
      </trkpt>
      <trkpt lat="42.87363" lon="2.19104">
        <ele>302.093</ele>
        <time>2011-10-15T14:49:39Z</time>
      </trkpt>
      <trkpt lat="42.87375" lon="2.1909">
        <ele>298.505</ele>
        <time>2011-10-15T14:49:42Z</time>
      </trkpt>
      <trkpt lat="42.87388" lon="2.19077">
        <ele>296.412</ele>
        <time>2011-10-15T14:49:45Z</time>
      </trkpt>
      <trkpt lat="42.87408" lon="2.19067">
        <ele>292.476</ele>
        <time>2011-10-15T14:49:49Z</time>
      </trkpt>
      <trkpt lat="42.87421" lon="2.19066">
        <ele>289.829</ele>
        <time>2011-10-15T14:49:52Z</time>
      </trkpt>
      <trkpt lat="42.87427" lon="2.19082">
        <ele>288.221</ele>
        <time>2011-10-15T14:49:55Z</time>
      </trkpt>
      <trkpt lat="42.87439" lon="2.19087">
        <ele>287.369</ele>
        <time>2011-10-15T14:49:58Z</time>
      </trkpt>
      <trkpt lat="42.87456" lon="2.19067">
        <ele>285.747</ele>
        <time>2011-10-15T14:50:02Z</time>
      </trkpt>
      <trkpt lat="42.87468" lon="2.19051">
        <ele>284.062</ele>
        <time>2011-10-15T14:50:05Z</time>
      </trkpt>
      <trkpt lat="42.87486" lon="2.19032">
        <ele>281.878</ele>
        <time>2011-10-15T14:50:09Z</time>
      </trkpt>
      <trkpt lat="42.87496" lon="2.19018">
        <ele>280.242</ele>
        <time>2011-10-15T14:50:12Z</time>
      </trkpt>
      <trkpt lat="42.87496" lon="2.18996">
        <ele>278.624</ele>
        <time>2011-10-15T14:50:15Z</time>
      </trkpt>
      <trkpt lat="42.87491" lon="2.18964">
        <ele>277.149</ele>
        <time>2011-10-15T14:50:19Z</time>
      </trkpt>
      <trkpt lat="42.87496" lon="2.18935">
        <ele>274.777</ele>
        <time>2011-10-15T14:50:23Z</time>
      </trkpt>
      <trkpt lat="42.87501" lon="2.18909">
        <ele>272.999</ele>
        <time>2011-10-15T14:50:26Z</time>
      </trkpt>
      <trkpt lat="42.8751" lon="2.18877">
        <ele>269.388</ele>
        <time>2011-10-15T14:50:30Z</time>
      </trkpt>
      <trkpt lat="42.87528" lon="2.18848">
        <ele>265.137</ele>
        <time>2011-10-15T14:50:34Z</time>
      </trkpt>
      <trkpt lat="42.87536" lon="2.18834">
        <ele>264.009</ele>
        <time>2011-10-15T14:50:36Z</time>
      </trkpt>
      <trkpt lat="42.87535" lon="2.18809">
        <ele>261.101</ele>
        <time>2011-10-15T14:50:39Z</time>
      </trkpt>
      <trkpt lat="42.87529" lon="2.18777">
        <ele>257.723</ele>
        <time>2011-10-15T14:50:43Z</time>
      </trkpt>
      <trkpt lat="42.87514" lon="2.18729">
        <ele>256.087</ele>
        <time>2011-10-15T14:50:50Z</time>
      </trkpt>
      <trkpt lat="42.875" lon="2.18687">
        <ele>254.529</ele>
        <time>2011-10-15T14:50:56Z</time>
      </trkpt>
      <trkpt lat="42.8749" lon="2.18656">
        <ele>253.103</ele>
        <time>2011-10-15T14:51:01Z</time>
      </trkpt>
      <trkpt lat="42.87476" lon="2.18639">
        <ele>250.286</ele>
        <time>2011-10-15T14:51:05Z</time>
      </trkpt>
      <trkpt lat="42.87459" lon="2.18639">
        <ele>248.023</ele>
        <time>2011-10-15T14:51:08Z</time>
      </trkpt>
      <trkpt lat="42.87444" lon="2.18647">
        <ele>246.072</ele>
        <time>2011-10-15T14:51:11Z</time>
      </trkpt>
      <trkpt lat="42.87434" lon="2.18658">
        <ele>243.994</ele>
        <time>2011-10-15T14:51:16Z</time>
      </trkpt>
      <trkpt lat="42.87432" lon="2.18653">
        <ele>242.939</ele>
        <time>2011-10-15T14:51:21Z</time>
      </trkpt>
      <trkpt lat="42.87435" lon="2.1865">
        <ele>242.604</ele>
        <time>2011-10-15T14:51:22Z</time>
      </trkpt>
      <trkpt lat="42.87457" lon="2.18627">
        <ele>240.23</ele>
        <time>2011-10-15T14:51:27Z</time>
      </trkpt>
      <trkpt lat="42.87469" lon="2.18597">
        <ele>235.87</ele>
        <time>2011-10-15T14:51:32Z</time>
      </trkpt>
      <trkpt lat="42.87465" lon="2.18583">
        <ele>235.179</ele>
        <time>2011-10-15T14:51:34Z</time>
      </trkpt>
      <trkpt lat="42.87459" lon="2.18558">
        <ele>234.485</ele>
        <time>2011-10-15T14:51:37Z</time>
      </trkpt>
      <trkpt lat="42.87453" lon="2.18543">
        <ele>232.788</ele>
        <time>2011-10-15T14:51:40Z</time>
      </trkpt>
      <trkpt lat="42.87438" lon="2.18538">
        <ele>231.526</ele>
        <time>2011-10-15T14:51:45Z</time>
      </trkpt>
      <trkpt lat="42.87434" lon="2.18527">
        <ele>231.642</ele>
        <time>2011-10-15T14:51:48Z</time>
      </trkpt>
      <trkpt lat="42.8742" lon="2.18519">
        <ele>231.689</ele>
        <time>2011-10-15T14:51:52Z</time>
      </trkpt>
      <trkpt lat="42.87413" lon="2.18517">
        <ele>231.732</ele>
        <time>2011-10-15T14:51:54Z</time>
      </trkpt>
      <trkpt lat="42.87402" lon="2.18509">
        <ele>232.045</ele>
        <time>2011-10-15T14:51:58Z</time>
      </trkpt>
      <trkpt lat="42.87397" lon="2.18493">
        <ele>232.302</ele>
        <time>2011-10-15T14:52:01Z</time>
      </trkpt>
      <trkpt lat="42.87382" lon="2.18437">
        <ele>233.153</ele>
        <time>2011-10-15T14:52:11Z</time>
      </trkpt>
      <trkpt lat="42.8737" lon="2.18398">
        <ele>234.05</ele>
        <time>2011-10-15T14:52:18Z</time>
      </trkpt>
      <trkpt lat="42.87362" lon="2.18355">
        <ele>235.492</ele>
        <time>2011-10-15T14:52:25Z</time>
      </trkpt>
      <trkpt lat="42.87352" lon="2.18307">
        <ele>237.081</ele>
        <time>2011-10-15T14:52:33Z</time>
      </trkpt>
      <trkpt lat="42.8735" lon="2.18282">
        <ele>237.485</ele>
        <time>2011-10-15T14:52:38Z</time>
      </trkpt>
      <trkpt lat="42.8735" lon="2.18263">
        <ele>237.793</ele>
        <time>2011-10-15T14:52:44Z</time>
      </trkpt>
      <trkpt lat="42.87348" lon="2.18248">
        <ele>237.949</ele>
        <time>2011-10-15T14:52:49Z</time>
      </trkpt>
    </trkseg>
  </trk>
</gpx>